<?xml version="1.0" encoding="UTF-8" standalone="no" ?>
<gpx xmlns="http://www.topografix.com/GPX/1/1" xmlns:xsi="http://www.w3.org/2001/XMLSchema-instance" xsi:schemaLocation="http://www.topografix.com/GPX/1/1 http://www.topografix.com/GPX/1/1/gpx.xsd" version="1.1" creator="VisuGPX - https://www.visugpx.com">
  <metadata>
    <name>29km landigou</name>
  </metadata>
  <trk>
    <name><![CDATA[29km landigou_1]]></name>
    <trkseg>
      <trkpt lat="48.77127" lon="-0.58025">
        <ele>204.4</ele>
        <time>2020-09-06T07:43:25Z</time>
      </trkpt>
      <trkpt lat="48.77129" lon="-0.58028">
        <ele>204</ele>
        <time>2020-09-06T07:43:29Z</time>
      </trkpt>
      <trkpt lat="48.77131" lon="-0.58033">
        <ele>203.8</ele>
        <time>2020-09-06T07:43:31Z</time>
      </trkpt>
      <trkpt lat="48.77137" lon="-0.58058">
        <ele>203.8</ele>
        <time>2020-09-06T07:43:38Z</time>
      </trkpt>
      <trkpt lat="48.77136" lon="-0.58084">
        <ele>203.4</ele>
        <time>2020-09-06T07:43:43Z</time>
      </trkpt>
      <trkpt lat="48.77144" lon="-0.58099">
        <ele>204</ele>
        <time>2020-09-06T07:43:47Z</time>
      </trkpt>
      <trkpt lat="48.7715" lon="-0.581">
        <ele>203.8</ele>
        <time>2020-09-06T07:43:49Z</time>
      </trkpt>
      <trkpt lat="48.77156" lon="-0.58095">
        <ele>203.8</ele>
        <time>2020-09-06T07:43:51Z</time>
      </trkpt>
      <trkpt lat="48.77161" lon="-0.58091">
        <ele>203.2</ele>
        <time>2020-09-06T07:43:53Z</time>
      </trkpt>
      <trkpt lat="48.77175" lon="-0.58078">
        <ele>202</ele>
        <time>2020-09-06T07:43:58Z</time>
      </trkpt>
      <trkpt lat="48.77178" lon="-0.58075">
        <ele>201.6</ele>
        <time>2020-09-06T07:43:59Z</time>
      </trkpt>
      <trkpt lat="48.77186" lon="-0.58067">
        <ele>200.8</ele>
        <time>2020-09-06T07:44:02Z</time>
      </trkpt>
      <trkpt lat="48.77198" lon="-0.58053">
        <ele>200.2</ele>
        <time>2020-09-06T07:44:06Z</time>
      </trkpt>
      <trkpt lat="48.7721" lon="-0.58043">
        <ele>199.6</ele>
        <time>2020-09-06T07:44:09Z</time>
      </trkpt>
      <trkpt lat="48.77218" lon="-0.58037">
        <ele>198.6</ele>
        <time>2020-09-06T07:44:11Z</time>
      </trkpt>
      <trkpt lat="48.7723" lon="-0.58033">
        <ele>197.2</ele>
        <time>2020-09-06T07:44:14Z</time>
      </trkpt>
      <trkpt lat="48.77239" lon="-0.58033">
        <ele>196.2</ele>
        <time>2020-09-06T07:44:16Z</time>
      </trkpt>
      <trkpt lat="48.77243" lon="-0.58033">
        <ele>195.8</ele>
        <time>2020-09-06T07:44:17Z</time>
      </trkpt>
      <trkpt lat="48.77257" lon="-0.58038">
        <ele>194.4</ele>
        <time>2020-09-06T07:44:20Z</time>
      </trkpt>
      <trkpt lat="48.77261" lon="-0.58043">
        <ele>194</ele>
        <time>2020-09-06T07:44:21Z</time>
      </trkpt>
      <trkpt lat="48.7727" lon="-0.58052">
        <ele>193.2</ele>
        <time>2020-09-06T07:44:23Z</time>
      </trkpt>
      <trkpt lat="48.77275" lon="-0.58058">
        <ele>192.8</ele>
        <time>2020-09-06T07:44:24Z</time>
      </trkpt>
      <trkpt lat="48.7728" lon="-0.58061">
        <ele>192.4</ele>
        <time>2020-09-06T07:44:25Z</time>
      </trkpt>
      <trkpt lat="48.77285" lon="-0.58063">
        <ele>192</ele>
        <time>2020-09-06T07:44:26Z</time>
      </trkpt>
      <trkpt lat="48.77296" lon="-0.58064">
        <ele>190.8</ele>
        <time>2020-09-06T07:44:28Z</time>
      </trkpt>
      <trkpt lat="48.77301" lon="-0.58064">
        <ele>190.4</ele>
        <time>2020-09-06T07:44:29Z</time>
      </trkpt>
      <trkpt lat="48.77306" lon="-0.58064">
        <ele>190</ele>
        <time>2020-09-06T07:44:30Z</time>
      </trkpt>
      <trkpt lat="48.7731" lon="-0.58065">
        <ele>189.6</ele>
        <time>2020-09-06T07:44:31Z</time>
      </trkpt>
      <trkpt lat="48.77326" lon="-0.58067">
        <ele>188.4</ele>
        <time>2020-09-06T07:44:35Z</time>
      </trkpt>
      <trkpt lat="48.77329" lon="-0.58068">
        <ele>188.4</ele>
        <time>2020-09-06T07:44:36Z</time>
      </trkpt>
      <trkpt lat="48.77355" lon="-0.58074">
        <ele>188.4</ele>
        <time>2020-09-06T07:44:44Z</time>
      </trkpt>
      <trkpt lat="48.77369" lon="-0.58075">
        <ele>189.6</ele>
        <time>2020-09-06T07:44:49Z</time>
      </trkpt>
      <trkpt lat="48.77371" lon="-0.58075">
        <ele>190</ele>
        <time>2020-09-06T07:44:50Z</time>
      </trkpt>
      <trkpt lat="48.77378" lon="-0.58069">
        <ele>191</ele>
        <time>2020-09-06T07:44:53Z</time>
      </trkpt>
      <trkpt lat="48.7738" lon="-0.58066">
        <ele>191.4</ele>
        <time>2020-09-06T07:44:54Z</time>
      </trkpt>
      <trkpt lat="48.77382" lon="-0.58063">
        <ele>192.2</ele>
        <time>2020-09-06T07:44:55Z</time>
      </trkpt>
      <trkpt lat="48.77386" lon="-0.58057">
        <ele>193.4</ele>
        <time>2020-09-06T07:44:57Z</time>
      </trkpt>
      <trkpt lat="48.77389" lon="-0.5805">
        <ele>194.8</ele>
        <time>2020-09-06T07:44:59Z</time>
      </trkpt>
      <trkpt lat="48.77392" lon="-0.58042">
        <ele>195.6</ele>
        <time>2020-09-06T07:45:01Z</time>
      </trkpt>
      <trkpt lat="48.77394" lon="-0.58039">
        <ele>196</ele>
        <time>2020-09-06T07:45:02Z</time>
      </trkpt>
      <trkpt lat="48.77398" lon="-0.58027">
        <ele>196.8</ele>
        <time>2020-09-06T07:45:05Z</time>
      </trkpt>
      <trkpt lat="48.77397" lon="-0.58023">
        <ele>197.2</ele>
        <time>2020-09-06T07:45:06Z</time>
      </trkpt>
      <trkpt lat="48.7739" lon="-0.58018">
        <ele>197.8</ele>
        <time>2020-09-06T07:45:09Z</time>
      </trkpt>
      <trkpt lat="48.77385" lon="-0.58014">
        <ele>198.4</ele>
        <time>2020-09-06T07:45:11Z</time>
      </trkpt>
      <trkpt lat="48.77376" lon="-0.58005">
        <ele>199</ele>
        <time>2020-09-06T07:45:15Z</time>
      </trkpt>
      <trkpt lat="48.77373" lon="-0.57995">
        <ele>199.2</ele>
        <time>2020-09-06T07:45:18Z</time>
      </trkpt>
      <trkpt lat="48.77373" lon="-0.57986">
        <ele>199.4</ele>
        <time>2020-09-06T07:45:20Z</time>
      </trkpt>
      <trkpt lat="48.77375" lon="-0.57979">
        <ele>199.2</ele>
        <time>2020-09-06T07:45:22Z</time>
      </trkpt>
      <trkpt lat="48.77376" lon="-0.57969">
        <ele>199.4</ele>
        <time>2020-09-06T07:45:25Z</time>
      </trkpt>
      <trkpt lat="48.77383" lon="-0.57951">
        <ele>198.4</ele>
        <time>2020-09-06T07:45:31Z</time>
      </trkpt>
      <trkpt lat="48.77397" lon="-0.57933">
        <ele>199.2</ele>
        <time>2020-09-06T07:45:38Z</time>
      </trkpt>
      <trkpt lat="48.77412" lon="-0.57916">
        <ele>200.2</ele>
        <time>2020-09-06T07:45:45Z</time>
      </trkpt>
      <trkpt lat="48.77417" lon="-0.5791">
        <ele>200.6</ele>
        <time>2020-09-06T07:45:48Z</time>
      </trkpt>
      <trkpt lat="48.77424" lon="-0.57902">
        <ele>200.6</ele>
        <time>2020-09-06T07:45:51Z</time>
      </trkpt>
      <trkpt lat="48.7744" lon="-0.57885">
        <ele>201.4</ele>
        <time>2020-09-06T07:45:58Z</time>
      </trkpt>
      <trkpt lat="48.77443" lon="-0.57882">
        <ele>201.6</ele>
        <time>2020-09-06T07:45:59Z</time>
      </trkpt>
      <trkpt lat="48.77462" lon="-0.57861">
        <ele>202</ele>
        <time>2020-09-06T07:46:06Z</time>
      </trkpt>
      <trkpt lat="48.7748" lon="-0.57844">
        <ele>202</ele>
        <time>2020-09-06T07:46:13Z</time>
      </trkpt>
      <trkpt lat="48.77488" lon="-0.57828">
        <ele>202.2</ele>
        <time>2020-09-06T07:46:18Z</time>
      </trkpt>
      <trkpt lat="48.77487" lon="-0.57824">
        <ele>202.2</ele>
        <time>2020-09-06T07:46:19Z</time>
      </trkpt>
      <trkpt lat="48.77478" lon="-0.57813">
        <ele>201.8</ele>
        <time>2020-09-06T07:46:23Z</time>
      </trkpt>
      <trkpt lat="48.77475" lon="-0.5781">
        <ele>201.6</ele>
        <time>2020-09-06T07:46:24Z</time>
      </trkpt>
      <trkpt lat="48.7746" lon="-0.57794">
        <ele>200.8</ele>
        <time>2020-09-06T07:46:29Z</time>
      </trkpt>
      <trkpt lat="48.77453" lon="-0.57784">
        <ele>200.6</ele>
        <time>2020-09-06T07:46:32Z</time>
      </trkpt>
      <trkpt lat="48.77444" lon="-0.57771">
        <ele>200.4</ele>
        <time>2020-09-06T07:46:36Z</time>
      </trkpt>
      <trkpt lat="48.77436" lon="-0.57756">
        <ele>199.6</ele>
        <time>2020-09-06T07:46:40Z</time>
      </trkpt>
      <trkpt lat="48.77427" lon="-0.57738">
        <ele>199.2</ele>
        <time>2020-09-06T07:46:45Z</time>
      </trkpt>
      <trkpt lat="48.77416" lon="-0.57709">
        <ele>199.4</ele>
        <time>2020-09-06T07:46:52Z</time>
      </trkpt>
      <trkpt lat="48.77406" lon="-0.5768">
        <ele>200</ele>
        <time>2020-09-06T07:46:59Z</time>
      </trkpt>
      <trkpt lat="48.774" lon="-0.57659">
        <ele>200.8</ele>
        <time>2020-09-06T07:47:04Z</time>
      </trkpt>
      <trkpt lat="48.77398" lon="-0.57647">
        <ele>201.2</ele>
        <time>2020-09-06T07:47:07Z</time>
      </trkpt>
      <trkpt lat="48.77394" lon="-0.57633">
        <ele>201.8</ele>
        <time>2020-09-06T07:47:11Z</time>
      </trkpt>
      <trkpt lat="48.7739" lon="-0.57617">
        <ele>203.2</ele>
        <time>2020-09-06T07:47:15Z</time>
      </trkpt>
      <trkpt lat="48.77385" lon="-0.57594">
        <ele>204.4</ele>
        <time>2020-09-06T07:47:21Z</time>
      </trkpt>
      <trkpt lat="48.77383" lon="-0.57589">
        <ele>204.8</ele>
        <time>2020-09-06T07:47:23Z</time>
      </trkpt>
      <trkpt lat="48.77376" lon="-0.57573">
        <ele>205.2</ele>
        <time>2020-09-06T07:47:28Z</time>
      </trkpt>
      <trkpt lat="48.77371" lon="-0.57548">
        <ele>205.4</ele>
        <time>2020-09-06T07:47:34Z</time>
      </trkpt>
      <trkpt lat="48.77368" lon="-0.57534">
        <ele>206</ele>
        <time>2020-09-06T07:47:37Z</time>
      </trkpt>
      <trkpt lat="48.77366" lon="-0.57515">
        <ele>206.4</ele>
        <time>2020-09-06T07:47:41Z</time>
      </trkpt>
      <trkpt lat="48.77363" lon="-0.57493">
        <ele>207</ele>
        <time>2020-09-06T07:47:46Z</time>
      </trkpt>
      <trkpt lat="48.77362" lon="-0.57479">
        <ele>207.6</ele>
        <time>2020-09-06T07:47:49Z</time>
      </trkpt>
      <trkpt lat="48.77358" lon="-0.57457">
        <ele>208.2</ele>
        <time>2020-09-06T07:47:54Z</time>
      </trkpt>
      <trkpt lat="48.77357" lon="-0.57449">
        <ele>208.6</ele>
        <time>2020-09-06T07:47:56Z</time>
      </trkpt>
      <trkpt lat="48.77354" lon="-0.57432">
        <ele>210</ele>
        <time>2020-09-06T07:48:00Z</time>
      </trkpt>
      <trkpt lat="48.77353" lon="-0.57421">
        <ele>210.4</ele>
        <time>2020-09-06T07:48:03Z</time>
      </trkpt>
      <trkpt lat="48.77348" lon="-0.57405">
        <ele>211.2</ele>
        <time>2020-09-06T07:48:07Z</time>
      </trkpt>
      <trkpt lat="48.77346" lon="-0.57397">
        <ele>211.4</ele>
        <time>2020-09-06T07:48:09Z</time>
      </trkpt>
      <trkpt lat="48.7734" lon="-0.57385">
        <ele>212.2</ele>
        <time>2020-09-06T07:48:12Z</time>
      </trkpt>
      <trkpt lat="48.77331" lon="-0.57362">
        <ele>213.2</ele>
        <time>2020-09-06T07:48:18Z</time>
      </trkpt>
      <trkpt lat="48.77318" lon="-0.57327">
        <ele>213.4</ele>
        <time>2020-09-06T07:48:27Z</time>
      </trkpt>
      <trkpt lat="48.77303" lon="-0.57294">
        <ele>213</ele>
        <time>2020-09-06T07:48:36Z</time>
      </trkpt>
      <trkpt lat="48.77287" lon="-0.57269">
        <ele>213</ele>
        <time>2020-09-06T07:48:44Z</time>
      </trkpt>
      <trkpt lat="48.77268" lon="-0.57243">
        <ele>212.6</ele>
        <time>2020-09-06T07:48:52Z</time>
      </trkpt>
      <trkpt lat="48.77241" lon="-0.57211">
        <ele>212.8</ele>
        <time>2020-09-06T07:49:03Z</time>
      </trkpt>
      <trkpt lat="48.77217" lon="-0.57186">
        <ele>214</ele>
        <time>2020-09-06T07:49:12Z</time>
      </trkpt>
      <trkpt lat="48.77197" lon="-0.57164">
        <ele>213.8</ele>
        <time>2020-09-06T07:49:20Z</time>
      </trkpt>
      <trkpt lat="48.77195" lon="-0.57146">
        <ele>214</ele>
        <time>2020-09-06T07:49:24Z</time>
      </trkpt>
      <trkpt lat="48.77202" lon="-0.57123">
        <ele>213.8</ele>
        <time>2020-09-06T07:49:29Z</time>
      </trkpt>
      <trkpt lat="48.77219" lon="-0.57091">
        <ele>213.8</ele>
        <time>2020-09-06T07:49:37Z</time>
      </trkpt>
      <trkpt lat="48.77227" lon="-0.57075">
        <ele>214.4</ele>
        <time>2020-09-06T07:49:41Z</time>
      </trkpt>
      <trkpt lat="48.77241" lon="-0.57054">
        <ele>214</ele>
        <time>2020-09-06T07:49:47Z</time>
      </trkpt>
      <trkpt lat="48.77252" lon="-0.57032">
        <ele>214.6</ele>
        <time>2020-09-06T07:49:53Z</time>
      </trkpt>
      <trkpt lat="48.77271" lon="-0.56996">
        <ele>215</ele>
        <time>2020-09-06T07:50:03Z</time>
      </trkpt>
      <trkpt lat="48.77294" lon="-0.56957">
        <ele>215.2</ele>
        <time>2020-09-06T07:50:13Z</time>
      </trkpt>
      <trkpt lat="48.77299" lon="-0.56949">
        <ele>215.4</ele>
        <time>2020-09-06T07:50:15Z</time>
      </trkpt>
      <trkpt lat="48.773" lon="-0.56938">
        <ele>215</ele>
        <time>2020-09-06T07:50:17Z</time>
      </trkpt>
      <trkpt lat="48.77299" lon="-0.56932">
        <ele>215</ele>
        <time>2020-09-06T07:50:18Z</time>
      </trkpt>
      <trkpt lat="48.77289" lon="-0.56923">
        <ele>214.8</ele>
        <time>2020-09-06T07:50:21Z</time>
      </trkpt>
      <trkpt lat="48.77278" lon="-0.5692">
        <ele>215.6</ele>
        <time>2020-09-06T07:50:24Z</time>
      </trkpt>
      <trkpt lat="48.77269" lon="-0.56916">
        <ele>216</ele>
        <time>2020-09-06T07:50:27Z</time>
      </trkpt>
      <trkpt lat="48.77253" lon="-0.56907">
        <ele>216.4</ele>
        <time>2020-09-06T07:50:32Z</time>
      </trkpt>
      <trkpt lat="48.77243" lon="-0.56904">
        <ele>216.6</ele>
        <time>2020-09-06T07:50:35Z</time>
      </trkpt>
      <trkpt lat="48.77224" lon="-0.56895">
        <ele>217.4</ele>
        <time>2020-09-06T07:50:41Z</time>
      </trkpt>
      <trkpt lat="48.77208" lon="-0.56887">
        <ele>217.8</ele>
        <time>2020-09-06T07:50:46Z</time>
      </trkpt>
      <trkpt lat="48.77184" lon="-0.56876">
        <ele>218</ele>
        <time>2020-09-06T07:50:54Z</time>
      </trkpt>
      <trkpt lat="48.77175" lon="-0.56873">
        <ele>218.6</ele>
        <time>2020-09-06T07:50:57Z</time>
      </trkpt>
      <trkpt lat="48.77167" lon="-0.56868">
        <ele>218.8</ele>
        <time>2020-09-06T07:51:00Z</time>
      </trkpt>
      <trkpt lat="48.7714" lon="-0.56852">
        <ele>219.4</ele>
        <time>2020-09-06T07:51:09Z</time>
      </trkpt>
      <trkpt lat="48.77137" lon="-0.5685">
        <ele>219.6</ele>
        <time>2020-09-06T07:51:10Z</time>
      </trkpt>
      <trkpt lat="48.77125" lon="-0.56845">
        <ele>219.8</ele>
        <time>2020-09-06T07:51:16Z</time>
      </trkpt>
      <trkpt lat="48.77119" lon="-0.56842">
        <ele>219.4</ele>
        <time>2020-09-06T07:51:22Z</time>
      </trkpt>
      <trkpt lat="48.77115" lon="-0.5684">
        <ele>219</ele>
        <time>2020-09-06T07:51:42Z</time>
      </trkpt>
      <trkpt lat="48.7711" lon="-0.56837">
        <ele>219</ele>
        <time>2020-09-06T07:51:44Z</time>
      </trkpt>
      <trkpt lat="48.77098" lon="-0.56825">
        <ele>218.6</ele>
        <time>2020-09-06T07:51:49Z</time>
      </trkpt>
      <trkpt lat="48.77099" lon="-0.56821">
        <ele>218.6</ele>
        <time>2020-09-06T07:51:50Z</time>
      </trkpt>
      <trkpt lat="48.771" lon="-0.5681">
        <ele>219</ele>
        <time>2020-09-06T07:51:53Z</time>
      </trkpt>
      <trkpt lat="48.771" lon="-0.56802">
        <ele>219.4</ele>
        <time>2020-09-06T07:51:55Z</time>
      </trkpt>
      <trkpt lat="48.771" lon="-0.56798">
        <ele>219.8</ele>
        <time>2020-09-06T07:51:56Z</time>
      </trkpt>
      <trkpt lat="48.77097" lon="-0.56778">
        <ele>220.8</ele>
        <time>2020-09-06T07:52:01Z</time>
      </trkpt>
      <trkpt lat="48.77096" lon="-0.56769">
        <ele>221.2</ele>
        <time>2020-09-06T07:52:03Z</time>
      </trkpt>
      <trkpt lat="48.77096" lon="-0.56761">
        <ele>221.8</ele>
        <time>2020-09-06T07:52:05Z</time>
      </trkpt>
      <trkpt lat="48.77098" lon="-0.56741">
        <ele>222.4</ele>
        <time>2020-09-06T07:52:10Z</time>
      </trkpt>
      <trkpt lat="48.771" lon="-0.56733">
        <ele>222.8</ele>
        <time>2020-09-06T07:52:12Z</time>
      </trkpt>
      <trkpt lat="48.77104" lon="-0.56707">
        <ele>223.8</ele>
        <time>2020-09-06T07:52:18Z</time>
      </trkpt>
      <trkpt lat="48.77106" lon="-0.56699">
        <ele>223.8</ele>
        <time>2020-09-06T07:52:20Z</time>
      </trkpt>
      <trkpt lat="48.77108" lon="-0.56679">
        <ele>224</ele>
        <time>2020-09-06T07:52:25Z</time>
      </trkpt>
      <trkpt lat="48.77112" lon="-0.56662">
        <ele>225</ele>
        <time>2020-09-06T07:52:29Z</time>
      </trkpt>
      <trkpt lat="48.77115" lon="-0.56638">
        <ele>225.4</ele>
        <time>2020-09-06T07:52:34Z</time>
      </trkpt>
      <trkpt lat="48.77116" lon="-0.56624">
        <ele>226</ele>
        <time>2020-09-06T07:52:37Z</time>
      </trkpt>
      <trkpt lat="48.77118" lon="-0.5661">
        <ele>226.8</ele>
        <time>2020-09-06T07:52:41Z</time>
      </trkpt>
      <trkpt lat="48.77119" lon="-0.56596">
        <ele>227</ele>
        <time>2020-09-06T07:52:45Z</time>
      </trkpt>
      <trkpt lat="48.77119" lon="-0.56584">
        <ele>227.6</ele>
        <time>2020-09-06T07:52:48Z</time>
      </trkpt>
      <trkpt lat="48.77119" lon="-0.56576">
        <ele>228.2</ele>
        <time>2020-09-06T07:52:50Z</time>
      </trkpt>
      <trkpt lat="48.77119" lon="-0.56554">
        <ele>229.2</ele>
        <time>2020-09-06T07:52:56Z</time>
      </trkpt>
      <trkpt lat="48.77118" lon="-0.5655">
        <ele>229.6</ele>
        <time>2020-09-06T07:52:57Z</time>
      </trkpt>
      <trkpt lat="48.77117" lon="-0.56542">
        <ele>230.4</ele>
        <time>2020-09-06T07:52:59Z</time>
      </trkpt>
      <trkpt lat="48.77115" lon="-0.56526">
        <ele>231.4</ele>
        <time>2020-09-06T07:53:03Z</time>
      </trkpt>
      <trkpt lat="48.77116" lon="-0.56514">
        <ele>231.8</ele>
        <time>2020-09-06T07:53:06Z</time>
      </trkpt>
      <trkpt lat="48.77114" lon="-0.56505">
        <ele>232</ele>
        <time>2020-09-06T07:53:09Z</time>
      </trkpt>
      <trkpt lat="48.77116" lon="-0.56487">
        <ele>232.8</ele>
        <time>2020-09-06T07:53:14Z</time>
      </trkpt>
      <trkpt lat="48.77116" lon="-0.56483">
        <ele>232.6</ele>
        <time>2020-09-06T07:53:15Z</time>
      </trkpt>
      <trkpt lat="48.77117" lon="-0.56456">
        <ele>233.2</ele>
        <time>2020-09-06T07:53:23Z</time>
      </trkpt>
      <trkpt lat="48.77116" lon="-0.56427">
        <ele>232.8</ele>
        <time>2020-09-06T07:53:31Z</time>
      </trkpt>
      <trkpt lat="48.77117" lon="-0.56402">
        <ele>233</ele>
        <time>2020-09-06T07:53:37Z</time>
      </trkpt>
      <trkpt lat="48.77115" lon="-0.56371">
        <ele>233.8</ele>
        <time>2020-09-06T07:53:43Z</time>
      </trkpt>
      <trkpt lat="48.77114" lon="-0.56334">
        <ele>234.2</ele>
        <time>2020-09-06T07:53:49Z</time>
      </trkpt>
      <trkpt lat="48.77113" lon="-0.56326">
        <ele>234</ele>
        <time>2020-09-06T07:53:50Z</time>
      </trkpt>
      <trkpt lat="48.77113" lon="-0.56285">
        <ele>233.6</ele>
        <time>2020-09-06T07:53:55Z</time>
      </trkpt>
      <trkpt lat="48.77113" lon="-0.56277">
        <ele>233.6</ele>
        <time>2020-09-06T07:53:56Z</time>
      </trkpt>
      <trkpt lat="48.77112" lon="-0.56242">
        <ele>232.6</ele>
        <time>2020-09-06T07:54:00Z</time>
      </trkpt>
      <trkpt lat="48.77112" lon="-0.56204">
        <ele>231.4</ele>
        <time>2020-09-06T07:54:04Z</time>
      </trkpt>
      <trkpt lat="48.77114" lon="-0.56175">
        <ele>230.2</ele>
        <time>2020-09-06T07:54:07Z</time>
      </trkpt>
      <trkpt lat="48.77118" lon="-0.56155">
        <ele>229.6</ele>
        <time>2020-09-06T07:54:09Z</time>
      </trkpt>
      <trkpt lat="48.77125" lon="-0.56135">
        <ele>228.8</ele>
        <time>2020-09-06T07:54:11Z</time>
      </trkpt>
      <trkpt lat="48.77138" lon="-0.56105">
        <ele>227.8</ele>
        <time>2020-09-06T07:54:14Z</time>
      </trkpt>
      <trkpt lat="48.77152" lon="-0.56076">
        <ele>226.6</ele>
        <time>2020-09-06T07:54:17Z</time>
      </trkpt>
      <trkpt lat="48.77157" lon="-0.56065">
        <ele>226.2</ele>
        <time>2020-09-06T07:54:18Z</time>
      </trkpt>
      <trkpt lat="48.77162" lon="-0.56042">
        <ele>225.4</ele>
        <time>2020-09-06T07:54:20Z</time>
      </trkpt>
      <trkpt lat="48.77163" lon="-0.56008">
        <ele>224</ele>
        <time>2020-09-06T07:54:23Z</time>
      </trkpt>
      <trkpt lat="48.77162" lon="-0.55997">
        <ele>223.6</ele>
        <time>2020-09-06T07:54:24Z</time>
      </trkpt>
      <trkpt lat="48.77161" lon="-0.55988">
        <ele>223.2</ele>
        <time>2020-09-06T07:54:25Z</time>
      </trkpt>
      <trkpt lat="48.77161" lon="-0.55979">
        <ele>223</ele>
        <time>2020-09-06T07:54:26Z</time>
      </trkpt>
      <trkpt lat="48.77161" lon="-0.55966">
        <ele>222.2</ele>
        <time>2020-09-06T07:54:28Z</time>
      </trkpt>
      <trkpt lat="48.7716" lon="-0.5596">
        <ele>221.8</ele>
        <time>2020-09-06T07:54:29Z</time>
      </trkpt>
      <trkpt lat="48.7716" lon="-0.55942">
        <ele>220.4</ele>
        <time>2020-09-06T07:54:32Z</time>
      </trkpt>
      <trkpt lat="48.77157" lon="-0.55925">
        <ele>220</ele>
        <time>2020-09-06T07:54:35Z</time>
      </trkpt>
      <trkpt lat="48.77145" lon="-0.55912">
        <ele>219.6</ele>
        <time>2020-09-06T07:54:39Z</time>
      </trkpt>
      <trkpt lat="48.77121" lon="-0.55891">
        <ele>219.8</ele>
        <time>2020-09-06T07:54:47Z</time>
      </trkpt>
      <trkpt lat="48.77103" lon="-0.55872">
        <ele>221</ele>
        <time>2020-09-06T07:54:54Z</time>
      </trkpt>
      <trkpt lat="48.77094" lon="-0.55865">
        <ele>221.6</ele>
        <time>2020-09-06T07:54:57Z</time>
      </trkpt>
      <trkpt lat="48.77083" lon="-0.55854">
        <ele>222.4</ele>
        <time>2020-09-06T07:55:01Z</time>
      </trkpt>
      <trkpt lat="48.77081" lon="-0.55852">
        <ele>222.8</ele>
        <time>2020-09-06T07:55:02Z</time>
      </trkpt>
      <trkpt lat="48.77071" lon="-0.55843">
        <ele>224</ele>
        <time>2020-09-06T07:55:06Z</time>
      </trkpt>
      <trkpt lat="48.7706" lon="-0.55836">
        <ele>224.6</ele>
        <time>2020-09-06T07:55:10Z</time>
      </trkpt>
      <trkpt lat="48.77054" lon="-0.55833">
        <ele>225.2</ele>
        <time>2020-09-06T07:55:12Z</time>
      </trkpt>
      <trkpt lat="48.77039" lon="-0.55826">
        <ele>226.2</ele>
        <time>2020-09-06T07:55:17Z</time>
      </trkpt>
      <trkpt lat="48.7703" lon="-0.55821">
        <ele>226.6</ele>
        <time>2020-09-06T07:55:20Z</time>
      </trkpt>
      <trkpt lat="48.77016" lon="-0.55814">
        <ele>227.4</ele>
        <time>2020-09-06T07:55:25Z</time>
      </trkpt>
      <trkpt lat="48.77011" lon="-0.55812">
        <ele>227.6</ele>
        <time>2020-09-06T07:55:27Z</time>
      </trkpt>
      <trkpt lat="48.76986" lon="-0.55801">
        <ele>228.2</ele>
        <time>2020-09-06T07:55:36Z</time>
      </trkpt>
      <trkpt lat="48.76981" lon="-0.55799">
        <ele>228.6</ele>
        <time>2020-09-06T07:55:38Z</time>
      </trkpt>
      <trkpt lat="48.76963" lon="-0.55792">
        <ele>228.6</ele>
        <time>2020-09-06T07:55:45Z</time>
      </trkpt>
      <trkpt lat="48.76951" lon="-0.55793">
        <ele>229</ele>
        <time>2020-09-06T07:55:49Z</time>
      </trkpt>
      <trkpt lat="48.76948" lon="-0.55791">
        <ele>228.8</ele>
        <time>2020-09-06T07:55:50Z</time>
      </trkpt>
      <trkpt lat="48.76946" lon="-0.55776">
        <ele>229</ele>
        <time>2020-09-06T07:55:54Z</time>
      </trkpt>
      <trkpt lat="48.76957" lon="-0.55769">
        <ele>229.2</ele>
        <time>2020-09-06T07:55:58Z</time>
      </trkpt>
      <trkpt lat="48.76967" lon="-0.55753">
        <ele>229</ele>
        <time>2020-09-06T07:56:02Z</time>
      </trkpt>
      <trkpt lat="48.76969" lon="-0.55748">
        <ele>228.6</ele>
        <time>2020-09-06T07:56:03Z</time>
      </trkpt>
      <trkpt lat="48.76985" lon="-0.55712">
        <ele>227.6</ele>
        <time>2020-09-06T07:56:10Z</time>
      </trkpt>
      <trkpt lat="48.76988" lon="-0.55706">
        <ele>227.4</ele>
        <time>2020-09-06T07:56:11Z</time>
      </trkpt>
      <trkpt lat="48.76999" lon="-0.55679">
        <ele>226.4</ele>
        <time>2020-09-06T07:56:15Z</time>
      </trkpt>
      <trkpt lat="48.77002" lon="-0.55671">
        <ele>226.2</ele>
        <time>2020-09-06T07:56:16Z</time>
      </trkpt>
      <trkpt lat="48.77019" lon="-0.55631">
        <ele>225.2</ele>
        <time>2020-09-06T07:56:21Z</time>
      </trkpt>
      <trkpt lat="48.77023" lon="-0.55622">
        <ele>225.2</ele>
        <time>2020-09-06T07:56:22Z</time>
      </trkpt>
      <trkpt lat="48.77044" lon="-0.55571">
        <ele>224.4</ele>
        <time>2020-09-06T07:56:28Z</time>
      </trkpt>
      <trkpt lat="48.77053" lon="-0.55545">
        <ele>224.4</ele>
        <time>2020-09-06T07:56:32Z</time>
      </trkpt>
      <trkpt lat="48.77056" lon="-0.55544">
        <ele>224.6</ele>
        <time>2020-09-06T07:56:33Z</time>
      </trkpt>
      <trkpt lat="48.77066" lon="-0.55557">
        <ele>224.2</ele>
        <time>2020-09-06T07:56:36Z</time>
      </trkpt>
      <trkpt lat="48.77069" lon="-0.55572">
        <ele>223.8</ele>
        <time>2020-09-06T07:56:38Z</time>
      </trkpt>
      <trkpt lat="48.77075" lon="-0.55588">
        <ele>223.4</ele>
        <time>2020-09-06T07:56:40Z</time>
      </trkpt>
      <trkpt lat="48.77079" lon="-0.55596">
        <ele>223.2</ele>
        <time>2020-09-06T07:56:41Z</time>
      </trkpt>
      <trkpt lat="48.77099" lon="-0.55627">
        <ele>222.2</ele>
        <time>2020-09-06T07:56:45Z</time>
      </trkpt>
      <trkpt lat="48.77104" lon="-0.55632">
        <ele>222</ele>
        <time>2020-09-06T07:56:46Z</time>
      </trkpt>
      <trkpt lat="48.77123" lon="-0.55656">
        <ele>221.2</ele>
        <time>2020-09-06T07:56:50Z</time>
      </trkpt>
      <trkpt lat="48.77138" lon="-0.55672">
        <ele>221</ele>
        <time>2020-09-06T07:56:53Z</time>
      </trkpt>
      <trkpt lat="48.77147" lon="-0.55685">
        <ele>220.8</ele>
        <time>2020-09-06T07:56:55Z</time>
      </trkpt>
      <trkpt lat="48.7715" lon="-0.55693">
        <ele>220.8</ele>
        <time>2020-09-06T07:56:56Z</time>
      </trkpt>
      <trkpt lat="48.77156" lon="-0.55717">
        <ele>220.2</ele>
        <time>2020-09-06T07:56:59Z</time>
      </trkpt>
      <trkpt lat="48.7716" lon="-0.55722">
        <ele>220</ele>
        <time>2020-09-06T07:57:00Z</time>
      </trkpt>
      <trkpt lat="48.77164" lon="-0.55725">
        <ele>219.8</ele>
        <time>2020-09-06T07:57:01Z</time>
      </trkpt>
      <trkpt lat="48.77169" lon="-0.55726">
        <ele>219.6</ele>
        <time>2020-09-06T07:57:02Z</time>
      </trkpt>
      <trkpt lat="48.77178" lon="-0.55724">
        <ele>219.4</ele>
        <time>2020-09-06T07:57:04Z</time>
      </trkpt>
      <trkpt lat="48.77187" lon="-0.55723">
        <ele>219.6</ele>
        <time>2020-09-06T07:57:06Z</time>
      </trkpt>
      <trkpt lat="48.77212" lon="-0.55719">
        <ele>220.2</ele>
        <time>2020-09-06T07:57:13Z</time>
      </trkpt>
      <trkpt lat="48.77215" lon="-0.55716">
        <ele>220.4</ele>
        <time>2020-09-06T07:57:14Z</time>
      </trkpt>
      <trkpt lat="48.77216" lon="-0.55709">
        <ele>220.8</ele>
        <time>2020-09-06T07:57:16Z</time>
      </trkpt>
      <trkpt lat="48.77215" lon="-0.55701">
        <ele>221.6</ele>
        <time>2020-09-06T07:57:18Z</time>
      </trkpt>
      <trkpt lat="48.77215" lon="-0.55695">
        <ele>222</ele>
        <time>2020-09-06T07:57:19Z</time>
      </trkpt>
      <trkpt lat="48.77215" lon="-0.55685">
        <ele>222.6</ele>
        <time>2020-09-06T07:57:21Z</time>
      </trkpt>
      <trkpt lat="48.77214" lon="-0.5568">
        <ele>223</ele>
        <time>2020-09-06T07:57:22Z</time>
      </trkpt>
      <trkpt lat="48.77211" lon="-0.55668">
        <ele>224.4</ele>
        <time>2020-09-06T07:57:25Z</time>
      </trkpt>
      <trkpt lat="48.77209" lon="-0.55661">
        <ele>225.2</ele>
        <time>2020-09-06T07:57:27Z</time>
      </trkpt>
      <trkpt lat="48.77208" lon="-0.55657">
        <ele>225.8</ele>
        <time>2020-09-06T07:57:28Z</time>
      </trkpt>
      <trkpt lat="48.77204" lon="-0.55648">
        <ele>227</ele>
        <time>2020-09-06T07:57:31Z</time>
      </trkpt>
      <trkpt lat="48.77201" lon="-0.55639">
        <ele>228.2</ele>
        <time>2020-09-06T07:57:34Z</time>
      </trkpt>
      <trkpt lat="48.772" lon="-0.55635">
        <ele>228.6</ele>
        <time>2020-09-06T07:57:35Z</time>
      </trkpt>
      <trkpt lat="48.77198" lon="-0.55627">
        <ele>229.4</ele>
        <time>2020-09-06T07:57:37Z</time>
      </trkpt>
      <trkpt lat="48.77195" lon="-0.55616">
        <ele>230.6</ele>
        <time>2020-09-06T07:57:40Z</time>
      </trkpt>
      <trkpt lat="48.77191" lon="-0.55609">
        <ele>231.4</ele>
        <time>2020-09-06T07:57:42Z</time>
      </trkpt>
      <trkpt lat="48.7719" lon="-0.55605">
        <ele>232</ele>
        <time>2020-09-06T07:57:43Z</time>
      </trkpt>
      <trkpt lat="48.77188" lon="-0.55593">
        <ele>233.4</ele>
        <time>2020-09-06T07:57:46Z</time>
      </trkpt>
      <trkpt lat="48.77187" lon="-0.55585">
        <ele>234.2</ele>
        <time>2020-09-06T07:57:48Z</time>
      </trkpt>
      <trkpt lat="48.77186" lon="-0.55581">
        <ele>234.4</ele>
        <time>2020-09-06T07:57:49Z</time>
      </trkpt>
      <trkpt lat="48.77185" lon="-0.5557">
        <ele>235.6</ele>
        <time>2020-09-06T07:57:52Z</time>
      </trkpt>
      <trkpt lat="48.77184" lon="-0.55555">
        <ele>236.6</ele>
        <time>2020-09-06T07:57:56Z</time>
      </trkpt>
      <trkpt lat="48.77184" lon="-0.55551">
        <ele>236.8</ele>
        <time>2020-09-06T07:57:57Z</time>
      </trkpt>
      <trkpt lat="48.77183" lon="-0.55538">
        <ele>238.2</ele>
        <time>2020-09-06T07:58:01Z</time>
      </trkpt>
      <trkpt lat="48.77182" lon="-0.55529">
        <ele>239.2</ele>
        <time>2020-09-06T07:58:03Z</time>
      </trkpt>
      <trkpt lat="48.77182" lon="-0.55525">
        <ele>239.6</ele>
        <time>2020-09-06T07:58:04Z</time>
      </trkpt>
      <trkpt lat="48.77184" lon="-0.55511">
        <ele>240.4</ele>
        <time>2020-09-06T07:58:07Z</time>
      </trkpt>
      <trkpt lat="48.77184" lon="-0.55499">
        <ele>241.6</ele>
        <time>2020-09-06T07:58:10Z</time>
      </trkpt>
      <trkpt lat="48.77181" lon="-0.5549">
        <ele>243</ele>
        <time>2020-09-06T07:58:13Z</time>
      </trkpt>
      <trkpt lat="48.7718" lon="-0.55482">
        <ele>243.6</ele>
        <time>2020-09-06T07:58:16Z</time>
      </trkpt>
      <trkpt lat="48.77179" lon="-0.55477">
        <ele>244.2</ele>
        <time>2020-09-06T07:58:18Z</time>
      </trkpt>
      <trkpt lat="48.77178" lon="-0.55464">
        <ele>245.2</ele>
        <time>2020-09-06T07:58:22Z</time>
      </trkpt>
      <trkpt lat="48.77178" lon="-0.55453">
        <ele>246</ele>
        <time>2020-09-06T07:58:25Z</time>
      </trkpt>
      <trkpt lat="48.77179" lon="-0.55442">
        <ele>246.4</ele>
        <time>2020-09-06T07:58:28Z</time>
      </trkpt>
      <trkpt lat="48.77179" lon="-0.55431">
        <ele>246.4</ele>
        <time>2020-09-06T07:58:32Z</time>
      </trkpt>
      <trkpt lat="48.7718" lon="-0.55418">
        <ele>246.4</ele>
        <time>2020-09-06T07:58:37Z</time>
      </trkpt>
      <trkpt lat="48.7718" lon="-0.55409">
        <ele>247</ele>
        <time>2020-09-06T07:58:40Z</time>
      </trkpt>
      <trkpt lat="48.7718" lon="-0.55402">
        <ele>247.4</ele>
        <time>2020-09-06T07:58:42Z</time>
      </trkpt>
      <trkpt lat="48.77181" lon="-0.55383">
        <ele>248.4</ele>
        <time>2020-09-06T07:58:48Z</time>
      </trkpt>
      <trkpt lat="48.77179" lon="-0.55358">
        <ele>247</ele>
        <time>2020-09-06T07:58:55Z</time>
      </trkpt>
      <trkpt lat="48.77179" lon="-0.55349">
        <ele>247</ele>
        <time>2020-09-06T07:58:58Z</time>
      </trkpt>
      <trkpt lat="48.77178" lon="-0.55342">
        <ele>246.4</ele>
        <time>2020-09-06T07:59:00Z</time>
      </trkpt>
      <trkpt lat="48.77178" lon="-0.55329">
        <ele>245.2</ele>
        <time>2020-09-06T07:59:05Z</time>
      </trkpt>
      <trkpt lat="48.77178" lon="-0.55326">
        <ele>245.4</ele>
        <time>2020-09-06T07:59:06Z</time>
      </trkpt>
      <trkpt lat="48.77177" lon="-0.55317">
        <ele>245.8</ele>
        <time>2020-09-06T07:59:11Z</time>
      </trkpt>
      <trkpt lat="48.77176" lon="-0.55313">
        <ele>245.4</ele>
        <time>2020-09-06T07:59:13Z</time>
      </trkpt>
      <trkpt lat="48.77176" lon="-0.55298">
        <ele>246</ele>
        <time>2020-09-06T07:59:20Z</time>
      </trkpt>
      <trkpt lat="48.77177" lon="-0.55288">
        <ele>246</ele>
        <time>2020-09-06T07:59:24Z</time>
      </trkpt>
      <trkpt lat="48.77178" lon="-0.55281">
        <ele>246</ele>
        <time>2020-09-06T07:59:28Z</time>
      </trkpt>
      <trkpt lat="48.77181" lon="-0.5526">
        <ele>246</ele>
        <time>2020-09-06T07:59:36Z</time>
      </trkpt>
      <trkpt lat="48.77185" lon="-0.55245">
        <ele>246.4</ele>
        <time>2020-09-06T07:59:41Z</time>
      </trkpt>
      <trkpt lat="48.77185" lon="-0.55241">
        <ele>246.6</ele>
        <time>2020-09-06T07:59:42Z</time>
      </trkpt>
      <trkpt lat="48.7719" lon="-0.55212">
        <ele>246.6</ele>
        <time>2020-09-06T07:59:49Z</time>
      </trkpt>
      <trkpt lat="48.77195" lon="-0.55173">
        <ele>245.2</ele>
        <time>2020-09-06T07:59:57Z</time>
      </trkpt>
      <trkpt lat="48.77195" lon="-0.55169">
        <ele>244.8</ele>
        <time>2020-09-06T07:59:58Z</time>
      </trkpt>
      <trkpt lat="48.772" lon="-0.55133">
        <ele>244.2</ele>
        <time>2020-09-06T08:00:05Z</time>
      </trkpt>
      <trkpt lat="48.77202" lon="-0.5513">
        <ele>244.2</ele>
        <time>2020-09-06T08:00:06Z</time>
      </trkpt>
      <trkpt lat="48.77204" lon="-0.55129">
        <ele>244</ele>
        <time>2020-09-06T08:00:07Z</time>
      </trkpt>
      <trkpt lat="48.77215" lon="-0.55129">
        <ele>243.8</ele>
        <time>2020-09-06T08:00:12Z</time>
      </trkpt>
      <trkpt lat="48.77225" lon="-0.5513">
        <ele>245.2</ele>
        <time>2020-09-06T08:00:17Z</time>
      </trkpt>
      <trkpt lat="48.77228" lon="-0.55131">
        <ele>245.4</ele>
        <time>2020-09-06T08:00:19Z</time>
      </trkpt>
      <trkpt lat="48.77236" lon="-0.55134">
        <ele>246.4</ele>
        <time>2020-09-06T08:00:24Z</time>
      </trkpt>
      <trkpt lat="48.77241" lon="-0.55136">
        <ele>247.8</ele>
        <time>2020-09-06T08:00:27Z</time>
      </trkpt>
      <trkpt lat="48.7725" lon="-0.55139">
        <ele>249</ele>
        <time>2020-09-06T08:00:32Z</time>
      </trkpt>
      <trkpt lat="48.77254" lon="-0.5514">
        <ele>249.4</ele>
        <time>2020-09-06T08:00:34Z</time>
      </trkpt>
      <trkpt lat="48.77257" lon="-0.5514">
        <ele>250</ele>
        <time>2020-09-06T08:00:36Z</time>
      </trkpt>
      <trkpt lat="48.77268" lon="-0.55145">
        <ele>251.2</ele>
        <time>2020-09-06T08:00:42Z</time>
      </trkpt>
      <trkpt lat="48.77276" lon="-0.55146">
        <ele>252.2</ele>
        <time>2020-09-06T08:00:47Z</time>
      </trkpt>
      <trkpt lat="48.77282" lon="-0.55146">
        <ele>252.8</ele>
        <time>2020-09-06T08:00:50Z</time>
      </trkpt>
      <trkpt lat="48.77284" lon="-0.55146">
        <ele>253.2</ele>
        <time>2020-09-06T08:00:51Z</time>
      </trkpt>
      <trkpt lat="48.77294" lon="-0.55148">
        <ele>254.4</ele>
        <time>2020-09-06T08:00:57Z</time>
      </trkpt>
      <trkpt lat="48.77296" lon="-0.55149">
        <ele>254.6</ele>
        <time>2020-09-06T08:00:58Z</time>
      </trkpt>
      <trkpt lat="48.77312" lon="-0.55156">
        <ele>255.4</ele>
        <time>2020-09-06T08:01:07Z</time>
      </trkpt>
      <trkpt lat="48.77326" lon="-0.55157">
        <ele>256.4</ele>
        <time>2020-09-06T08:01:14Z</time>
      </trkpt>
      <trkpt lat="48.77329" lon="-0.55157">
        <ele>256.4</ele>
        <time>2020-09-06T08:01:16Z</time>
      </trkpt>
      <trkpt lat="48.7734" lon="-0.55161">
        <ele>256.8</ele>
        <time>2020-09-06T08:01:22Z</time>
      </trkpt>
      <trkpt lat="48.77347" lon="-0.55165">
        <ele>257.8</ele>
        <time>2020-09-06T08:01:27Z</time>
      </trkpt>
      <trkpt lat="48.77351" lon="-0.55166">
        <ele>258.2</ele>
        <time>2020-09-06T08:01:29Z</time>
      </trkpt>
      <trkpt lat="48.77352" lon="-0.55166">
        <ele>259</ele>
        <time>2020-09-06T08:01:30Z</time>
      </trkpt>
      <trkpt lat="48.77357" lon="-0.55167">
        <ele>260</ele>
        <time>2020-09-06T08:01:33Z</time>
      </trkpt>
      <trkpt lat="48.77365" lon="-0.55169">
        <ele>261.2</ele>
        <time>2020-09-06T08:01:37Z</time>
      </trkpt>
      <trkpt lat="48.77373" lon="-0.55172">
        <ele>262.2</ele>
        <time>2020-09-06T08:01:42Z</time>
      </trkpt>
      <trkpt lat="48.77379" lon="-0.55174">
        <ele>263.4</ele>
        <time>2020-09-06T08:01:45Z</time>
      </trkpt>
      <trkpt lat="48.77392" lon="-0.55181">
        <ele>264.6</ele>
        <time>2020-09-06T08:01:51Z</time>
      </trkpt>
      <trkpt lat="48.77394" lon="-0.55181">
        <ele>265</ele>
        <time>2020-09-06T08:01:52Z</time>
      </trkpt>
      <trkpt lat="48.77401" lon="-0.55186">
        <ele>265.6</ele>
        <time>2020-09-06T08:01:56Z</time>
      </trkpt>
      <trkpt lat="48.77404" lon="-0.55187">
        <ele>266</ele>
        <time>2020-09-06T08:01:58Z</time>
      </trkpt>
      <trkpt lat="48.77412" lon="-0.5519">
        <ele>266.8</ele>
        <time>2020-09-06T08:02:02Z</time>
      </trkpt>
      <trkpt lat="48.77419" lon="-0.55192">
        <ele>267.6</ele>
        <time>2020-09-06T08:02:05Z</time>
      </trkpt>
      <trkpt lat="48.7742" lon="-0.55192">
        <ele>267.8</ele>
        <time>2020-09-06T08:02:06Z</time>
      </trkpt>
      <trkpt lat="48.77429" lon="-0.55198">
        <ele>269</ele>
        <time>2020-09-06T08:02:11Z</time>
      </trkpt>
      <trkpt lat="48.77431" lon="-0.55199">
        <ele>269.2</ele>
        <time>2020-09-06T08:02:12Z</time>
      </trkpt>
      <trkpt lat="48.7744" lon="-0.55202">
        <ele>270.2</ele>
        <time>2020-09-06T08:02:16Z</time>
      </trkpt>
      <trkpt lat="48.77449" lon="-0.55204">
        <ele>270.6</ele>
        <time>2020-09-06T08:02:20Z</time>
      </trkpt>
      <trkpt lat="48.77468" lon="-0.55207">
        <ele>270.2</ele>
        <time>2020-09-06T08:02:28Z</time>
      </trkpt>
      <trkpt lat="48.77482" lon="-0.55207">
        <ele>269.4</ele>
        <time>2020-09-06T08:02:34Z</time>
      </trkpt>
      <trkpt lat="48.77485" lon="-0.55207">
        <ele>269.2</ele>
        <time>2020-09-06T08:02:35Z</time>
      </trkpt>
      <trkpt lat="48.77501" lon="-0.55207">
        <ele>268</ele>
        <time>2020-09-06T08:02:42Z</time>
      </trkpt>
      <trkpt lat="48.77523" lon="-0.55205">
        <ele>267.6</ele>
        <time>2020-09-06T08:02:52Z</time>
      </trkpt>
      <trkpt lat="48.7754" lon="-0.55205">
        <ele>268</ele>
        <time>2020-09-06T08:03:00Z</time>
      </trkpt>
      <trkpt lat="48.77557" lon="-0.55205">
        <ele>268.2</ele>
        <time>2020-09-06T08:03:08Z</time>
      </trkpt>
      <trkpt lat="48.77571" lon="-0.55204">
        <ele>268.2</ele>
        <time>2020-09-06T08:03:14Z</time>
      </trkpt>
      <trkpt lat="48.77595" lon="-0.55201">
        <ele>268.4</ele>
        <time>2020-09-06T08:03:23Z</time>
      </trkpt>
      <trkpt lat="48.7761" lon="-0.55199">
        <ele>269</ele>
        <time>2020-09-06T08:03:29Z</time>
      </trkpt>
      <trkpt lat="48.77621" lon="-0.55197">
        <ele>269.6</ele>
        <time>2020-09-06T08:03:33Z</time>
      </trkpt>
      <trkpt lat="48.77644" lon="-0.55193">
        <ele>269.6</ele>
        <time>2020-09-06T08:03:42Z</time>
      </trkpt>
      <trkpt lat="48.77665" lon="-0.55189">
        <ele>269.4</ele>
        <time>2020-09-06T08:03:50Z</time>
      </trkpt>
      <trkpt lat="48.77685" lon="-0.55184">
        <ele>269</ele>
        <time>2020-09-06T08:03:58Z</time>
      </trkpt>
      <trkpt lat="48.77706" lon="-0.5518">
        <ele>268.6</ele>
        <time>2020-09-06T08:04:06Z</time>
      </trkpt>
      <trkpt lat="48.77726" lon="-0.55176">
        <ele>268.8</ele>
        <time>2020-09-06T08:04:14Z</time>
      </trkpt>
      <trkpt lat="48.7774" lon="-0.55177">
        <ele>269.4</ele>
        <time>2020-09-06T08:04:20Z</time>
      </trkpt>
      <trkpt lat="48.77754" lon="-0.55172">
        <ele>269.4</ele>
        <time>2020-09-06T08:04:25Z</time>
      </trkpt>
      <trkpt lat="48.77765" lon="-0.55169">
        <ele>270</ele>
        <time>2020-09-06T08:04:29Z</time>
      </trkpt>
      <trkpt lat="48.77773" lon="-0.55168">
        <ele>270.4</ele>
        <time>2020-09-06T08:04:32Z</time>
      </trkpt>
      <trkpt lat="48.77788" lon="-0.55164">
        <ele>270</ele>
        <time>2020-09-06T08:04:38Z</time>
      </trkpt>
      <trkpt lat="48.77801" lon="-0.5516">
        <ele>270.4</ele>
        <time>2020-09-06T08:04:44Z</time>
      </trkpt>
      <trkpt lat="48.7782" lon="-0.55157">
        <ele>270.4</ele>
        <time>2020-09-06T08:04:52Z</time>
      </trkpt>
      <trkpt lat="48.77835" lon="-0.55156">
        <ele>270.2</ele>
        <time>2020-09-06T08:04:59Z</time>
      </trkpt>
      <trkpt lat="48.77844" lon="-0.55155">
        <ele>270.4</ele>
        <time>2020-09-06T08:05:03Z</time>
      </trkpt>
      <trkpt lat="48.77845" lon="-0.5515">
        <ele>270.4</ele>
        <time>2020-09-06T08:05:05Z</time>
      </trkpt>
      <trkpt lat="48.77842" lon="-0.55141">
        <ele>270.2</ele>
        <time>2020-09-06T08:05:08Z</time>
      </trkpt>
      <trkpt lat="48.7784" lon="-0.55139">
        <ele>270.4</ele>
        <time>2020-09-06T08:05:09Z</time>
      </trkpt>
      <trkpt lat="48.77826" lon="-0.55117">
        <ele>269.8</ele>
        <time>2020-09-06T08:05:16Z</time>
      </trkpt>
      <trkpt lat="48.77814" lon="-0.55101">
        <ele>269.2</ele>
        <time>2020-09-06T08:05:22Z</time>
      </trkpt>
      <trkpt lat="48.77797" lon="-0.55078">
        <ele>269.2</ele>
        <time>2020-09-06T08:05:29Z</time>
      </trkpt>
      <trkpt lat="48.77794" lon="-0.55076">
        <ele>269</ele>
        <time>2020-09-06T08:05:30Z</time>
      </trkpt>
      <trkpt lat="48.77777" lon="-0.5506">
        <ele>268</ele>
        <time>2020-09-06T08:05:36Z</time>
      </trkpt>
      <trkpt lat="48.77774" lon="-0.55057">
        <ele>268</ele>
        <time>2020-09-06T08:05:37Z</time>
      </trkpt>
      <trkpt lat="48.77757" lon="-0.55037">
        <ele>267.8</ele>
        <time>2020-09-06T08:05:43Z</time>
      </trkpt>
      <trkpt lat="48.77738" lon="-0.55018">
        <ele>267</ele>
        <time>2020-09-06T08:05:48Z</time>
      </trkpt>
      <trkpt lat="48.77735" lon="-0.55014">
        <ele>266.8</ele>
        <time>2020-09-06T08:05:49Z</time>
      </trkpt>
      <trkpt lat="48.77717" lon="-0.54987">
        <ele>266.6</ele>
        <time>2020-09-06T08:05:54Z</time>
      </trkpt>
      <trkpt lat="48.77699" lon="-0.5496">
        <ele>266.6</ele>
        <time>2020-09-06T08:06:00Z</time>
      </trkpt>
      <trkpt lat="48.77688" lon="-0.54948">
        <ele>266</ele>
        <time>2020-09-06T08:06:05Z</time>
      </trkpt>
      <trkpt lat="48.77678" lon="-0.54933">
        <ele>266</ele>
        <time>2020-09-06T08:06:12Z</time>
      </trkpt>
      <trkpt lat="48.77677" lon="-0.54931">
        <ele>265.8</ele>
        <time>2020-09-06T08:06:13Z</time>
      </trkpt>
      <trkpt lat="48.77668" lon="-0.54919">
        <ele>264.6</ele>
        <time>2020-09-06T08:06:17Z</time>
      </trkpt>
      <trkpt lat="48.77665" lon="-0.54916">
        <ele>264.4</ele>
        <time>2020-09-06T08:06:18Z</time>
      </trkpt>
      <trkpt lat="48.77651" lon="-0.54891">
        <ele>263.2</ele>
        <time>2020-09-06T08:06:22Z</time>
      </trkpt>
      <trkpt lat="48.77624" lon="-0.54845">
        <ele>262.2</ele>
        <time>2020-09-06T08:06:28Z</time>
      </trkpt>
      <trkpt lat="48.77619" lon="-0.54836">
        <ele>262</ele>
        <time>2020-09-06T08:06:29Z</time>
      </trkpt>
      <trkpt lat="48.77601" lon="-0.54804">
        <ele>261</ele>
        <time>2020-09-06T08:06:33Z</time>
      </trkpt>
      <trkpt lat="48.77597" lon="-0.54797">
        <ele>260.8</ele>
        <time>2020-09-06T08:06:34Z</time>
      </trkpt>
      <trkpt lat="48.77576" lon="-0.54753">
        <ele>260.4</ele>
        <time>2020-09-06T08:06:40Z</time>
      </trkpt>
      <trkpt lat="48.77554" lon="-0.54701">
        <ele>261.8</ele>
        <time>2020-09-06T08:06:47Z</time>
      </trkpt>
      <trkpt lat="48.77551" lon="-0.54695">
        <ele>261.8</ele>
        <time>2020-09-06T08:06:48Z</time>
      </trkpt>
      <trkpt lat="48.77543" lon="-0.54676">
        <ele>261.8</ele>
        <time>2020-09-06T08:06:51Z</time>
      </trkpt>
      <trkpt lat="48.77533" lon="-0.54652">
        <ele>262.4</ele>
        <time>2020-09-06T08:06:54Z</time>
      </trkpt>
      <trkpt lat="48.77523" lon="-0.54627">
        <ele>262.6</ele>
        <time>2020-09-06T08:06:57Z</time>
      </trkpt>
      <trkpt lat="48.77505" lon="-0.54572">
        <ele>262.6</ele>
        <time>2020-09-06T08:07:04Z</time>
      </trkpt>
      <trkpt lat="48.77496" lon="-0.54543">
        <ele>262.6</ele>
        <time>2020-09-06T08:07:08Z</time>
      </trkpt>
      <trkpt lat="48.77491" lon="-0.54531">
        <ele>262.8</ele>
        <time>2020-09-06T08:07:10Z</time>
      </trkpt>
      <trkpt lat="48.77489" lon="-0.54526">
        <ele>262.8</ele>
        <time>2020-09-06T08:07:11Z</time>
      </trkpt>
      <trkpt lat="48.77478" lon="-0.54511">
        <ele>263.4</ele>
        <time>2020-09-06T08:07:14Z</time>
      </trkpt>
      <trkpt lat="48.77475" lon="-0.54506">
        <ele>263.6</ele>
        <time>2020-09-06T08:07:15Z</time>
      </trkpt>
      <trkpt lat="48.77442" lon="-0.54471">
        <ele>262.4</ele>
        <time>2020-09-06T08:07:23Z</time>
      </trkpt>
      <trkpt lat="48.7742" lon="-0.54446">
        <ele>262.2</ele>
        <time>2020-09-06T08:07:29Z</time>
      </trkpt>
      <trkpt lat="48.77416" lon="-0.54442">
        <ele>262</ele>
        <time>2020-09-06T08:07:30Z</time>
      </trkpt>
      <trkpt lat="48.77405" lon="-0.5443">
        <ele>261.2</ele>
        <time>2020-09-06T08:07:33Z</time>
      </trkpt>
      <trkpt lat="48.77385" lon="-0.54411">
        <ele>260.2</ele>
        <time>2020-09-06T08:07:38Z</time>
      </trkpt>
      <trkpt lat="48.77381" lon="-0.54407">
        <ele>260</ele>
        <time>2020-09-06T08:07:39Z</time>
      </trkpt>
      <trkpt lat="48.77359" lon="-0.54391">
        <ele>258.8</ele>
        <time>2020-09-06T08:07:44Z</time>
      </trkpt>
      <trkpt lat="48.7735" lon="-0.54384">
        <ele>258.4</ele>
        <time>2020-09-06T08:07:46Z</time>
      </trkpt>
      <trkpt lat="48.77333" lon="-0.54372">
        <ele>257.8</ele>
        <time>2020-09-06T08:07:50Z</time>
      </trkpt>
      <trkpt lat="48.77326" lon="-0.54367">
        <ele>257.2</ele>
        <time>2020-09-06T08:07:52Z</time>
      </trkpt>
      <trkpt lat="48.77315" lon="-0.5436">
        <ele>256.6</ele>
        <time>2020-09-06T08:07:56Z</time>
      </trkpt>
      <trkpt lat="48.77313" lon="-0.54358">
        <ele>256.6</ele>
        <time>2020-09-06T08:07:57Z</time>
      </trkpt>
      <trkpt lat="48.77312" lon="-0.54351">
        <ele>256.2</ele>
        <time>2020-09-06T08:08:01Z</time>
      </trkpt>
      <trkpt lat="48.77313" lon="-0.54349">
        <ele>256</ele>
        <time>2020-09-06T08:08:03Z</time>
      </trkpt>
      <trkpt lat="48.77313" lon="-0.54347">
        <ele>255.8</ele>
        <time>2020-09-06T08:08:04Z</time>
      </trkpt>
      <trkpt lat="48.77313" lon="-0.54343">
        <ele>255.4</ele>
        <time>2020-09-06T08:08:06Z</time>
      </trkpt>
      <trkpt lat="48.77314" lon="-0.54335">
        <ele>255.4</ele>
        <time>2020-09-06T08:08:10Z</time>
      </trkpt>
      <trkpt lat="48.77315" lon="-0.54336">
        <ele>255.4</ele>
        <time>2020-09-06T08:08:12Z</time>
      </trkpt>
      <trkpt lat="48.77315" lon="-0.54337">
        <ele>255.4</ele>
        <time>2020-09-06T08:08:13Z</time>
      </trkpt>
      <trkpt lat="48.77313" lon="-0.54342">
        <ele>255.6</ele>
        <time>2020-09-06T08:08:16Z</time>
      </trkpt>
      <trkpt lat="48.77304" lon="-0.54352">
        <ele>255.6</ele>
        <time>2020-09-06T08:08:20Z</time>
      </trkpt>
      <trkpt lat="48.77296" lon="-0.54349">
        <ele>255.8</ele>
        <time>2020-09-06T08:08:23Z</time>
      </trkpt>
      <trkpt lat="48.77294" lon="-0.54347">
        <ele>255.6</ele>
        <time>2020-09-06T08:08:24Z</time>
      </trkpt>
      <trkpt lat="48.77272" lon="-0.54341">
        <ele>255.2</ele>
        <time>2020-09-06T08:08:31Z</time>
      </trkpt>
      <trkpt lat="48.77253" lon="-0.54341">
        <ele>256</ele>
        <time>2020-09-06T08:08:38Z</time>
      </trkpt>
      <trkpt lat="48.77247" lon="-0.54342">
        <ele>256.4</ele>
        <time>2020-09-06T08:08:40Z</time>
      </trkpt>
      <trkpt lat="48.77234" lon="-0.54344">
        <ele>257</ele>
        <time>2020-09-06T08:08:45Z</time>
      </trkpt>
      <trkpt lat="48.77227" lon="-0.54344">
        <ele>257.6</ele>
        <time>2020-09-06T08:08:48Z</time>
      </trkpt>
      <trkpt lat="48.77221" lon="-0.54343">
        <ele>257.8</ele>
        <time>2020-09-06T08:08:50Z</time>
      </trkpt>
      <trkpt lat="48.77209" lon="-0.54342">
        <ele>258.8</ele>
        <time>2020-09-06T08:08:54Z</time>
      </trkpt>
      <trkpt lat="48.77203" lon="-0.54342">
        <ele>258.8</ele>
        <time>2020-09-06T08:08:56Z</time>
      </trkpt>
      <trkpt lat="48.77183" lon="-0.5434">
        <ele>258.8</ele>
        <time>2020-09-06T08:09:04Z</time>
      </trkpt>
      <trkpt lat="48.77168" lon="-0.54336">
        <ele>259.2</ele>
        <time>2020-09-06T08:09:10Z</time>
      </trkpt>
      <trkpt lat="48.77156" lon="-0.54331">
        <ele>259.8</ele>
        <time>2020-09-06T08:09:15Z</time>
      </trkpt>
      <trkpt lat="48.77154" lon="-0.5433">
        <ele>259.8</ele>
        <time>2020-09-06T08:09:16Z</time>
      </trkpt>
      <trkpt lat="48.77141" lon="-0.54323">
        <ele>259.4</ele>
        <time>2020-09-06T08:09:22Z</time>
      </trkpt>
      <trkpt lat="48.77124" lon="-0.54311">
        <ele>259.8</ele>
        <time>2020-09-06T08:09:29Z</time>
      </trkpt>
      <trkpt lat="48.77103" lon="-0.54296">
        <ele>260.6</ele>
        <time>2020-09-06T08:09:36Z</time>
      </trkpt>
      <trkpt lat="48.77101" lon="-0.54294">
        <ele>261</ele>
        <time>2020-09-06T08:09:37Z</time>
      </trkpt>
      <trkpt lat="48.77085" lon="-0.54282">
        <ele>261.8</ele>
        <time>2020-09-06T08:09:43Z</time>
      </trkpt>
      <trkpt lat="48.7708" lon="-0.54279">
        <ele>262.2</ele>
        <time>2020-09-06T08:09:45Z</time>
      </trkpt>
      <trkpt lat="48.77071" lon="-0.5427">
        <ele>263</ele>
        <time>2020-09-06T08:09:49Z</time>
      </trkpt>
      <trkpt lat="48.77055" lon="-0.54259">
        <ele>262.6</ele>
        <time>2020-09-06T08:09:55Z</time>
      </trkpt>
      <trkpt lat="48.77043" lon="-0.5425">
        <ele>263.2</ele>
        <time>2020-09-06T08:10:00Z</time>
      </trkpt>
      <trkpt lat="48.77041" lon="-0.54248">
        <ele>263.4</ele>
        <time>2020-09-06T08:10:01Z</time>
      </trkpt>
      <trkpt lat="48.77024" lon="-0.54235">
        <ele>263.4</ele>
        <time>2020-09-06T08:10:08Z</time>
      </trkpt>
      <trkpt lat="48.76997" lon="-0.54218">
        <ele>262.8</ele>
        <time>2020-09-06T08:10:17Z</time>
      </trkpt>
      <trkpt lat="48.76986" lon="-0.5421">
        <ele>262</ele>
        <time>2020-09-06T08:10:20Z</time>
      </trkpt>
      <trkpt lat="48.76966" lon="-0.54196">
        <ele>261</ele>
        <time>2020-09-06T08:10:24Z</time>
      </trkpt>
      <trkpt lat="48.76961" lon="-0.54192">
        <ele>260.6</ele>
        <time>2020-09-06T08:10:25Z</time>
      </trkpt>
      <trkpt lat="48.7694" lon="-0.54179">
        <ele>260.2</ele>
        <time>2020-09-06T08:10:29Z</time>
      </trkpt>
      <trkpt lat="48.76911" lon="-0.54161">
        <ele>259.8</ele>
        <time>2020-09-06T08:10:35Z</time>
      </trkpt>
      <trkpt lat="48.76906" lon="-0.54158">
        <ele>259.4</ele>
        <time>2020-09-06T08:10:36Z</time>
      </trkpt>
      <trkpt lat="48.7689" lon="-0.54151">
        <ele>258.6</ele>
        <time>2020-09-06T08:10:39Z</time>
      </trkpt>
      <trkpt lat="48.76862" lon="-0.5414">
        <ele>257.6</ele>
        <time>2020-09-06T08:10:44Z</time>
      </trkpt>
      <trkpt lat="48.76837" lon="-0.54128">
        <ele>257</ele>
        <time>2020-09-06T08:10:49Z</time>
      </trkpt>
      <trkpt lat="48.76822" lon="-0.54122">
        <ele>257</ele>
        <time>2020-09-06T08:10:52Z</time>
      </trkpt>
      <trkpt lat="48.768" lon="-0.54111">
        <ele>256.8</ele>
        <time>2020-09-06T08:10:58Z</time>
      </trkpt>
      <trkpt lat="48.76786" lon="-0.54103">
        <ele>256.8</ele>
        <time>2020-09-06T08:11:03Z</time>
      </trkpt>
      <trkpt lat="48.76761" lon="-0.54092">
        <ele>257.2</ele>
        <time>2020-09-06T08:11:11Z</time>
      </trkpt>
      <trkpt lat="48.76741" lon="-0.54078">
        <ele>257.8</ele>
        <time>2020-09-06T08:11:18Z</time>
      </trkpt>
      <trkpt lat="48.76736" lon="-0.54076">
        <ele>258.2</ele>
        <time>2020-09-06T08:11:20Z</time>
      </trkpt>
      <trkpt lat="48.7673" lon="-0.54078">
        <ele>258.8</ele>
        <time>2020-09-06T08:11:22Z</time>
      </trkpt>
      <trkpt lat="48.76725" lon="-0.54081">
        <ele>259.4</ele>
        <time>2020-09-06T08:11:24Z</time>
      </trkpt>
      <trkpt lat="48.76722" lon="-0.54082">
        <ele>259.8</ele>
        <time>2020-09-06T08:11:25Z</time>
      </trkpt>
      <trkpt lat="48.76714" lon="-0.54087">
        <ele>260.8</ele>
        <time>2020-09-06T08:11:29Z</time>
      </trkpt>
      <trkpt lat="48.76701" lon="-0.54089">
        <ele>261.4</ele>
        <time>2020-09-06T08:11:34Z</time>
      </trkpt>
      <trkpt lat="48.76696" lon="-0.54094">
        <ele>262</ele>
        <time>2020-09-06T08:11:37Z</time>
      </trkpt>
      <trkpt lat="48.76694" lon="-0.54096">
        <ele>262.2</ele>
        <time>2020-09-06T08:11:38Z</time>
      </trkpt>
      <trkpt lat="48.76692" lon="-0.54098">
        <ele>262.4</ele>
        <time>2020-09-06T08:11:39Z</time>
      </trkpt>
      <trkpt lat="48.76674" lon="-0.54108">
        <ele>263.2</ele>
        <time>2020-09-06T08:11:47Z</time>
      </trkpt>
      <trkpt lat="48.76662" lon="-0.54113">
        <ele>264.2</ele>
        <time>2020-09-06T08:11:52Z</time>
      </trkpt>
      <trkpt lat="48.76656" lon="-0.54116">
        <ele>264.2</ele>
        <time>2020-09-06T08:11:55Z</time>
      </trkpt>
      <trkpt lat="48.76639" lon="-0.54123">
        <ele>265.4</ele>
        <time>2020-09-06T08:12:02Z</time>
      </trkpt>
      <trkpt lat="48.76637" lon="-0.54125">
        <ele>265.6</ele>
        <time>2020-09-06T08:12:03Z</time>
      </trkpt>
      <trkpt lat="48.76622" lon="-0.54135">
        <ele>266.6</ele>
        <time>2020-09-06T08:12:09Z</time>
      </trkpt>
      <trkpt lat="48.76619" lon="-0.54136">
        <ele>266.8</ele>
        <time>2020-09-06T08:12:10Z</time>
      </trkpt>
      <trkpt lat="48.76612" lon="-0.54141">
        <ele>267.6</ele>
        <time>2020-09-06T08:12:13Z</time>
      </trkpt>
      <trkpt lat="48.76598" lon="-0.54149">
        <ele>268</ele>
        <time>2020-09-06T08:12:19Z</time>
      </trkpt>
      <trkpt lat="48.7659" lon="-0.54155">
        <ele>268.6</ele>
        <time>2020-09-06T08:12:23Z</time>
      </trkpt>
      <trkpt lat="48.76582" lon="-0.54161">
        <ele>269.2</ele>
        <time>2020-09-06T08:12:27Z</time>
      </trkpt>
      <trkpt lat="48.76571" lon="-0.54167">
        <ele>269.8</ele>
        <time>2020-09-06T08:12:32Z</time>
      </trkpt>
      <trkpt lat="48.76567" lon="-0.54171">
        <ele>270.2</ele>
        <time>2020-09-06T08:12:34Z</time>
      </trkpt>
      <trkpt lat="48.76552" lon="-0.54182">
        <ele>270.6</ele>
        <time>2020-09-06T08:12:41Z</time>
      </trkpt>
      <trkpt lat="48.76548" lon="-0.54184">
        <ele>270.8</ele>
        <time>2020-09-06T08:12:43Z</time>
      </trkpt>
      <trkpt lat="48.76544" lon="-0.54182">
        <ele>271</ele>
        <time>2020-09-06T08:12:45Z</time>
      </trkpt>
      <trkpt lat="48.76542" lon="-0.5418">
        <ele>271.2</ele>
        <time>2020-09-06T08:12:46Z</time>
      </trkpt>
      <trkpt lat="48.76534" lon="-0.54162">
        <ele>272.6</ele>
        <time>2020-09-06T08:13:00Z</time>
      </trkpt>
      <trkpt lat="48.7653" lon="-0.54158">
        <ele>272.8</ele>
        <time>2020-09-06T08:13:04Z</time>
      </trkpt>
      <trkpt lat="48.76516" lon="-0.54142">
        <ele>273</ele>
        <time>2020-09-06T08:17:18Z</time>
      </trkpt>
      <trkpt lat="48.76508" lon="-0.5413">
        <ele>273.4</ele>
        <time>2020-09-06T08:17:24Z</time>
      </trkpt>
      <trkpt lat="48.76503" lon="-0.54125">
        <ele>273.6</ele>
        <time>2020-09-06T08:17:27Z</time>
      </trkpt>
      <trkpt lat="48.76498" lon="-0.54119">
        <ele>274</ele>
        <time>2020-09-06T08:17:30Z</time>
      </trkpt>
      <trkpt lat="48.76491" lon="-0.54112">
        <ele>274.8</ele>
        <time>2020-09-06T08:17:33Z</time>
      </trkpt>
      <trkpt lat="48.76484" lon="-0.54102">
        <ele>275.4</ele>
        <time>2020-09-06T08:17:36Z</time>
      </trkpt>
      <trkpt lat="48.7647" lon="-0.54087">
        <ele>275.6</ele>
        <time>2020-09-06T08:17:42Z</time>
      </trkpt>
      <trkpt lat="48.76467" lon="-0.54082">
        <ele>276</ele>
        <time>2020-09-06T08:17:44Z</time>
      </trkpt>
      <trkpt lat="48.76456" lon="-0.5407">
        <ele>276.8</ele>
        <time>2020-09-06T08:17:50Z</time>
      </trkpt>
      <trkpt lat="48.76453" lon="-0.54066">
        <ele>277</ele>
        <time>2020-09-06T08:17:52Z</time>
      </trkpt>
      <trkpt lat="48.76448" lon="-0.54059">
        <ele>277.8</ele>
        <time>2020-09-06T08:17:55Z</time>
      </trkpt>
      <trkpt lat="48.76425" lon="-0.54035">
        <ele>277.6</ele>
        <time>2020-09-06T08:18:04Z</time>
      </trkpt>
      <trkpt lat="48.76406" lon="-0.5401">
        <ele>278</ele>
        <time>2020-09-06T08:18:12Z</time>
      </trkpt>
      <trkpt lat="48.76385" lon="-0.53974">
        <ele>277.8</ele>
        <time>2020-09-06T08:18:21Z</time>
      </trkpt>
      <trkpt lat="48.76364" lon="-0.53934">
        <ele>276.6</ele>
        <time>2020-09-06T08:18:29Z</time>
      </trkpt>
      <trkpt lat="48.76358" lon="-0.53922">
        <ele>276</ele>
        <time>2020-09-06T08:18:31Z</time>
      </trkpt>
      <trkpt lat="48.76348" lon="-0.53903">
        <ele>275</ele>
        <time>2020-09-06T08:18:34Z</time>
      </trkpt>
      <trkpt lat="48.76342" lon="-0.53891">
        <ele>274.4</ele>
        <time>2020-09-06T08:18:36Z</time>
      </trkpt>
      <trkpt lat="48.76331" lon="-0.5387">
        <ele>273.8</ele>
        <time>2020-09-06T08:18:39Z</time>
      </trkpt>
      <trkpt lat="48.76324" lon="-0.53856">
        <ele>273</ele>
        <time>2020-09-06T08:18:41Z</time>
      </trkpt>
      <trkpt lat="48.7632" lon="-0.53849">
        <ele>272.6</ele>
        <time>2020-09-06T08:18:42Z</time>
      </trkpt>
      <trkpt lat="48.76307" lon="-0.53822">
        <ele>271.4</ele>
        <time>2020-09-06T08:18:46Z</time>
      </trkpt>
      <trkpt lat="48.763" lon="-0.53809">
        <ele>271</ele>
        <time>2020-09-06T08:18:48Z</time>
      </trkpt>
      <trkpt lat="48.76289" lon="-0.5379">
        <ele>270.2</ele>
        <time>2020-09-06T08:18:51Z</time>
      </trkpt>
      <trkpt lat="48.76275" lon="-0.53764">
        <ele>269.2</ele>
        <time>2020-09-06T08:18:55Z</time>
      </trkpt>
      <trkpt lat="48.7627" lon="-0.53752">
        <ele>268.8</ele>
        <time>2020-09-06T08:18:57Z</time>
      </trkpt>
      <trkpt lat="48.76269" lon="-0.53735">
        <ele>268.6</ele>
        <time>2020-09-06T08:19:01Z</time>
      </trkpt>
      <trkpt lat="48.76272" lon="-0.53727">
        <ele>268</ele>
        <time>2020-09-06T08:19:03Z</time>
      </trkpt>
      <trkpt lat="48.76277" lon="-0.53721">
        <ele>267.6</ele>
        <time>2020-09-06T08:19:05Z</time>
      </trkpt>
      <trkpt lat="48.76283" lon="-0.53708">
        <ele>267</ele>
        <time>2020-09-06T08:19:09Z</time>
      </trkpt>
      <trkpt lat="48.76288" lon="-0.53701">
        <ele>266.6</ele>
        <time>2020-09-06T08:19:11Z</time>
      </trkpt>
      <trkpt lat="48.76293" lon="-0.53692">
        <ele>265.8</ele>
        <time>2020-09-06T08:19:13Z</time>
      </trkpt>
      <trkpt lat="48.76303" lon="-0.53674">
        <ele>264.8</ele>
        <time>2020-09-06T08:19:17Z</time>
      </trkpt>
      <trkpt lat="48.76305" lon="-0.53669">
        <ele>264.6</ele>
        <time>2020-09-06T08:19:18Z</time>
      </trkpt>
      <trkpt lat="48.76318" lon="-0.53643">
        <ele>263.8</ele>
        <time>2020-09-06T08:19:23Z</time>
      </trkpt>
      <trkpt lat="48.7632" lon="-0.53637">
        <ele>263.6</ele>
        <time>2020-09-06T08:19:24Z</time>
      </trkpt>
      <trkpt lat="48.76323" lon="-0.53632">
        <ele>263.4</ele>
        <time>2020-09-06T08:19:25Z</time>
      </trkpt>
      <trkpt lat="48.76344" lon="-0.53592">
        <ele>262.8</ele>
        <time>2020-09-06T08:19:32Z</time>
      </trkpt>
      <trkpt lat="48.76346" lon="-0.53586">
        <ele>262.8</ele>
        <time>2020-09-06T08:19:33Z</time>
      </trkpt>
      <trkpt lat="48.76349" lon="-0.5358">
        <ele>262.6</ele>
        <time>2020-09-06T08:19:34Z</time>
      </trkpt>
      <trkpt lat="48.76356" lon="-0.53564">
        <ele>261.2</ele>
        <time>2020-09-06T08:19:37Z</time>
      </trkpt>
      <trkpt lat="48.76368" lon="-0.53537">
        <ele>260.6</ele>
        <time>2020-09-06T08:19:42Z</time>
      </trkpt>
      <trkpt lat="48.76376" lon="-0.53522">
        <ele>260.2</ele>
        <time>2020-09-06T08:19:45Z</time>
      </trkpt>
      <trkpt lat="48.76388" lon="-0.53495">
        <ele>259</ele>
        <time>2020-09-06T08:19:50Z</time>
      </trkpt>
      <trkpt lat="48.76409" lon="-0.53445">
        <ele>258</ele>
        <time>2020-09-06T08:19:58Z</time>
      </trkpt>
      <trkpt lat="48.76429" lon="-0.53386">
        <ele>257</ele>
        <time>2020-09-06T08:20:07Z</time>
      </trkpt>
      <trkpt lat="48.76431" lon="-0.53379">
        <ele>256.8</ele>
        <time>2020-09-06T08:20:08Z</time>
      </trkpt>
      <trkpt lat="48.76449" lon="-0.5333">
        <ele>255.8</ele>
        <time>2020-09-06T08:20:16Z</time>
      </trkpt>
      <trkpt lat="48.76453" lon="-0.53318">
        <ele>255.8</ele>
        <time>2020-09-06T08:20:18Z</time>
      </trkpt>
      <trkpt lat="48.7648" lon="-0.53254">
        <ele>254.8</ele>
        <time>2020-09-06T08:20:29Z</time>
      </trkpt>
      <trkpt lat="48.76485" lon="-0.53242">
        <ele>254.6</ele>
        <time>2020-09-06T08:20:31Z</time>
      </trkpt>
      <trkpt lat="48.7649" lon="-0.53222">
        <ele>253.8</ele>
        <time>2020-09-06T08:20:34Z</time>
      </trkpt>
      <trkpt lat="48.76493" lon="-0.53208">
        <ele>253.6</ele>
        <time>2020-09-06T08:20:36Z</time>
      </trkpt>
      <trkpt lat="48.76501" lon="-0.5315">
        <ele>252.8</ele>
        <time>2020-09-06T08:20:44Z</time>
      </trkpt>
      <trkpt lat="48.76504" lon="-0.53094">
        <ele>252.6</ele>
        <time>2020-09-06T08:20:52Z</time>
      </trkpt>
      <trkpt lat="48.76504" lon="-0.53067">
        <ele>252.4</ele>
        <time>2020-09-06T08:20:56Z</time>
      </trkpt>
      <trkpt lat="48.76503" lon="-0.53032">
        <ele>252.4</ele>
        <time>2020-09-06T08:21:01Z</time>
      </trkpt>
      <trkpt lat="48.76502" lon="-0.52979">
        <ele>252.2</ele>
        <time>2020-09-06T08:21:09Z</time>
      </trkpt>
      <trkpt lat="48.76499" lon="-0.52921">
        <ele>252</ele>
        <time>2020-09-06T08:21:18Z</time>
      </trkpt>
      <trkpt lat="48.76489" lon="-0.52876">
        <ele>252.4</ele>
        <time>2020-09-06T08:21:26Z</time>
      </trkpt>
      <trkpt lat="48.76481" lon="-0.52832">
        <ele>253</ele>
        <time>2020-09-06T08:21:35Z</time>
      </trkpt>
      <trkpt lat="48.76473" lon="-0.52787">
        <ele>253.2</ele>
        <time>2020-09-06T08:21:44Z</time>
      </trkpt>
      <trkpt lat="48.76466" lon="-0.52749">
        <ele>253.4</ele>
        <time>2020-09-06T08:21:52Z</time>
      </trkpt>
      <trkpt lat="48.7646" lon="-0.52713">
        <ele>253.6</ele>
        <time>2020-09-06T08:21:59Z</time>
      </trkpt>
      <trkpt lat="48.76452" lon="-0.52664">
        <ele>253.8</ele>
        <time>2020-09-06T08:22:08Z</time>
      </trkpt>
      <trkpt lat="48.76443" lon="-0.52608">
        <ele>253</ele>
        <time>2020-09-06T08:22:18Z</time>
      </trkpt>
      <trkpt lat="48.7644" lon="-0.52591">
        <ele>252.4</ele>
        <time>2020-09-06T08:22:21Z</time>
      </trkpt>
      <trkpt lat="48.76434" lon="-0.52579">
        <ele>252.2</ele>
        <time>2020-09-06T08:22:25Z</time>
      </trkpt>
      <trkpt lat="48.76423" lon="-0.52581">
        <ele>252.2</ele>
        <time>2020-09-06T08:22:30Z</time>
      </trkpt>
      <trkpt lat="48.7642" lon="-0.52581">
        <ele>252</ele>
        <time>2020-09-06T08:22:31Z</time>
      </trkpt>
      <trkpt lat="48.76405" lon="-0.52578">
        <ele>251.2</ele>
        <time>2020-09-06T08:22:37Z</time>
      </trkpt>
      <trkpt lat="48.76403" lon="-0.52577">
        <ele>251</ele>
        <time>2020-09-06T08:22:38Z</time>
      </trkpt>
      <trkpt lat="48.76386" lon="-0.52568">
        <ele>250.8</ele>
        <time>2020-09-06T08:22:45Z</time>
      </trkpt>
      <trkpt lat="48.76379" lon="-0.52566">
        <ele>251</ele>
        <time>2020-09-06T08:22:49Z</time>
      </trkpt>
      <trkpt lat="48.76383" lon="-0.52568">
        <ele>251.2</ele>
        <time>2020-09-06T08:22:58Z</time>
      </trkpt>
      <trkpt lat="48.76387" lon="-0.52569">
        <ele>251.4</ele>
        <time>2020-09-06T08:23:00Z</time>
      </trkpt>
      <trkpt lat="48.764" lon="-0.52577">
        <ele>252</ele>
        <time>2020-09-06T08:23:07Z</time>
      </trkpt>
      <trkpt lat="48.76405" lon="-0.52579">
        <ele>252.2</ele>
        <time>2020-09-06T08:23:09Z</time>
      </trkpt>
      <trkpt lat="48.76421" lon="-0.52579">
        <ele>252.8</ele>
        <time>2020-09-06T08:23:15Z</time>
      </trkpt>
      <trkpt lat="48.76423" lon="-0.52576">
        <ele>253</ele>
        <time>2020-09-06T08:23:16Z</time>
      </trkpt>
      <trkpt lat="48.76426" lon="-0.52567">
        <ele>253</ele>
        <time>2020-09-06T08:23:18Z</time>
      </trkpt>
      <trkpt lat="48.76428" lon="-0.52558">
        <ele>253</ele>
        <time>2020-09-06T08:23:20Z</time>
      </trkpt>
      <trkpt lat="48.76427" lon="-0.52537">
        <ele>252.2</ele>
        <time>2020-09-06T08:23:24Z</time>
      </trkpt>
      <trkpt lat="48.7642" lon="-0.5249">
        <ele>251.6</ele>
        <time>2020-09-06T08:23:31Z</time>
      </trkpt>
      <trkpt lat="48.76416" lon="-0.5246">
        <ele>251</ele>
        <time>2020-09-06T08:23:35Z</time>
      </trkpt>
      <trkpt lat="48.76411" lon="-0.52428">
        <ele>250</ele>
        <time>2020-09-06T08:23:39Z</time>
      </trkpt>
      <trkpt lat="48.7641" lon="-0.5242">
        <ele>249.8</ele>
        <time>2020-09-06T08:23:40Z</time>
      </trkpt>
      <trkpt lat="48.76404" lon="-0.52387">
        <ele>249.6</ele>
        <time>2020-09-06T08:23:45Z</time>
      </trkpt>
      <trkpt lat="48.76394" lon="-0.52391">
        <ele>250</ele>
        <time>2020-09-06T08:23:48Z</time>
      </trkpt>
      <trkpt lat="48.7639" lon="-0.52393">
        <ele>250.2</ele>
        <time>2020-09-06T08:23:49Z</time>
      </trkpt>
      <trkpt lat="48.76362" lon="-0.52416">
        <ele>250.8</ele>
        <time>2020-09-06T08:23:57Z</time>
      </trkpt>
      <trkpt lat="48.76341" lon="-0.52432">
        <ele>250.8</ele>
        <time>2020-09-06T08:24:04Z</time>
      </trkpt>
      <trkpt lat="48.76331" lon="-0.52438">
        <ele>251</ele>
        <time>2020-09-06T08:24:07Z</time>
      </trkpt>
      <trkpt lat="48.7631" lon="-0.52452">
        <ele>251</ele>
        <time>2020-09-06T08:24:14Z</time>
      </trkpt>
      <trkpt lat="48.76284" lon="-0.52467">
        <ele>251.6</ele>
        <time>2020-09-06T08:24:22Z</time>
      </trkpt>
      <trkpt lat="48.76249" lon="-0.52484">
        <ele>251.6</ele>
        <time>2020-09-06T08:24:32Z</time>
      </trkpt>
      <trkpt lat="48.76229" lon="-0.52495">
        <ele>251.6</ele>
        <time>2020-09-06T08:24:39Z</time>
      </trkpt>
      <trkpt lat="48.76221" lon="-0.52501">
        <ele>252</ele>
        <time>2020-09-06T08:24:42Z</time>
      </trkpt>
      <trkpt lat="48.76205" lon="-0.5251">
        <ele>251.2</ele>
        <time>2020-09-06T08:24:47Z</time>
      </trkpt>
      <trkpt lat="48.76183" lon="-0.52524">
        <ele>251</ele>
        <time>2020-09-06T08:24:54Z</time>
      </trkpt>
      <trkpt lat="48.76162" lon="-0.52543">
        <ele>250.8</ele>
        <time>2020-09-06T08:25:01Z</time>
      </trkpt>
      <trkpt lat="48.76141" lon="-0.52563">
        <ele>250</ele>
        <time>2020-09-06T08:25:08Z</time>
      </trkpt>
      <trkpt lat="48.76135" lon="-0.52568">
        <ele>249.8</ele>
        <time>2020-09-06T08:25:10Z</time>
      </trkpt>
      <trkpt lat="48.76119" lon="-0.52584">
        <ele>249.4</ele>
        <time>2020-09-06T08:25:16Z</time>
      </trkpt>
      <trkpt lat="48.76102" lon="-0.52601">
        <ele>248.8</ele>
        <time>2020-09-06T08:25:22Z</time>
      </trkpt>
      <trkpt lat="48.761" lon="-0.52604">
        <ele>248.8</ele>
        <time>2020-09-06T08:25:23Z</time>
      </trkpt>
      <trkpt lat="48.76084" lon="-0.52621">
        <ele>247.6</ele>
        <time>2020-09-06T08:25:28Z</time>
      </trkpt>
      <trkpt lat="48.76079" lon="-0.52625">
        <ele>247.4</ele>
        <time>2020-09-06T08:25:29Z</time>
      </trkpt>
      <trkpt lat="48.7607" lon="-0.52635">
        <ele>246.6</ele>
        <time>2020-09-06T08:25:31Z</time>
      </trkpt>
      <trkpt lat="48.76055" lon="-0.5265">
        <ele>245.4</ele>
        <time>2020-09-06T08:25:34Z</time>
      </trkpt>
      <trkpt lat="48.76039" lon="-0.52667">
        <ele>244.2</ele>
        <time>2020-09-06T08:25:37Z</time>
      </trkpt>
      <trkpt lat="48.76024" lon="-0.52682">
        <ele>243.2</ele>
        <time>2020-09-06T08:25:40Z</time>
      </trkpt>
      <trkpt lat="48.76019" lon="-0.52687">
        <ele>243</ele>
        <time>2020-09-06T08:25:41Z</time>
      </trkpt>
      <trkpt lat="48.75999" lon="-0.52704">
        <ele>242.8</ele>
        <time>2020-09-06T08:25:46Z</time>
      </trkpt>
      <trkpt lat="48.75984" lon="-0.52728">
        <ele>244</ele>
        <time>2020-09-06T08:25:52Z</time>
      </trkpt>
      <trkpt lat="48.75982" lon="-0.52733">
        <ele>244.2</ele>
        <time>2020-09-06T08:25:53Z</time>
      </trkpt>
      <trkpt lat="48.75977" lon="-0.52755">
        <ele>245</ele>
        <time>2020-09-06T08:25:58Z</time>
      </trkpt>
      <trkpt lat="48.75976" lon="-0.52759">
        <ele>245.2</ele>
        <time>2020-09-06T08:25:59Z</time>
      </trkpt>
      <trkpt lat="48.75968" lon="-0.52769">
        <ele>246.2</ele>
        <time>2020-09-06T08:26:03Z</time>
      </trkpt>
      <trkpt lat="48.75966" lon="-0.52768">
        <ele>246.4</ele>
        <time>2020-09-06T08:26:04Z</time>
      </trkpt>
      <trkpt lat="48.75958" lon="-0.52764">
        <ele>247.2</ele>
        <time>2020-09-06T08:26:07Z</time>
      </trkpt>
      <trkpt lat="48.75954" lon="-0.5276">
        <ele>247.6</ele>
        <time>2020-09-06T08:26:09Z</time>
      </trkpt>
      <trkpt lat="48.75945" lon="-0.52753">
        <ele>247.8</ele>
        <time>2020-09-06T08:26:13Z</time>
      </trkpt>
      <trkpt lat="48.7593" lon="-0.5274">
        <ele>248.6</ele>
        <time>2020-09-06T08:26:19Z</time>
      </trkpt>
      <trkpt lat="48.75928" lon="-0.52738">
        <ele>248.4</ele>
        <time>2020-09-06T08:26:20Z</time>
      </trkpt>
      <trkpt lat="48.75909" lon="-0.52726">
        <ele>248.8</ele>
        <time>2020-09-06T08:26:27Z</time>
      </trkpt>
      <trkpt lat="48.75888" lon="-0.52712">
        <ele>248.6</ele>
        <time>2020-09-06T08:26:35Z</time>
      </trkpt>
      <trkpt lat="48.75866" lon="-0.527">
        <ele>248.8</ele>
        <time>2020-09-06T08:26:43Z</time>
      </trkpt>
      <trkpt lat="48.75844" lon="-0.52698">
        <ele>249.4</ele>
        <time>2020-09-06T08:26:51Z</time>
      </trkpt>
      <trkpt lat="48.75826" lon="-0.52699">
        <ele>249.6</ele>
        <time>2020-09-06T08:26:58Z</time>
      </trkpt>
      <trkpt lat="48.75824" lon="-0.52698">
        <ele>250</ele>
        <time>2020-09-06T08:26:59Z</time>
      </trkpt>
      <trkpt lat="48.75822" lon="-0.52697">
        <ele>250</ele>
        <time>2020-09-06T08:27:00Z</time>
      </trkpt>
      <trkpt lat="48.75819" lon="-0.52688">
        <ele>250.2</ele>
        <time>2020-09-06T08:27:03Z</time>
      </trkpt>
      <trkpt lat="48.75811" lon="-0.52689">
        <ele>250.2</ele>
        <time>2020-09-06T08:27:07Z</time>
      </trkpt>
      <trkpt lat="48.75792" lon="-0.527">
        <ele>250.6</ele>
        <time>2020-09-06T08:27:15Z</time>
      </trkpt>
      <trkpt lat="48.7579" lon="-0.52702">
        <ele>251</ele>
        <time>2020-09-06T08:27:17Z</time>
      </trkpt>
      <trkpt lat="48.75787" lon="-0.52704">
        <ele>250.8</ele>
        <time>2020-09-06T08:33:33Z</time>
      </trkpt>
      <trkpt lat="48.75791" lon="-0.52702">
        <ele>251</ele>
        <time>2020-09-06T08:33:35Z</time>
      </trkpt>
      <trkpt lat="48.75794" lon="-0.52701">
        <ele>251.2</ele>
        <time>2020-09-06T08:33:37Z</time>
      </trkpt>
      <trkpt lat="48.75805" lon="-0.52684">
        <ele>250.8</ele>
        <time>2020-09-06T08:33:42Z</time>
      </trkpt>
      <trkpt lat="48.75805" lon="-0.52676">
        <ele>250.6</ele>
        <time>2020-09-06T08:33:43Z</time>
      </trkpt>
      <trkpt lat="48.75802" lon="-0.52652">
        <ele>250.4</ele>
        <time>2020-09-06T08:33:46Z</time>
      </trkpt>
      <trkpt lat="48.758" lon="-0.52643">
        <ele>250.2</ele>
        <time>2020-09-06T08:33:47Z</time>
      </trkpt>
      <trkpt lat="48.7579" lon="-0.52612">
        <ele>249.6</ele>
        <time>2020-09-06T08:33:50Z</time>
      </trkpt>
      <trkpt lat="48.75786" lon="-0.52604">
        <ele>249.4</ele>
        <time>2020-09-06T08:33:51Z</time>
      </trkpt>
      <trkpt lat="48.75767" lon="-0.52572">
        <ele>249</ele>
        <time>2020-09-06T08:33:56Z</time>
      </trkpt>
      <trkpt lat="48.75751" lon="-0.52545">
        <ele>249.2</ele>
        <time>2020-09-06T08:34:02Z</time>
      </trkpt>
      <trkpt lat="48.75741" lon="-0.5253">
        <ele>250.2</ele>
        <time>2020-09-06T08:34:07Z</time>
      </trkpt>
      <trkpt lat="48.75736" lon="-0.52525">
        <ele>250.6</ele>
        <time>2020-09-06T08:34:09Z</time>
      </trkpt>
      <trkpt lat="48.75727" lon="-0.52514">
        <ele>251.8</ele>
        <time>2020-09-06T08:34:13Z</time>
      </trkpt>
      <trkpt lat="48.75719" lon="-0.52504">
        <ele>253</ele>
        <time>2020-09-06T08:34:17Z</time>
      </trkpt>
      <trkpt lat="48.75717" lon="-0.52501">
        <ele>253.4</ele>
        <time>2020-09-06T08:34:18Z</time>
      </trkpt>
      <trkpt lat="48.7571" lon="-0.52493">
        <ele>254.2</ele>
        <time>2020-09-06T08:34:21Z</time>
      </trkpt>
      <trkpt lat="48.75702" lon="-0.52483">
        <ele>255.4</ele>
        <time>2020-09-06T08:34:25Z</time>
      </trkpt>
      <trkpt lat="48.75695" lon="-0.52477">
        <ele>256.6</ele>
        <time>2020-09-06T08:34:29Z</time>
      </trkpt>
      <trkpt lat="48.75692" lon="-0.52475">
        <ele>256.8</ele>
        <time>2020-09-06T08:34:30Z</time>
      </trkpt>
      <trkpt lat="48.75687" lon="-0.5247">
        <ele>257.6</ele>
        <time>2020-09-06T08:34:33Z</time>
      </trkpt>
      <trkpt lat="48.75678" lon="-0.52463">
        <ele>258.8</ele>
        <time>2020-09-06T08:34:37Z</time>
      </trkpt>
      <trkpt lat="48.7567" lon="-0.52457">
        <ele>260</ele>
        <time>2020-09-06T08:34:41Z</time>
      </trkpt>
      <trkpt lat="48.75664" lon="-0.52451">
        <ele>260.6</ele>
        <time>2020-09-06T08:34:44Z</time>
      </trkpt>
      <trkpt lat="48.75663" lon="-0.52449">
        <ele>261</ele>
        <time>2020-09-06T08:34:45Z</time>
      </trkpt>
      <trkpt lat="48.75657" lon="-0.52443">
        <ele>262.2</ele>
        <time>2020-09-06T08:34:48Z</time>
      </trkpt>
      <trkpt lat="48.75654" lon="-0.5244">
        <ele>262.8</ele>
        <time>2020-09-06T08:34:50Z</time>
      </trkpt>
      <trkpt lat="48.7565" lon="-0.52437">
        <ele>263.2</ele>
        <time>2020-09-06T08:34:52Z</time>
      </trkpt>
      <trkpt lat="48.75642" lon="-0.5243">
        <ele>263.8</ele>
        <time>2020-09-06T08:34:57Z</time>
      </trkpt>
      <trkpt lat="48.75639" lon="-0.52427">
        <ele>264.2</ele>
        <time>2020-09-06T08:34:59Z</time>
      </trkpt>
      <trkpt lat="48.75633" lon="-0.52423">
        <ele>264.4</ele>
        <time>2020-09-06T08:35:03Z</time>
      </trkpt>
      <trkpt lat="48.75617" lon="-0.5241">
        <ele>265.2</ele>
        <time>2020-09-06T08:35:12Z</time>
      </trkpt>
      <trkpt lat="48.75604" lon="-0.52399">
        <ele>266.2</ele>
        <time>2020-09-06T08:35:19Z</time>
      </trkpt>
      <trkpt lat="48.75597" lon="-0.52393">
        <ele>267.4</ele>
        <time>2020-09-06T08:35:23Z</time>
      </trkpt>
      <trkpt lat="48.7559" lon="-0.52389">
        <ele>267.4</ele>
        <time>2020-09-06T08:35:26Z</time>
      </trkpt>
      <trkpt lat="48.75572" lon="-0.52379">
        <ele>268</ele>
        <time>2020-09-06T08:35:31Z</time>
      </trkpt>
      <trkpt lat="48.75547" lon="-0.52366">
        <ele>268.2</ele>
        <time>2020-09-06T08:35:36Z</time>
      </trkpt>
      <trkpt lat="48.75535" lon="-0.52359">
        <ele>268.4</ele>
        <time>2020-09-06T08:35:38Z</time>
      </trkpt>
      <trkpt lat="48.75511" lon="-0.52345">
        <ele>268.6</ele>
        <time>2020-09-06T08:35:42Z</time>
      </trkpt>
      <trkpt lat="48.75481" lon="-0.52321">
        <ele>268.6</ele>
        <time>2020-09-06T08:35:47Z</time>
      </trkpt>
      <trkpt lat="48.75475" lon="-0.52314">
        <ele>268.4</ele>
        <time>2020-09-06T08:35:48Z</time>
      </trkpt>
      <trkpt lat="48.75467" lon="-0.52297">
        <ele>268</ele>
        <time>2020-09-06T08:35:50Z</time>
      </trkpt>
      <trkpt lat="48.75455" lon="-0.52256">
        <ele>267.4</ele>
        <time>2020-09-06T08:35:54Z</time>
      </trkpt>
      <trkpt lat="48.75455" lon="-0.52247">
        <ele>267.2</ele>
        <time>2020-09-06T08:35:55Z</time>
      </trkpt>
      <trkpt lat="48.75455" lon="-0.52238">
        <ele>267</ele>
        <time>2020-09-06T08:35:56Z</time>
      </trkpt>
      <trkpt lat="48.75455" lon="-0.52222">
        <ele>266.4</ele>
        <time>2020-09-06T08:35:58Z</time>
      </trkpt>
      <trkpt lat="48.75455" lon="-0.52214">
        <ele>266.2</ele>
        <time>2020-09-06T08:35:59Z</time>
      </trkpt>
      <trkpt lat="48.75459" lon="-0.52189">
        <ele>266.4</ele>
        <time>2020-09-06T08:36:02Z</time>
      </trkpt>
      <trkpt lat="48.75463" lon="-0.52135">
        <ele>266.2</ele>
        <time>2020-09-06T08:36:08Z</time>
      </trkpt>
      <trkpt lat="48.75464" lon="-0.52127">
        <ele>266.2</ele>
        <time>2020-09-06T08:36:09Z</time>
      </trkpt>
      <trkpt lat="48.7546" lon="-0.52081">
        <ele>266</ele>
        <time>2020-09-06T08:36:15Z</time>
      </trkpt>
      <trkpt lat="48.75454" lon="-0.52041">
        <ele>265.6</ele>
        <time>2020-09-06T08:36:22Z</time>
      </trkpt>
      <trkpt lat="48.75444" lon="-0.52002">
        <ele>265.2</ele>
        <time>2020-09-06T08:36:29Z</time>
      </trkpt>
      <trkpt lat="48.75443" lon="-0.51996">
        <ele>265.2</ele>
        <time>2020-09-06T08:36:30Z</time>
      </trkpt>
      <trkpt lat="48.75434" lon="-0.51963">
        <ele>264.4</ele>
        <time>2020-09-06T08:36:36Z</time>
      </trkpt>
      <trkpt lat="48.75427" lon="-0.5194">
        <ele>264.2</ele>
        <time>2020-09-06T08:36:41Z</time>
      </trkpt>
      <trkpt lat="48.75424" lon="-0.51927">
        <ele>263.8</ele>
        <time>2020-09-06T08:36:44Z</time>
      </trkpt>
      <trkpt lat="48.75417" lon="-0.519">
        <ele>263.8</ele>
        <time>2020-09-06T08:36:51Z</time>
      </trkpt>
      <trkpt lat="48.7541" lon="-0.51869">
        <ele>263.4</ele>
        <time>2020-09-06T08:36:58Z</time>
      </trkpt>
      <trkpt lat="48.75402" lon="-0.51825">
        <ele>263</ele>
        <time>2020-09-06T08:37:07Z</time>
      </trkpt>
      <trkpt lat="48.75394" lon="-0.51791">
        <ele>262.6</ele>
        <time>2020-09-06T08:37:13Z</time>
      </trkpt>
      <trkpt lat="48.75389" lon="-0.5177">
        <ele>262</ele>
        <time>2020-09-06T08:37:16Z</time>
      </trkpt>
      <trkpt lat="48.75384" lon="-0.51758">
        <ele>262.2</ele>
        <time>2020-09-06T08:37:19Z</time>
      </trkpt>
      <trkpt lat="48.7538" lon="-0.51753">
        <ele>262.2</ele>
        <time>2020-09-06T08:37:21Z</time>
      </trkpt>
      <trkpt lat="48.75382" lon="-0.51749">
        <ele>262.4</ele>
        <time>2020-09-06T08:37:23Z</time>
      </trkpt>
      <trkpt lat="48.75383" lon="-0.51745">
        <ele>262.6</ele>
        <time>2020-09-06T08:37:37Z</time>
      </trkpt>
      <trkpt lat="48.75383" lon="-0.51743">
        <ele>262.6</ele>
        <time>2020-09-06T08:37:38Z</time>
      </trkpt>
      <trkpt lat="48.75387" lon="-0.51724">
        <ele>262.2</ele>
        <time>2020-09-06T08:37:43Z</time>
      </trkpt>
      <trkpt lat="48.75389" lon="-0.51719">
        <ele>262</ele>
        <time>2020-09-06T08:37:44Z</time>
      </trkpt>
      <trkpt lat="48.75399" lon="-0.51695">
        <ele>261.2</ele>
        <time>2020-09-06T08:37:49Z</time>
      </trkpt>
      <trkpt lat="48.75404" lon="-0.51685">
        <ele>261</ele>
        <time>2020-09-06T08:37:51Z</time>
      </trkpt>
      <trkpt lat="48.75414" lon="-0.51661">
        <ele>259.8</ele>
        <time>2020-09-06T08:37:55Z</time>
      </trkpt>
      <trkpt lat="48.75416" lon="-0.51655">
        <ele>259.6</ele>
        <time>2020-09-06T08:37:56Z</time>
      </trkpt>
      <trkpt lat="48.75422" lon="-0.51635">
        <ele>258.8</ele>
        <time>2020-09-06T08:37:59Z</time>
      </trkpt>
      <trkpt lat="48.75423" lon="-0.51628">
        <ele>258.6</ele>
        <time>2020-09-06T08:38:00Z</time>
      </trkpt>
      <trkpt lat="48.75424" lon="-0.51614">
        <ele>258.6</ele>
        <time>2020-09-06T08:38:02Z</time>
      </trkpt>
      <trkpt lat="48.75416" lon="-0.51579">
        <ele>258.6</ele>
        <time>2020-09-06T08:38:07Z</time>
      </trkpt>
      <trkpt lat="48.75402" lon="-0.51562">
        <ele>257.8</ele>
        <time>2020-09-06T08:38:11Z</time>
      </trkpt>
      <trkpt lat="48.75394" lon="-0.51556">
        <ele>257.8</ele>
        <time>2020-09-06T08:38:13Z</time>
      </trkpt>
      <trkpt lat="48.75371" lon="-0.51542">
        <ele>257.4</ele>
        <time>2020-09-06T08:38:18Z</time>
      </trkpt>
      <trkpt lat="48.75348" lon="-0.51528">
        <ele>256.6</ele>
        <time>2020-09-06T08:38:23Z</time>
      </trkpt>
      <trkpt lat="48.75339" lon="-0.5152">
        <ele>256.4</ele>
        <time>2020-09-06T08:38:25Z</time>
      </trkpt>
      <trkpt lat="48.7533" lon="-0.51509">
        <ele>256.2</ele>
        <time>2020-09-06T08:38:27Z</time>
      </trkpt>
      <trkpt lat="48.75321" lon="-0.5149">
        <ele>256</ele>
        <time>2020-09-06T08:38:30Z</time>
      </trkpt>
      <trkpt lat="48.75316" lon="-0.5147">
        <ele>255.6</ele>
        <time>2020-09-06T08:38:33Z</time>
      </trkpt>
      <trkpt lat="48.75314" lon="-0.51463">
        <ele>255.4</ele>
        <time>2020-09-06T08:38:34Z</time>
      </trkpt>
      <trkpt lat="48.75311" lon="-0.51448">
        <ele>255.4</ele>
        <time>2020-09-06T08:38:36Z</time>
      </trkpt>
      <trkpt lat="48.75305" lon="-0.51414">
        <ele>255.6</ele>
        <time>2020-09-06T08:38:41Z</time>
      </trkpt>
      <trkpt lat="48.75304" lon="-0.51408">
        <ele>255.6</ele>
        <time>2020-09-06T08:38:42Z</time>
      </trkpt>
      <trkpt lat="48.75296" lon="-0.51373">
        <ele>256.6</ele>
        <time>2020-09-06T08:38:48Z</time>
      </trkpt>
      <trkpt lat="48.75293" lon="-0.51362">
        <ele>257</ele>
        <time>2020-09-06T08:38:50Z</time>
      </trkpt>
      <trkpt lat="48.75288" lon="-0.51326">
        <ele>257.6</ele>
        <time>2020-09-06T08:38:57Z</time>
      </trkpt>
      <trkpt lat="48.75287" lon="-0.51321">
        <ele>257.6</ele>
        <time>2020-09-06T08:38:58Z</time>
      </trkpt>
      <trkpt lat="48.75288" lon="-0.51289">
        <ele>257.8</ele>
        <time>2020-09-06T08:39:04Z</time>
      </trkpt>
      <trkpt lat="48.75287" lon="-0.51261">
        <ele>258</ele>
        <time>2020-09-06T08:39:09Z</time>
      </trkpt>
      <trkpt lat="48.75284" lon="-0.51226">
        <ele>258.2</ele>
        <time>2020-09-06T08:39:16Z</time>
      </trkpt>
      <trkpt lat="48.75282" lon="-0.51163">
        <ele>258.6</ele>
        <time>2020-09-06T08:39:28Z</time>
      </trkpt>
      <trkpt lat="48.75281" lon="-0.51158">
        <ele>258.6</ele>
        <time>2020-09-06T08:39:29Z</time>
      </trkpt>
      <trkpt lat="48.75278" lon="-0.51129">
        <ele>259.6</ele>
        <time>2020-09-06T08:39:35Z</time>
      </trkpt>
      <trkpt lat="48.75276" lon="-0.51115">
        <ele>259.8</ele>
        <time>2020-09-06T08:39:38Z</time>
      </trkpt>
      <trkpt lat="48.7527" lon="-0.51085">
        <ele>260.2</ele>
        <time>2020-09-06T08:39:44Z</time>
      </trkpt>
      <trkpt lat="48.75264" lon="-0.51057">
        <ele>260.6</ele>
        <time>2020-09-06T08:39:50Z</time>
      </trkpt>
      <trkpt lat="48.75263" lon="-0.51053">
        <ele>260.8</ele>
        <time>2020-09-06T08:39:51Z</time>
      </trkpt>
      <trkpt lat="48.75254" lon="-0.51025">
        <ele>261.8</ele>
        <time>2020-09-06T08:39:57Z</time>
      </trkpt>
      <trkpt lat="48.75246" lon="-0.50995">
        <ele>261.2</ele>
        <time>2020-09-06T08:40:04Z</time>
      </trkpt>
      <trkpt lat="48.75239" lon="-0.50969">
        <ele>261</ele>
        <time>2020-09-06T08:40:10Z</time>
      </trkpt>
      <trkpt lat="48.7523" lon="-0.50934">
        <ele>260.6</ele>
        <time>2020-09-06T08:40:18Z</time>
      </trkpt>
      <trkpt lat="48.75219" lon="-0.50896">
        <ele>260.6</ele>
        <time>2020-09-06T08:40:26Z</time>
      </trkpt>
      <trkpt lat="48.75209" lon="-0.50861">
        <ele>261</ele>
        <time>2020-09-06T08:40:33Z</time>
      </trkpt>
      <trkpt lat="48.75201" lon="-0.50829">
        <ele>261.8</ele>
        <time>2020-09-06T08:40:39Z</time>
      </trkpt>
      <trkpt lat="48.752" lon="-0.50824">
        <ele>261.8</ele>
        <time>2020-09-06T08:40:40Z</time>
      </trkpt>
      <trkpt lat="48.75201" lon="-0.50796">
        <ele>262.8</ele>
        <time>2020-09-06T08:40:45Z</time>
      </trkpt>
      <trkpt lat="48.75202" lon="-0.50792">
        <ele>262.8</ele>
        <time>2020-09-06T08:40:46Z</time>
      </trkpt>
      <trkpt lat="48.75207" lon="-0.5076">
        <ele>263.6</ele>
        <time>2020-09-06T08:40:52Z</time>
      </trkpt>
      <trkpt lat="48.75217" lon="-0.5072">
        <ele>263</ele>
        <time>2020-09-06T08:40:59Z</time>
      </trkpt>
      <trkpt lat="48.75234" lon="-0.50689">
        <ele>261.6</ele>
        <time>2020-09-06T08:41:04Z</time>
      </trkpt>
      <trkpt lat="48.75238" lon="-0.50683">
        <ele>261.4</ele>
        <time>2020-09-06T08:41:05Z</time>
      </trkpt>
      <trkpt lat="48.75246" lon="-0.50672">
        <ele>260.4</ele>
        <time>2020-09-06T08:41:07Z</time>
      </trkpt>
      <trkpt lat="48.75266" lon="-0.50641">
        <ele>259.4</ele>
        <time>2020-09-06T08:41:12Z</time>
      </trkpt>
      <trkpt lat="48.75269" lon="-0.50633">
        <ele>259.4</ele>
        <time>2020-09-06T08:41:13Z</time>
      </trkpt>
      <trkpt lat="48.75283" lon="-0.50599">
        <ele>258.4</ele>
        <time>2020-09-06T08:41:17Z</time>
      </trkpt>
      <trkpt lat="48.75287" lon="-0.5059">
        <ele>258</ele>
        <time>2020-09-06T08:41:18Z</time>
      </trkpt>
      <trkpt lat="48.75301" lon="-0.50553">
        <ele>256.6</ele>
        <time>2020-09-06T08:41:22Z</time>
      </trkpt>
      <trkpt lat="48.75305" lon="-0.50544">
        <ele>256.4</ele>
        <time>2020-09-06T08:41:23Z</time>
      </trkpt>
      <trkpt lat="48.75319" lon="-0.50513">
        <ele>255.4</ele>
        <time>2020-09-06T08:41:26Z</time>
      </trkpt>
      <trkpt lat="48.75336" lon="-0.5048">
        <ele>254.4</ele>
        <time>2020-09-06T08:41:29Z</time>
      </trkpt>
      <trkpt lat="48.7536" lon="-0.50445">
        <ele>253.4</ele>
        <time>2020-09-06T08:41:33Z</time>
      </trkpt>
      <trkpt lat="48.75367" lon="-0.50435">
        <ele>253</ele>
        <time>2020-09-06T08:41:34Z</time>
      </trkpt>
      <trkpt lat="48.75386" lon="-0.504">
        <ele>252.2</ele>
        <time>2020-09-06T08:41:37Z</time>
      </trkpt>
      <trkpt lat="48.75391" lon="-0.50386">
        <ele>251.8</ele>
        <time>2020-09-06T08:41:38Z</time>
      </trkpt>
      <trkpt lat="48.75398" lon="-0.50358">
        <ele>251</ele>
        <time>2020-09-06T08:41:40Z</time>
      </trkpt>
      <trkpt lat="48.75403" lon="-0.50329">
        <ele>250.2</ele>
        <time>2020-09-06T08:41:42Z</time>
      </trkpt>
      <trkpt lat="48.75406" lon="-0.50304">
        <ele>249.6</ele>
        <time>2020-09-06T08:41:44Z</time>
      </trkpt>
      <trkpt lat="48.75408" lon="-0.50257">
        <ele>248.6</ele>
        <time>2020-09-06T08:41:48Z</time>
      </trkpt>
      <trkpt lat="48.75404" lon="-0.50211">
        <ele>247.6</ele>
        <time>2020-09-06T08:41:53Z</time>
      </trkpt>
      <trkpt lat="48.75402" lon="-0.50203">
        <ele>247.6</ele>
        <time>2020-09-06T08:41:54Z</time>
      </trkpt>
      <trkpt lat="48.75394" lon="-0.50175">
        <ele>247.2</ele>
        <time>2020-09-06T08:41:58Z</time>
      </trkpt>
      <trkpt lat="48.75384" lon="-0.5014">
        <ele>247</ele>
        <time>2020-09-06T08:42:04Z</time>
      </trkpt>
      <trkpt lat="48.75374" lon="-0.501">
        <ele>246.8</ele>
        <time>2020-09-06T08:42:10Z</time>
      </trkpt>
      <trkpt lat="48.7537" lon="-0.50087">
        <ele>246.4</ele>
        <time>2020-09-06T08:42:12Z</time>
      </trkpt>
      <trkpt lat="48.75354" lon="-0.50044">
        <ele>245.2</ele>
        <time>2020-09-06T08:42:19Z</time>
      </trkpt>
      <trkpt lat="48.75333" lon="-0.49988">
        <ele>245.6</ele>
        <time>2020-09-06T08:42:29Z</time>
      </trkpt>
      <trkpt lat="48.7533" lon="-0.49953">
        <ele>245.6</ele>
        <time>2020-09-06T08:42:35Z</time>
      </trkpt>
      <trkpt lat="48.75332" lon="-0.49946">
        <ele>245.6</ele>
        <time>2020-09-06T08:42:36Z</time>
      </trkpt>
      <trkpt lat="48.75342" lon="-0.49919">
        <ele>244.2</ele>
        <time>2020-09-06T08:42:40Z</time>
      </trkpt>
      <trkpt lat="48.75351" lon="-0.49894">
        <ele>242.8</ele>
        <time>2020-09-06T08:42:44Z</time>
      </trkpt>
      <trkpt lat="48.75355" lon="-0.49882">
        <ele>242.2</ele>
        <time>2020-09-06T08:42:46Z</time>
      </trkpt>
      <trkpt lat="48.7536" lon="-0.49871">
        <ele>241.4</ele>
        <time>2020-09-06T08:42:48Z</time>
      </trkpt>
      <trkpt lat="48.75364" lon="-0.49866">
        <ele>240.8</ele>
        <time>2020-09-06T08:42:49Z</time>
      </trkpt>
      <trkpt lat="48.75371" lon="-0.49857">
        <ele>240</ele>
        <time>2020-09-06T08:42:51Z</time>
      </trkpt>
      <trkpt lat="48.75378" lon="-0.49849">
        <ele>239</ele>
        <time>2020-09-06T08:42:53Z</time>
      </trkpt>
      <trkpt lat="48.75382" lon="-0.49845">
        <ele>238.8</ele>
        <time>2020-09-06T08:42:54Z</time>
      </trkpt>
      <trkpt lat="48.75404" lon="-0.49819">
        <ele>238.8</ele>
        <time>2020-09-06T08:43:01Z</time>
      </trkpt>
      <trkpt lat="48.75421" lon="-0.49801">
        <ele>239.4</ele>
        <time>2020-09-06T08:43:08Z</time>
      </trkpt>
      <trkpt lat="48.75426" lon="-0.49797">
        <ele>240</ele>
        <time>2020-09-06T08:43:10Z</time>
      </trkpt>
      <trkpt lat="48.75441" lon="-0.49779">
        <ele>240.4</ele>
        <time>2020-09-06T08:43:17Z</time>
      </trkpt>
      <trkpt lat="48.75445" lon="-0.49774">
        <ele>241</ele>
        <time>2020-09-06T08:43:19Z</time>
      </trkpt>
      <trkpt lat="48.75456" lon="-0.49761">
        <ele>242</ele>
        <time>2020-09-06T08:43:25Z</time>
      </trkpt>
      <trkpt lat="48.75458" lon="-0.49758">
        <ele>242.2</ele>
        <time>2020-09-06T08:43:26Z</time>
      </trkpt>
      <trkpt lat="48.75468" lon="-0.49745">
        <ele>243.4</ele>
        <time>2020-09-06T08:43:31Z</time>
      </trkpt>
      <trkpt lat="48.75471" lon="-0.49743">
        <ele>243.6</ele>
        <time>2020-09-06T08:43:32Z</time>
      </trkpt>
      <trkpt lat="48.7548" lon="-0.49731">
        <ele>244.6</ele>
        <time>2020-09-06T08:43:37Z</time>
      </trkpt>
      <trkpt lat="48.75482" lon="-0.49729">
        <ele>244.8</ele>
        <time>2020-09-06T08:43:38Z</time>
      </trkpt>
      <trkpt lat="48.75488" lon="-0.49722">
        <ele>246</ele>
        <time>2020-09-06T08:43:41Z</time>
      </trkpt>
      <trkpt lat="48.75492" lon="-0.49715">
        <ele>247</ele>
        <time>2020-09-06T08:43:44Z</time>
      </trkpt>
      <trkpt lat="48.75494" lon="-0.49713">
        <ele>247.4</ele>
        <time>2020-09-06T08:43:45Z</time>
      </trkpt>
      <trkpt lat="48.75497" lon="-0.49708">
        <ele>248.2</ele>
        <time>2020-09-06T08:43:47Z</time>
      </trkpt>
      <trkpt lat="48.75507" lon="-0.49699">
        <ele>249.4</ele>
        <time>2020-09-06T08:43:52Z</time>
      </trkpt>
      <trkpt lat="48.75509" lon="-0.49693">
        <ele>250.2</ele>
        <time>2020-09-06T08:43:55Z</time>
      </trkpt>
      <trkpt lat="48.7551" lon="-0.49692">
        <ele>250.6</ele>
        <time>2020-09-06T08:43:56Z</time>
      </trkpt>
      <trkpt lat="48.75509" lon="-0.49696">
        <ele>252.6</ele>
        <time>2020-09-06T08:44:03Z</time>
      </trkpt>
      <trkpt lat="48.75505" lon="-0.49695">
        <ele>253.2</ele>
        <time>2020-09-06T08:44:05Z</time>
      </trkpt>
      <trkpt lat="48.75503" lon="-0.49691">
        <ele>253.6</ele>
        <time>2020-09-06T08:44:07Z</time>
      </trkpt>
      <trkpt lat="48.75501" lon="-0.49687">
        <ele>253.8</ele>
        <time>2020-09-06T08:44:09Z</time>
      </trkpt>
      <trkpt lat="48.75502" lon="-0.49683">
        <ele>254.6</ele>
        <time>2020-09-06T08:44:11Z</time>
      </trkpt>
      <trkpt lat="48.75495" lon="-0.49671">
        <ele>257</ele>
        <time>2020-09-06T08:44:19Z</time>
      </trkpt>
      <trkpt lat="48.7549" lon="-0.49664">
        <ele>257.4</ele>
        <time>2020-09-06T08:44:22Z</time>
      </trkpt>
      <trkpt lat="48.75476" lon="-0.49641">
        <ele>257</ele>
        <time>2020-09-06T08:44:30Z</time>
      </trkpt>
      <trkpt lat="48.75461" lon="-0.49618">
        <ele>257</ele>
        <time>2020-09-06T08:44:38Z</time>
      </trkpt>
      <trkpt lat="48.75454" lon="-0.49606">
        <ele>258</ele>
        <time>2020-09-06T08:44:42Z</time>
      </trkpt>
      <trkpt lat="48.75448" lon="-0.49599">
        <ele>258</ele>
        <time>2020-09-06T08:44:45Z</time>
      </trkpt>
      <trkpt lat="48.75434" lon="-0.49583">
        <ele>259</ele>
        <time>2020-09-06T08:44:52Z</time>
      </trkpt>
      <trkpt lat="48.75418" lon="-0.49562">
        <ele>258.6</ele>
        <time>2020-09-06T08:45:00Z</time>
      </trkpt>
      <trkpt lat="48.75409" lon="-0.49553">
        <ele>259.2</ele>
        <time>2020-09-06T08:45:04Z</time>
      </trkpt>
      <trkpt lat="48.75398" lon="-0.49544">
        <ele>258.8</ele>
        <time>2020-09-06T08:45:07Z</time>
      </trkpt>
      <trkpt lat="48.75374" lon="-0.49524">
        <ele>260.4</ele>
        <time>2020-09-06T08:45:13Z</time>
      </trkpt>
      <trkpt lat="48.75371" lon="-0.4952">
        <ele>260.6</ele>
        <time>2020-09-06T08:45:14Z</time>
      </trkpt>
      <trkpt lat="48.75355" lon="-0.49499">
        <ele>260</ele>
        <time>2020-09-06T08:45:18Z</time>
      </trkpt>
      <trkpt lat="48.75349" lon="-0.49485">
        <ele>260.2</ele>
        <time>2020-09-06T08:45:20Z</time>
      </trkpt>
      <trkpt lat="48.75341" lon="-0.49464">
        <ele>261.6</ele>
        <time>2020-09-06T08:45:23Z</time>
      </trkpt>
      <trkpt lat="48.75338" lon="-0.49447">
        <ele>262.2</ele>
        <time>2020-09-06T08:45:25Z</time>
      </trkpt>
      <trkpt lat="48.75333" lon="-0.49414">
        <ele>262.6</ele>
        <time>2020-09-06T08:45:28Z</time>
      </trkpt>
      <trkpt lat="48.75333" lon="-0.49403">
        <ele>262.6</ele>
        <time>2020-09-06T08:45:29Z</time>
      </trkpt>
      <trkpt lat="48.75322" lon="-0.49339">
        <ele>262</ele>
        <time>2020-09-06T08:45:34Z</time>
      </trkpt>
      <trkpt lat="48.7531" lon="-0.49291">
        <ele>261.6</ele>
        <time>2020-09-06T08:45:39Z</time>
      </trkpt>
      <trkpt lat="48.75305" lon="-0.49265">
        <ele>260.2</ele>
        <time>2020-09-06T08:45:42Z</time>
      </trkpt>
      <trkpt lat="48.75303" lon="-0.49252">
        <ele>259.4</ele>
        <time>2020-09-06T08:45:44Z</time>
      </trkpt>
      <trkpt lat="48.75302" lon="-0.49244">
        <ele>259</ele>
        <time>2020-09-06T08:45:45Z</time>
      </trkpt>
      <trkpt lat="48.75296" lon="-0.49228">
        <ele>258.2</ele>
        <time>2020-09-06T08:45:49Z</time>
      </trkpt>
      <trkpt lat="48.75293" lon="-0.49215">
        <ele>258</ele>
        <time>2020-09-06T08:45:53Z</time>
      </trkpt>
      <trkpt lat="48.75295" lon="-0.49214">
        <ele>258</ele>
        <time>2020-09-06T08:45:54Z</time>
      </trkpt>
      <trkpt lat="48.75298" lon="-0.49213">
        <ele>257.8</ele>
        <time>2020-09-06T08:45:55Z</time>
      </trkpt>
      <trkpt lat="48.75301" lon="-0.49209">
        <ele>257.8</ele>
        <time>2020-09-06T08:45:57Z</time>
      </trkpt>
      <trkpt lat="48.75304" lon="-0.49201">
        <ele>257.8</ele>
        <time>2020-09-06T08:45:59Z</time>
      </trkpt>
      <trkpt lat="48.75312" lon="-0.49194">
        <ele>257.4</ele>
        <time>2020-09-06T08:46:02Z</time>
      </trkpt>
      <trkpt lat="48.75314" lon="-0.49189">
        <ele>257</ele>
        <time>2020-09-06T08:46:03Z</time>
      </trkpt>
      <trkpt lat="48.75316" lon="-0.49186">
        <ele>256.8</ele>
        <time>2020-09-06T08:46:04Z</time>
      </trkpt>
      <trkpt lat="48.75324" lon="-0.49177">
        <ele>256</ele>
        <time>2020-09-06T08:46:07Z</time>
      </trkpt>
      <trkpt lat="48.75326" lon="-0.49172">
        <ele>256</ele>
        <time>2020-09-06T08:46:08Z</time>
      </trkpt>
      <trkpt lat="48.75329" lon="-0.49172">
        <ele>256</ele>
        <time>2020-09-06T08:46:09Z</time>
      </trkpt>
      <trkpt lat="48.75333" lon="-0.49162">
        <ele>256</ele>
        <time>2020-09-06T08:46:11Z</time>
      </trkpt>
      <trkpt lat="48.75342" lon="-0.49154">
        <ele>256</ele>
        <time>2020-09-06T08:46:14Z</time>
      </trkpt>
      <trkpt lat="48.75354" lon="-0.49136">
        <ele>256.4</ele>
        <time>2020-09-06T08:46:19Z</time>
      </trkpt>
      <trkpt lat="48.75359" lon="-0.49133">
        <ele>256.4</ele>
        <time>2020-09-06T08:46:21Z</time>
      </trkpt>
      <trkpt lat="48.7536" lon="-0.49128">
        <ele>256.4</ele>
        <time>2020-09-06T08:46:22Z</time>
      </trkpt>
      <trkpt lat="48.75362" lon="-0.49125">
        <ele>256.4</ele>
        <time>2020-09-06T08:46:23Z</time>
      </trkpt>
      <trkpt lat="48.75378" lon="-0.49105">
        <ele>256.2</ele>
        <time>2020-09-06T08:46:30Z</time>
      </trkpt>
      <trkpt lat="48.75397" lon="-0.49075">
        <ele>256.4</ele>
        <time>2020-09-06T08:46:38Z</time>
      </trkpt>
      <trkpt lat="48.75408" lon="-0.49055">
        <ele>256.8</ele>
        <time>2020-09-06T08:46:43Z</time>
      </trkpt>
      <trkpt lat="48.75428" lon="-0.4903">
        <ele>257.6</ele>
        <time>2020-09-06T08:46:50Z</time>
      </trkpt>
      <trkpt lat="48.7545" lon="-0.49001">
        <ele>256.2</ele>
        <time>2020-09-06T08:46:56Z</time>
      </trkpt>
      <trkpt lat="48.75458" lon="-0.48991">
        <ele>255.4</ele>
        <time>2020-09-06T08:46:58Z</time>
      </trkpt>
      <trkpt lat="48.75473" lon="-0.48971">
        <ele>254.4</ele>
        <time>2020-09-06T08:47:02Z</time>
      </trkpt>
      <trkpt lat="48.75485" lon="-0.48949">
        <ele>254.6</ele>
        <time>2020-09-06T08:47:06Z</time>
      </trkpt>
      <trkpt lat="48.75491" lon="-0.48938">
        <ele>254.6</ele>
        <time>2020-09-06T08:47:08Z</time>
      </trkpt>
      <trkpt lat="48.75497" lon="-0.48926">
        <ele>254.2</ele>
        <time>2020-09-06T08:47:10Z</time>
      </trkpt>
      <trkpt lat="48.75511" lon="-0.48896">
        <ele>253.4</ele>
        <time>2020-09-06T08:47:15Z</time>
      </trkpt>
      <trkpt lat="48.75514" lon="-0.4889">
        <ele>253</ele>
        <time>2020-09-06T08:47:16Z</time>
      </trkpt>
      <trkpt lat="48.75523" lon="-0.48873">
        <ele>251.8</ele>
        <time>2020-09-06T08:47:19Z</time>
      </trkpt>
      <trkpt lat="48.75534" lon="-0.4885">
        <ele>250.8</ele>
        <time>2020-09-06T08:47:23Z</time>
      </trkpt>
      <trkpt lat="48.7554" lon="-0.48838">
        <ele>250.2</ele>
        <time>2020-09-06T08:47:25Z</time>
      </trkpt>
      <trkpt lat="48.7555" lon="-0.48821">
        <ele>249.8</ele>
        <time>2020-09-06T08:47:28Z</time>
      </trkpt>
      <trkpt lat="48.75565" lon="-0.48802">
        <ele>249.2</ele>
        <time>2020-09-06T08:47:32Z</time>
      </trkpt>
      <trkpt lat="48.75569" lon="-0.48799">
        <ele>249.2</ele>
        <time>2020-09-06T08:47:33Z</time>
      </trkpt>
      <trkpt lat="48.75585" lon="-0.48788">
        <ele>248.6</ele>
        <time>2020-09-06T08:47:37Z</time>
      </trkpt>
      <trkpt lat="48.75589" lon="-0.48784">
        <ele>248.6</ele>
        <time>2020-09-06T08:47:38Z</time>
      </trkpt>
      <trkpt lat="48.75601" lon="-0.48781">
        <ele>248.2</ele>
        <time>2020-09-06T08:47:41Z</time>
      </trkpt>
      <trkpt lat="48.75625" lon="-0.48783">
        <ele>247.6</ele>
        <time>2020-09-06T08:47:47Z</time>
      </trkpt>
      <trkpt lat="48.75629" lon="-0.48784">
        <ele>247.6</ele>
        <time>2020-09-06T08:47:48Z</time>
      </trkpt>
      <trkpt lat="48.75662" lon="-0.4879">
        <ele>246.6</ele>
        <time>2020-09-06T08:47:56Z</time>
      </trkpt>
      <trkpt lat="48.75684" lon="-0.48782">
        <ele>246.6</ele>
        <time>2020-09-06T08:48:02Z</time>
      </trkpt>
      <trkpt lat="48.75705" lon="-0.48766">
        <ele>246.8</ele>
        <time>2020-09-06T08:48:09Z</time>
      </trkpt>
      <trkpt lat="48.75717" lon="-0.4875">
        <ele>247.2</ele>
        <time>2020-09-06T08:48:15Z</time>
      </trkpt>
      <trkpt lat="48.75722" lon="-0.48744">
        <ele>246.6</ele>
        <time>2020-09-06T08:51:25Z</time>
      </trkpt>
      <trkpt lat="48.75723" lon="-0.48744">
        <ele>246.4</ele>
        <time>2020-09-06T08:51:26Z</time>
      </trkpt>
      <trkpt lat="48.75729" lon="-0.48739">
        <ele>245.6</ele>
        <time>2020-09-06T08:51:30Z</time>
      </trkpt>
      <trkpt lat="48.75734" lon="-0.48735">
        <ele>245.4</ele>
        <time>2020-09-06T08:51:33Z</time>
      </trkpt>
      <trkpt lat="48.75738" lon="-0.4873">
        <ele>244.6</ele>
        <time>2020-09-06T08:51:36Z</time>
      </trkpt>
      <trkpt lat="48.75739" lon="-0.48729">
        <ele>244.4</ele>
        <time>2020-09-06T08:51:37Z</time>
      </trkpt>
      <trkpt lat="48.75733" lon="-0.48737">
        <ele>244</ele>
        <time>2020-09-06T08:53:01Z</time>
      </trkpt>
      <trkpt lat="48.7573" lon="-0.48741">
        <ele>244.2</ele>
        <time>2020-09-06T08:53:03Z</time>
      </trkpt>
      <trkpt lat="48.75717" lon="-0.48749">
        <ele>243</ele>
        <time>2020-09-06T08:53:07Z</time>
      </trkpt>
      <trkpt lat="48.75714" lon="-0.48751">
        <ele>242.6</ele>
        <time>2020-09-06T08:53:08Z</time>
      </trkpt>
      <trkpt lat="48.7571" lon="-0.48755">
        <ele>241.8</ele>
        <time>2020-09-06T08:53:10Z</time>
      </trkpt>
      <trkpt lat="48.75704" lon="-0.4876">
        <ele>240.8</ele>
        <time>2020-09-06T08:53:12Z</time>
      </trkpt>
      <trkpt lat="48.75696" lon="-0.4877">
        <ele>240.6</ele>
        <time>2020-09-06T08:53:15Z</time>
      </trkpt>
      <trkpt lat="48.7569" lon="-0.48777">
        <ele>240.8</ele>
        <time>2020-09-06T08:53:17Z</time>
      </trkpt>
      <trkpt lat="48.75673" lon="-0.48788">
        <ele>241.6</ele>
        <time>2020-09-06T08:53:21Z</time>
      </trkpt>
      <trkpt lat="48.75668" lon="-0.48789">
        <ele>241.8</ele>
        <time>2020-09-06T08:53:22Z</time>
      </trkpt>
      <trkpt lat="48.75663" lon="-0.48789">
        <ele>242</ele>
        <time>2020-09-06T08:53:23Z</time>
      </trkpt>
      <trkpt lat="48.7564" lon="-0.48787">
        <ele>242.6</ele>
        <time>2020-09-06T08:53:28Z</time>
      </trkpt>
      <trkpt lat="48.75632" lon="-0.48785">
        <ele>242.8</ele>
        <time>2020-09-06T08:53:30Z</time>
      </trkpt>
      <trkpt lat="48.75608" lon="-0.48781">
        <ele>243.8</ele>
        <time>2020-09-06T08:53:35Z</time>
      </trkpt>
      <trkpt lat="48.75603" lon="-0.48781">
        <ele>244</ele>
        <time>2020-09-06T08:53:36Z</time>
      </trkpt>
      <trkpt lat="48.75599" lon="-0.48782">
        <ele>244</ele>
        <time>2020-09-06T08:53:37Z</time>
      </trkpt>
      <trkpt lat="48.75589" lon="-0.48786">
        <ele>244.2</ele>
        <time>2020-09-06T08:53:39Z</time>
      </trkpt>
      <trkpt lat="48.75575" lon="-0.48794">
        <ele>244.8</ele>
        <time>2020-09-06T08:53:42Z</time>
      </trkpt>
      <trkpt lat="48.75571" lon="-0.48798">
        <ele>245.2</ele>
        <time>2020-09-06T08:53:43Z</time>
      </trkpt>
      <trkpt lat="48.75553" lon="-0.48823">
        <ele>246</ele>
        <time>2020-09-06T08:53:48Z</time>
      </trkpt>
      <trkpt lat="48.75549" lon="-0.48828">
        <ele>246.2</ele>
        <time>2020-09-06T08:53:49Z</time>
      </trkpt>
      <trkpt lat="48.75528" lon="-0.48866">
        <ele>247.2</ele>
        <time>2020-09-06T08:53:56Z</time>
      </trkpt>
      <trkpt lat="48.75523" lon="-0.48878">
        <ele>247.2</ele>
        <time>2020-09-06T08:53:58Z</time>
      </trkpt>
      <trkpt lat="48.75506" lon="-0.48911">
        <ele>247.4</ele>
        <time>2020-09-06T08:54:04Z</time>
      </trkpt>
      <trkpt lat="48.75503" lon="-0.48917">
        <ele>247.4</ele>
        <time>2020-09-06T08:54:05Z</time>
      </trkpt>
      <trkpt lat="48.75493" lon="-0.48939">
        <ele>247.6</ele>
        <time>2020-09-06T08:54:09Z</time>
      </trkpt>
      <trkpt lat="48.7549" lon="-0.48945">
        <ele>247.6</ele>
        <time>2020-09-06T08:54:10Z</time>
      </trkpt>
      <trkpt lat="48.75472" lon="-0.48977">
        <ele>248.4</ele>
        <time>2020-09-06T08:54:16Z</time>
      </trkpt>
      <trkpt lat="48.75467" lon="-0.48984">
        <ele>248.6</ele>
        <time>2020-09-06T08:54:17Z</time>
      </trkpt>
      <trkpt lat="48.75437" lon="-0.49026">
        <ele>248.4</ele>
        <time>2020-09-06T08:54:23Z</time>
      </trkpt>
      <trkpt lat="48.75407" lon="-0.49066">
        <ele>248.2</ele>
        <time>2020-09-06T08:54:29Z</time>
      </trkpt>
      <trkpt lat="48.75368" lon="-0.49116">
        <ele>247.8</ele>
        <time>2020-09-06T08:54:37Z</time>
      </trkpt>
      <trkpt lat="48.75354" lon="-0.49132">
        <ele>247.6</ele>
        <time>2020-09-06T08:54:40Z</time>
      </trkpt>
      <trkpt lat="48.75349" lon="-0.49133">
        <ele>247.6</ele>
        <time>2020-09-06T08:54:41Z</time>
      </trkpt>
      <trkpt lat="48.75346" lon="-0.49131">
        <ele>247.4</ele>
        <time>2020-09-06T08:54:42Z</time>
      </trkpt>
      <trkpt lat="48.75342" lon="-0.49121">
        <ele>247</ele>
        <time>2020-09-06T08:54:44Z</time>
      </trkpt>
      <trkpt lat="48.75341" lon="-0.49108">
        <ele>246.8</ele>
        <time>2020-09-06T08:54:46Z</time>
      </trkpt>
      <trkpt lat="48.7534" lon="-0.49084">
        <ele>246.8</ele>
        <time>2020-09-06T08:54:50Z</time>
      </trkpt>
      <trkpt lat="48.75333" lon="-0.49021">
        <ele>248.2</ele>
        <time>2020-09-06T08:55:00Z</time>
      </trkpt>
      <trkpt lat="48.75332" lon="-0.49015">
        <ele>248.4</ele>
        <time>2020-09-06T08:55:01Z</time>
      </trkpt>
      <trkpt lat="48.75327" lon="-0.48966">
        <ele>248.8</ele>
        <time>2020-09-06T08:55:09Z</time>
      </trkpt>
      <trkpt lat="48.75322" lon="-0.48923">
        <ele>248.8</ele>
        <time>2020-09-06T08:55:16Z</time>
      </trkpt>
      <trkpt lat="48.75317" lon="-0.4888">
        <ele>249</ele>
        <time>2020-09-06T08:55:23Z</time>
      </trkpt>
      <trkpt lat="48.75313" lon="-0.48842">
        <ele>249</ele>
        <time>2020-09-06T08:55:29Z</time>
      </trkpt>
      <trkpt lat="48.75311" lon="-0.4883">
        <ele>249.2</ele>
        <time>2020-09-06T08:55:31Z</time>
      </trkpt>
      <trkpt lat="48.7531" lon="-0.48816">
        <ele>249.6</ele>
        <time>2020-09-06T08:55:33Z</time>
      </trkpt>
      <trkpt lat="48.7531" lon="-0.4881">
        <ele>249.6</ele>
        <time>2020-09-06T08:55:34Z</time>
      </trkpt>
      <trkpt lat="48.75305" lon="-0.48764">
        <ele>250.2</ele>
        <time>2020-09-06T08:55:41Z</time>
      </trkpt>
      <trkpt lat="48.75303" lon="-0.48742">
        <ele>250.6</ele>
        <time>2020-09-06T08:55:44Z</time>
      </trkpt>
      <trkpt lat="48.75301" lon="-0.48707">
        <ele>250.4</ele>
        <time>2020-09-06T08:55:49Z</time>
      </trkpt>
      <trkpt lat="48.75301" lon="-0.48659">
        <ele>250</ele>
        <time>2020-09-06T08:55:56Z</time>
      </trkpt>
      <trkpt lat="48.75304" lon="-0.48617">
        <ele>250</ele>
        <time>2020-09-06T08:56:03Z</time>
      </trkpt>
      <trkpt lat="48.75305" lon="-0.48591">
        <ele>249.4</ele>
        <time>2020-09-06T08:56:07Z</time>
      </trkpt>
      <trkpt lat="48.75306" lon="-0.48571">
        <ele>249.2</ele>
        <time>2020-09-06T08:56:10Z</time>
      </trkpt>
      <trkpt lat="48.75309" lon="-0.48517">
        <ele>248.6</ele>
        <time>2020-09-06T08:56:18Z</time>
      </trkpt>
      <trkpt lat="48.75311" lon="-0.48477">
        <ele>248.4</ele>
        <time>2020-09-06T08:56:24Z</time>
      </trkpt>
      <trkpt lat="48.75311" lon="-0.4847">
        <ele>248.4</ele>
        <time>2020-09-06T08:56:25Z</time>
      </trkpt>
      <trkpt lat="48.7531" lon="-0.48431">
        <ele>248.2</ele>
        <time>2020-09-06T08:56:31Z</time>
      </trkpt>
      <trkpt lat="48.75306" lon="-0.48369">
        <ele>247.8</ele>
        <time>2020-09-06T08:56:40Z</time>
      </trkpt>
      <trkpt lat="48.75305" lon="-0.48333">
        <ele>247.2</ele>
        <time>2020-09-06T08:56:45Z</time>
      </trkpt>
      <trkpt lat="48.75303" lon="-0.48304">
        <ele>246.6</ele>
        <time>2020-09-06T08:56:49Z</time>
      </trkpt>
      <trkpt lat="48.75302" lon="-0.48269">
        <ele>246.2</ele>
        <time>2020-09-06T08:56:54Z</time>
      </trkpt>
      <trkpt lat="48.75302" lon="-0.4824">
        <ele>245.6</ele>
        <time>2020-09-06T08:56:58Z</time>
      </trkpt>
      <trkpt lat="48.75302" lon="-0.48193">
        <ele>245.2</ele>
        <time>2020-09-06T08:57:05Z</time>
      </trkpt>
      <trkpt lat="48.75304" lon="-0.48158">
        <ele>245.2</ele>
        <time>2020-09-06T08:57:10Z</time>
      </trkpt>
      <trkpt lat="48.75308" lon="-0.48137">
        <ele>245.6</ele>
        <time>2020-09-06T08:57:13Z</time>
      </trkpt>
      <trkpt lat="48.75312" lon="-0.48125">
        <ele>246</ele>
        <time>2020-09-06T08:57:15Z</time>
      </trkpt>
      <trkpt lat="48.75314" lon="-0.48119">
        <ele>246.2</ele>
        <time>2020-09-06T08:57:16Z</time>
      </trkpt>
      <trkpt lat="48.75316" lon="-0.48113">
        <ele>246.4</ele>
        <time>2020-09-06T08:57:17Z</time>
      </trkpt>
      <trkpt lat="48.75318" lon="-0.48106">
        <ele>246.6</ele>
        <time>2020-09-06T08:57:18Z</time>
      </trkpt>
      <trkpt lat="48.75332" lon="-0.48052">
        <ele>246.6</ele>
        <time>2020-09-06T08:57:26Z</time>
      </trkpt>
      <trkpt lat="48.75345" lon="-0.47991">
        <ele>245.2</ele>
        <time>2020-09-06T08:57:34Z</time>
      </trkpt>
      <trkpt lat="48.75347" lon="-0.47984">
        <ele>245.2</ele>
        <time>2020-09-06T08:57:35Z</time>
      </trkpt>
      <trkpt lat="48.75361" lon="-0.47942">
        <ele>244</ele>
        <time>2020-09-06T08:57:40Z</time>
      </trkpt>
      <trkpt lat="48.75367" lon="-0.47925">
        <ele>243.2</ele>
        <time>2020-09-06T08:57:42Z</time>
      </trkpt>
      <trkpt lat="48.75373" lon="-0.47906">
        <ele>242.6</ele>
        <time>2020-09-06T08:57:44Z</time>
      </trkpt>
      <trkpt lat="48.75387" lon="-0.47866">
        <ele>241.2</ele>
        <time>2020-09-06T08:57:48Z</time>
      </trkpt>
      <trkpt lat="48.75396" lon="-0.47835">
        <ele>239.8</ele>
        <time>2020-09-06T08:57:51Z</time>
      </trkpt>
      <trkpt lat="48.75406" lon="-0.47802">
        <ele>238.4</ele>
        <time>2020-09-06T08:57:54Z</time>
      </trkpt>
      <trkpt lat="48.75411" lon="-0.47779">
        <ele>237.4</ele>
        <time>2020-09-06T08:57:56Z</time>
      </trkpt>
      <trkpt lat="48.75413" lon="-0.47767">
        <ele>237</ele>
        <time>2020-09-06T08:57:57Z</time>
      </trkpt>
      <trkpt lat="48.75416" lon="-0.47732">
        <ele>236</ele>
        <time>2020-09-06T08:58:00Z</time>
      </trkpt>
      <trkpt lat="48.75416" lon="-0.4772">
        <ele>235.8</ele>
        <time>2020-09-06T08:58:01Z</time>
      </trkpt>
      <trkpt lat="48.75417" lon="-0.47686">
        <ele>234.8</ele>
        <time>2020-09-06T08:58:04Z</time>
      </trkpt>
      <trkpt lat="48.7542" lon="-0.4764">
        <ele>233.8</ele>
        <time>2020-09-06T08:58:08Z</time>
      </trkpt>
      <trkpt lat="48.75421" lon="-0.47607">
        <ele>233</ele>
        <time>2020-09-06T08:58:11Z</time>
      </trkpt>
      <trkpt lat="48.75423" lon="-0.47586">
        <ele>232.8</ele>
        <time>2020-09-06T08:58:13Z</time>
      </trkpt>
      <trkpt lat="48.75424" lon="-0.47549">
        <ele>232.4</ele>
        <time>2020-09-06T08:58:17Z</time>
      </trkpt>
      <trkpt lat="48.75426" lon="-0.47515">
        <ele>232.2</ele>
        <time>2020-09-06T08:58:21Z</time>
      </trkpt>
      <trkpt lat="48.7543" lon="-0.475">
        <ele>232</ele>
        <time>2020-09-06T08:58:23Z</time>
      </trkpt>
      <trkpt lat="48.75441" lon="-0.47485">
        <ele>231.8</ele>
        <time>2020-09-06T08:58:26Z</time>
      </trkpt>
      <trkpt lat="48.75446" lon="-0.47482">
        <ele>231.8</ele>
        <time>2020-09-06T08:58:27Z</time>
      </trkpt>
      <trkpt lat="48.75452" lon="-0.47478">
        <ele>231.6</ele>
        <time>2020-09-06T08:58:28Z</time>
      </trkpt>
      <trkpt lat="48.75469" lon="-0.47468">
        <ele>231.4</ele>
        <time>2020-09-06T08:58:31Z</time>
      </trkpt>
      <trkpt lat="48.7551" lon="-0.47447">
        <ele>231</ele>
        <time>2020-09-06T08:58:38Z</time>
      </trkpt>
      <trkpt lat="48.75522" lon="-0.47441">
        <ele>230.6</ele>
        <time>2020-09-06T08:58:40Z</time>
      </trkpt>
      <trkpt lat="48.75561" lon="-0.4742">
        <ele>230</ele>
        <time>2020-09-06T08:58:47Z</time>
      </trkpt>
      <trkpt lat="48.75578" lon="-0.47412">
        <ele>229.6</ele>
        <time>2020-09-06T08:58:50Z</time>
      </trkpt>
      <trkpt lat="48.75612" lon="-0.47393">
        <ele>229.2</ele>
        <time>2020-09-06T08:58:56Z</time>
      </trkpt>
      <trkpt lat="48.75641" lon="-0.47378">
        <ele>228.6</ele>
        <time>2020-09-06T08:59:01Z</time>
      </trkpt>
      <trkpt lat="48.75659" lon="-0.47368">
        <ele>228</ele>
        <time>2020-09-06T08:59:04Z</time>
      </trkpt>
      <trkpt lat="48.75682" lon="-0.47356">
        <ele>227.4</ele>
        <time>2020-09-06T08:59:08Z</time>
      </trkpt>
      <trkpt lat="48.75705" lon="-0.47338">
        <ele>226.6</ele>
        <time>2020-09-06T08:59:12Z</time>
      </trkpt>
      <trkpt lat="48.7571" lon="-0.47332">
        <ele>226.4</ele>
        <time>2020-09-06T08:59:13Z</time>
      </trkpt>
      <trkpt lat="48.75735" lon="-0.47299">
        <ele>225.4</ele>
        <time>2020-09-06T08:59:18Z</time>
      </trkpt>
      <trkpt lat="48.75747" lon="-0.47286">
        <ele>225</ele>
        <time>2020-09-06T08:59:20Z</time>
      </trkpt>
      <trkpt lat="48.75762" lon="-0.47278">
        <ele>224.8</ele>
        <time>2020-09-06T08:59:22Z</time>
      </trkpt>
      <trkpt lat="48.75775" lon="-0.47268">
        <ele>224.4</ele>
        <time>2020-09-06T08:59:24Z</time>
      </trkpt>
      <trkpt lat="48.75786" lon="-0.47252">
        <ele>223.8</ele>
        <time>2020-09-06T08:59:26Z</time>
      </trkpt>
      <trkpt lat="48.75793" lon="-0.47233">
        <ele>223</ele>
        <time>2020-09-06T08:59:28Z</time>
      </trkpt>
      <trkpt lat="48.75804" lon="-0.47205">
        <ele>222.2</ele>
        <time>2020-09-06T08:59:31Z</time>
      </trkpt>
      <trkpt lat="48.75807" lon="-0.47196">
        <ele>221.8</ele>
        <time>2020-09-06T08:59:32Z</time>
      </trkpt>
      <trkpt lat="48.75819" lon="-0.47157">
        <ele>220.6</ele>
        <time>2020-09-06T08:59:36Z</time>
      </trkpt>
      <trkpt lat="48.75833" lon="-0.47109">
        <ele>219.6</ele>
        <time>2020-09-06T08:59:41Z</time>
      </trkpt>
      <trkpt lat="48.75845" lon="-0.4707">
        <ele>218.4</ele>
        <time>2020-09-06T08:59:45Z</time>
      </trkpt>
      <trkpt lat="48.75854" lon="-0.47031">
        <ele>217.2</ele>
        <time>2020-09-06T08:59:49Z</time>
      </trkpt>
      <trkpt lat="48.75857" lon="-0.47021">
        <ele>217.2</ele>
        <time>2020-09-06T08:59:50Z</time>
      </trkpt>
      <trkpt lat="48.75871" lon="-0.46956">
        <ele>216.2</ele>
        <time>2020-09-06T08:59:57Z</time>
      </trkpt>
      <trkpt lat="48.75876" lon="-0.46938">
        <ele>216</ele>
        <time>2020-09-06T08:59:59Z</time>
      </trkpt>
      <trkpt lat="48.75888" lon="-0.46897">
        <ele>215</ele>
        <time>2020-09-06T09:00:04Z</time>
      </trkpt>
      <trkpt lat="48.75897" lon="-0.46873">
        <ele>214.6</ele>
        <time>2020-09-06T09:00:07Z</time>
      </trkpt>
      <trkpt lat="48.75905" lon="-0.4685">
        <ele>214</ele>
        <time>2020-09-06T09:00:10Z</time>
      </trkpt>
      <trkpt lat="48.75927" lon="-0.46788">
        <ele>213</ele>
        <time>2020-09-06T09:00:18Z</time>
      </trkpt>
      <trkpt lat="48.7593" lon="-0.46781">
        <ele>212.8</ele>
        <time>2020-09-06T09:00:19Z</time>
      </trkpt>
      <trkpt lat="48.7595" lon="-0.46747">
        <ele>212</ele>
        <time>2020-09-06T09:00:24Z</time>
      </trkpt>
      <trkpt lat="48.75955" lon="-0.46741">
        <ele>211.8</ele>
        <time>2020-09-06T09:00:25Z</time>
      </trkpt>
      <trkpt lat="48.75971" lon="-0.46714">
        <ele>210.6</ele>
        <time>2020-09-06T09:00:29Z</time>
      </trkpt>
      <trkpt lat="48.75984" lon="-0.46687">
        <ele>210</ele>
        <time>2020-09-06T09:00:33Z</time>
      </trkpt>
      <trkpt lat="48.75999" lon="-0.46632">
        <ele>210.4</ele>
        <time>2020-09-06T09:00:41Z</time>
      </trkpt>
      <trkpt lat="48.76002" lon="-0.46581">
        <ele>210</ele>
        <time>2020-09-06T09:00:48Z</time>
      </trkpt>
      <trkpt lat="48.76005" lon="-0.4654">
        <ele>209.6</ele>
        <time>2020-09-06T09:00:53Z</time>
      </trkpt>
      <trkpt lat="48.76007" lon="-0.46531">
        <ele>209.4</ele>
        <time>2020-09-06T09:00:54Z</time>
      </trkpt>
      <trkpt lat="48.7601" lon="-0.46524">
        <ele>209.2</ele>
        <time>2020-09-06T09:00:55Z</time>
      </trkpt>
      <trkpt lat="48.76024" lon="-0.46497">
        <ele>208.6</ele>
        <time>2020-09-06T09:00:59Z</time>
      </trkpt>
      <trkpt lat="48.76063" lon="-0.46438">
        <ele>207.4</ele>
        <time>2020-09-06T09:01:09Z</time>
      </trkpt>
      <trkpt lat="48.76081" lon="-0.46408">
        <ele>206.8</ele>
        <time>2020-09-06T09:01:14Z</time>
      </trkpt>
      <trkpt lat="48.76087" lon="-0.46395">
        <ele>206.4</ele>
        <time>2020-09-06T09:01:16Z</time>
      </trkpt>
      <trkpt lat="48.7609" lon="-0.46388">
        <ele>206.2</ele>
        <time>2020-09-06T09:01:17Z</time>
      </trkpt>
      <trkpt lat="48.76097" lon="-0.46359">
        <ele>206</ele>
        <time>2020-09-06T09:01:21Z</time>
      </trkpt>
      <trkpt lat="48.761" lon="-0.46332">
        <ele>206.4</ele>
        <time>2020-09-06T09:01:25Z</time>
      </trkpt>
      <trkpt lat="48.761" lon="-0.46327">
        <ele>206.4</ele>
        <time>2020-09-06T09:01:26Z</time>
      </trkpt>
      <trkpt lat="48.76093" lon="-0.46326">
        <ele>207</ele>
        <time>2020-09-06T09:01:29Z</time>
      </trkpt>
      <trkpt lat="48.76091" lon="-0.46329">
        <ele>207.4</ele>
        <time>2020-09-06T09:01:30Z</time>
      </trkpt>
      <trkpt lat="48.76084" lon="-0.46337">
        <ele>208.4</ele>
        <time>2020-09-06T09:01:33Z</time>
      </trkpt>
      <trkpt lat="48.76078" lon="-0.46343">
        <ele>208.8</ele>
        <time>2020-09-06T09:01:35Z</time>
      </trkpt>
      <trkpt lat="48.76063" lon="-0.46357">
        <ele>209.2</ele>
        <time>2020-09-06T09:01:40Z</time>
      </trkpt>
      <trkpt lat="48.76053" lon="-0.46364">
        <ele>209.4</ele>
        <time>2020-09-06T09:01:43Z</time>
      </trkpt>
      <trkpt lat="48.76032" lon="-0.46377">
        <ele>210.4</ele>
        <time>2020-09-06T09:01:50Z</time>
      </trkpt>
      <trkpt lat="48.76029" lon="-0.46379">
        <ele>210.4</ele>
        <time>2020-09-06T09:01:51Z</time>
      </trkpt>
      <trkpt lat="48.76013" lon="-0.46388">
        <ele>211.4</ele>
        <time>2020-09-06T09:01:56Z</time>
      </trkpt>
      <trkpt lat="48.76006" lon="-0.46392">
        <ele>211.8</ele>
        <time>2020-09-06T09:01:58Z</time>
      </trkpt>
      <trkpt lat="48.75985" lon="-0.46405">
        <ele>212.8</ele>
        <time>2020-09-06T09:02:05Z</time>
      </trkpt>
      <trkpt lat="48.75981" lon="-0.46407">
        <ele>213</ele>
        <time>2020-09-06T09:02:06Z</time>
      </trkpt>
      <trkpt lat="48.75964" lon="-0.46416">
        <ele>213.8</ele>
        <time>2020-09-06T09:02:11Z</time>
      </trkpt>
      <trkpt lat="48.75954" lon="-0.46422">
        <ele>214.4</ele>
        <time>2020-09-06T09:02:14Z</time>
      </trkpt>
      <trkpt lat="48.75947" lon="-0.46426">
        <ele>214.8</ele>
        <time>2020-09-06T09:02:16Z</time>
      </trkpt>
      <trkpt lat="48.75937" lon="-0.46431">
        <ele>216</ele>
        <time>2020-09-06T09:02:19Z</time>
      </trkpt>
      <trkpt lat="48.75924" lon="-0.46439">
        <ele>216</ele>
        <time>2020-09-06T09:02:23Z</time>
      </trkpt>
      <trkpt lat="48.75888" lon="-0.46456">
        <ele>216.4</ele>
        <time>2020-09-06T09:02:33Z</time>
      </trkpt>
      <trkpt lat="48.75869" lon="-0.46467">
        <ele>217</ele>
        <time>2020-09-06T09:02:38Z</time>
      </trkpt>
      <trkpt lat="48.75857" lon="-0.46474">
        <ele>217.2</ele>
        <time>2020-09-06T09:02:41Z</time>
      </trkpt>
      <trkpt lat="48.75819" lon="-0.46494">
        <ele>217.6</ele>
        <time>2020-09-06T09:02:50Z</time>
      </trkpt>
      <trkpt lat="48.75788" lon="-0.46511">
        <ele>217.4</ele>
        <time>2020-09-06T09:02:57Z</time>
      </trkpt>
      <trkpt lat="48.75746" lon="-0.46534">
        <ele>217.8</ele>
        <time>2020-09-06T09:03:06Z</time>
      </trkpt>
      <trkpt lat="48.75737" lon="-0.46538">
        <ele>218</ele>
        <time>2020-09-06T09:03:08Z</time>
      </trkpt>
      <trkpt lat="48.75706" lon="-0.46556">
        <ele>218.4</ele>
        <time>2020-09-06T09:03:15Z</time>
      </trkpt>
      <trkpt lat="48.75665" lon="-0.46576">
        <ele>218.4</ele>
        <time>2020-09-06T09:03:24Z</time>
      </trkpt>
      <trkpt lat="48.75636" lon="-0.46592">
        <ele>218.2</ele>
        <time>2020-09-06T09:03:31Z</time>
      </trkpt>
      <trkpt lat="48.75603" lon="-0.46609">
        <ele>219</ele>
        <time>2020-09-06T09:03:38Z</time>
      </trkpt>
      <trkpt lat="48.75598" lon="-0.46612">
        <ele>219.2</ele>
        <time>2020-09-06T09:03:39Z</time>
      </trkpt>
      <trkpt lat="48.75573" lon="-0.46625">
        <ele>220.4</ele>
        <time>2020-09-06T09:03:44Z</time>
      </trkpt>
      <trkpt lat="48.75558" lon="-0.46632">
        <ele>221</ele>
        <time>2020-09-06T09:03:47Z</time>
      </trkpt>
      <trkpt lat="48.75545" lon="-0.4664">
        <ele>221.4</ele>
        <time>2020-09-06T09:03:50Z</time>
      </trkpt>
      <trkpt lat="48.75518" lon="-0.46655">
        <ele>222.4</ele>
        <time>2020-09-06T09:03:56Z</time>
      </trkpt>
      <trkpt lat="48.75482" lon="-0.46674">
        <ele>222.6</ele>
        <time>2020-09-06T09:04:04Z</time>
      </trkpt>
      <trkpt lat="48.75477" lon="-0.46677">
        <ele>222.8</ele>
        <time>2020-09-06T09:04:05Z</time>
      </trkpt>
      <trkpt lat="48.75457" lon="-0.46686">
        <ele>223.6</ele>
        <time>2020-09-06T09:04:09Z</time>
      </trkpt>
      <trkpt lat="48.75437" lon="-0.46692">
        <ele>223.6</ele>
        <time>2020-09-06T09:04:13Z</time>
      </trkpt>
      <trkpt lat="48.75433" lon="-0.46693">
        <ele>223.6</ele>
        <time>2020-09-06T09:04:14Z</time>
      </trkpt>
      <trkpt lat="48.75397" lon="-0.46697">
        <ele>224</ele>
        <time>2020-09-06T09:04:21Z</time>
      </trkpt>
      <trkpt lat="48.75359" lon="-0.46693">
        <ele>224.6</ele>
        <time>2020-09-06T09:04:28Z</time>
      </trkpt>
      <trkpt lat="48.75311" lon="-0.46677">
        <ele>224</ele>
        <time>2020-09-06T09:04:36Z</time>
      </trkpt>
      <trkpt lat="48.75277" lon="-0.46657">
        <ele>223.4</ele>
        <time>2020-09-06T09:04:42Z</time>
      </trkpt>
      <trkpt lat="48.75271" lon="-0.46653">
        <ele>223.2</ele>
        <time>2020-09-06T09:04:43Z</time>
      </trkpt>
      <trkpt lat="48.75234" lon="-0.46619">
        <ele>222.8</ele>
        <time>2020-09-06T09:04:50Z</time>
      </trkpt>
      <trkpt lat="48.75219" lon="-0.46601">
        <ele>222.4</ele>
        <time>2020-09-06T09:04:53Z</time>
      </trkpt>
      <trkpt lat="48.75204" lon="-0.46581">
        <ele>222</ele>
        <time>2020-09-06T09:04:56Z</time>
      </trkpt>
      <trkpt lat="48.75164" lon="-0.46526">
        <ele>221.4</ele>
        <time>2020-09-06T09:05:04Z</time>
      </trkpt>
      <trkpt lat="48.75132" lon="-0.46483">
        <ele>221.6</ele>
        <time>2020-09-06T09:05:11Z</time>
      </trkpt>
      <trkpt lat="48.75114" lon="-0.4646">
        <ele>221.2</ele>
        <time>2020-09-06T09:05:15Z</time>
      </trkpt>
      <trkpt lat="48.75096" lon="-0.46435">
        <ele>221.4</ele>
        <time>2020-09-06T09:05:19Z</time>
      </trkpt>
      <trkpt lat="48.75078" lon="-0.4641">
        <ele>222.4</ele>
        <time>2020-09-06T09:05:23Z</time>
      </trkpt>
      <trkpt lat="48.75066" lon="-0.46392">
        <ele>222.6</ele>
        <time>2020-09-06T09:05:26Z</time>
      </trkpt>
      <trkpt lat="48.7505" lon="-0.46371">
        <ele>223.6</ele>
        <time>2020-09-06T09:05:30Z</time>
      </trkpt>
      <trkpt lat="48.75039" lon="-0.46356">
        <ele>224.4</ele>
        <time>2020-09-06T09:05:33Z</time>
      </trkpt>
      <trkpt lat="48.75035" lon="-0.46351">
        <ele>224.6</ele>
        <time>2020-09-06T09:05:34Z</time>
      </trkpt>
      <trkpt lat="48.75018" lon="-0.46327">
        <ele>225.8</ele>
        <time>2020-09-06T09:05:39Z</time>
      </trkpt>
      <trkpt lat="48.75012" lon="-0.46318">
        <ele>226.2</ele>
        <time>2020-09-06T09:05:41Z</time>
      </trkpt>
      <trkpt lat="48.75005" lon="-0.46309">
        <ele>226.8</ele>
        <time>2020-09-06T09:05:43Z</time>
      </trkpt>
      <trkpt lat="48.74986" lon="-0.46284">
        <ele>227.6</ele>
        <time>2020-09-06T09:05:49Z</time>
      </trkpt>
      <trkpt lat="48.74977" lon="-0.46271">
        <ele>228</ele>
        <time>2020-09-06T09:05:52Z</time>
      </trkpt>
      <trkpt lat="48.74969" lon="-0.4626">
        <ele>228.4</ele>
        <time>2020-09-06T09:05:55Z</time>
      </trkpt>
      <trkpt lat="48.74965" lon="-0.4626">
        <ele>228.6</ele>
        <time>2020-09-06T09:05:56Z</time>
      </trkpt>
      <trkpt lat="48.74962" lon="-0.46262">
        <ele>228.6</ele>
        <time>2020-09-06T09:05:57Z</time>
      </trkpt>
      <trkpt lat="48.74958" lon="-0.46268">
        <ele>229</ele>
        <time>2020-09-06T09:05:59Z</time>
      </trkpt>
      <trkpt lat="48.74955" lon="-0.46275">
        <ele>229.4</ele>
        <time>2020-09-06T09:06:01Z</time>
      </trkpt>
      <trkpt lat="48.74951" lon="-0.46287">
        <ele>230</ele>
        <time>2020-09-06T09:06:04Z</time>
      </trkpt>
      <trkpt lat="48.74948" lon="-0.46298">
        <ele>230.8</ele>
        <time>2020-09-06T09:06:07Z</time>
      </trkpt>
      <trkpt lat="48.74947" lon="-0.46302">
        <ele>231.2</ele>
        <time>2020-09-06T09:06:08Z</time>
      </trkpt>
      <trkpt lat="48.74944" lon="-0.46315">
        <ele>232.4</ele>
        <time>2020-09-06T09:06:12Z</time>
      </trkpt>
      <trkpt lat="48.74941" lon="-0.46325">
        <ele>233.6</ele>
        <time>2020-09-06T09:06:15Z</time>
      </trkpt>
      <trkpt lat="48.74937" lon="-0.46336">
        <ele>234.6</ele>
        <time>2020-09-06T09:06:19Z</time>
      </trkpt>
      <trkpt lat="48.74934" lon="-0.46349">
        <ele>235.8</ele>
        <time>2020-09-06T09:06:23Z</time>
      </trkpt>
      <trkpt lat="48.74933" lon="-0.4636">
        <ele>237</ele>
        <time>2020-09-06T09:06:26Z</time>
      </trkpt>
      <trkpt lat="48.7493" lon="-0.46372">
        <ele>238.2</ele>
        <time>2020-09-06T09:06:29Z</time>
      </trkpt>
      <trkpt lat="48.74929" lon="-0.46375">
        <ele>238.6</ele>
        <time>2020-09-06T09:06:30Z</time>
      </trkpt>
      <trkpt lat="48.74928" lon="-0.46383">
        <ele>239.2</ele>
        <time>2020-09-06T09:06:32Z</time>
      </trkpt>
      <trkpt lat="48.74927" lon="-0.46399">
        <ele>240.2</ele>
        <time>2020-09-06T09:06:36Z</time>
      </trkpt>
      <trkpt lat="48.74925" lon="-0.46407">
        <ele>240.8</ele>
        <time>2020-09-06T09:06:38Z</time>
      </trkpt>
      <trkpt lat="48.74924" lon="-0.46416">
        <ele>241.4</ele>
        <time>2020-09-06T09:06:40Z</time>
      </trkpt>
      <trkpt lat="48.74921" lon="-0.46437">
        <ele>242.4</ele>
        <time>2020-09-06T09:06:45Z</time>
      </trkpt>
      <trkpt lat="48.74921" lon="-0.46446">
        <ele>243.8</ele>
        <time>2020-09-06T09:06:47Z</time>
      </trkpt>
      <trkpt lat="48.74921" lon="-0.46461">
        <ele>244.8</ele>
        <time>2020-09-06T09:06:50Z</time>
      </trkpt>
      <trkpt lat="48.7492" lon="-0.46466">
        <ele>245</ele>
        <time>2020-09-06T09:06:51Z</time>
      </trkpt>
      <trkpt lat="48.74918" lon="-0.46503">
        <ele>243.8</ele>
        <time>2020-09-06T09:06:58Z</time>
      </trkpt>
      <trkpt lat="48.74916" lon="-0.4653">
        <ele>244.6</ele>
        <time>2020-09-06T09:07:04Z</time>
      </trkpt>
      <trkpt lat="48.74915" lon="-0.46534">
        <ele>245</ele>
        <time>2020-09-06T09:07:05Z</time>
      </trkpt>
      <trkpt lat="48.74914" lon="-0.46548">
        <ele>246.4</ele>
        <time>2020-09-06T09:07:08Z</time>
      </trkpt>
      <trkpt lat="48.74912" lon="-0.46563">
        <ele>247</ele>
        <time>2020-09-06T09:07:11Z</time>
      </trkpt>
      <trkpt lat="48.74912" lon="-0.46574">
        <ele>247.4</ele>
        <time>2020-09-06T09:07:13Z</time>
      </trkpt>
      <trkpt lat="48.74912" lon="-0.4659">
        <ele>248.8</ele>
        <time>2020-09-06T09:07:16Z</time>
      </trkpt>
      <trkpt lat="48.74912" lon="-0.46603">
        <ele>250</ele>
        <time>2020-09-06T09:07:19Z</time>
      </trkpt>
      <trkpt lat="48.74912" lon="-0.46618">
        <ele>251.2</ele>
        <time>2020-09-06T09:07:22Z</time>
      </trkpt>
      <trkpt lat="48.74911" lon="-0.46633">
        <ele>252.2</ele>
        <time>2020-09-06T09:07:25Z</time>
      </trkpt>
      <trkpt lat="48.74911" lon="-0.46639">
        <ele>252.6</ele>
        <time>2020-09-06T09:07:26Z</time>
      </trkpt>
      <trkpt lat="48.7491" lon="-0.4665">
        <ele>253.4</ele>
        <time>2020-09-06T09:07:28Z</time>
      </trkpt>
      <trkpt lat="48.74908" lon="-0.46672">
        <ele>254.4</ele>
        <time>2020-09-06T09:07:32Z</time>
      </trkpt>
      <trkpt lat="48.74907" lon="-0.46684">
        <ele>255</ele>
        <time>2020-09-06T09:07:34Z</time>
      </trkpt>
      <trkpt lat="48.74907" lon="-0.4669">
        <ele>255.4</ele>
        <time>2020-09-06T09:07:35Z</time>
      </trkpt>
      <trkpt lat="48.74906" lon="-0.46708">
        <ele>256.8</ele>
        <time>2020-09-06T09:07:38Z</time>
      </trkpt>
      <trkpt lat="48.74905" lon="-0.46731">
        <ele>257.2</ele>
        <time>2020-09-06T09:07:41Z</time>
      </trkpt>
      <trkpt lat="48.74906" lon="-0.46765">
        <ele>258</ele>
        <time>2020-09-06T09:07:46Z</time>
      </trkpt>
      <trkpt lat="48.74907" lon="-0.46776">
        <ele>259</ele>
        <time>2020-09-06T09:07:48Z</time>
      </trkpt>
      <trkpt lat="48.74907" lon="-0.46783">
        <ele>260.2</ele>
        <time>2020-09-06T09:07:50Z</time>
      </trkpt>
      <trkpt lat="48.74908" lon="-0.4679">
        <ele>261.6</ele>
        <time>2020-09-06T09:07:52Z</time>
      </trkpt>
      <trkpt lat="48.74908" lon="-0.46796">
        <ele>263</ele>
        <time>2020-09-06T09:07:54Z</time>
      </trkpt>
      <trkpt lat="48.74908" lon="-0.46803">
        <ele>264.2</ele>
        <time>2020-09-06T09:07:56Z</time>
      </trkpt>
      <trkpt lat="48.74908" lon="-0.46811">
        <ele>265.4</ele>
        <time>2020-09-06T09:07:58Z</time>
      </trkpt>
      <trkpt lat="48.74907" lon="-0.46822">
        <ele>266.6</ele>
        <time>2020-09-06T09:08:01Z</time>
      </trkpt>
      <trkpt lat="48.74907" lon="-0.46833">
        <ele>267.4</ele>
        <time>2020-09-06T09:08:04Z</time>
      </trkpt>
      <trkpt lat="48.74907" lon="-0.46837">
        <ele>267.6</ele>
        <time>2020-09-06T09:08:05Z</time>
      </trkpt>
      <trkpt lat="48.74905" lon="-0.46857">
        <ele>268.6</ele>
        <time>2020-09-06T09:08:10Z</time>
      </trkpt>
      <trkpt lat="48.74903" lon="-0.46865">
        <ele>268.8</ele>
        <time>2020-09-06T09:08:12Z</time>
      </trkpt>
      <trkpt lat="48.74892" lon="-0.46887">
        <ele>268.6</ele>
        <time>2020-09-06T09:08:17Z</time>
      </trkpt>
      <trkpt lat="48.74881" lon="-0.469">
        <ele>267.2</ele>
        <time>2020-09-06T09:08:23Z</time>
      </trkpt>
      <trkpt lat="48.7488" lon="-0.46901">
        <ele>266.4</ele>
        <time>2020-09-06T09:08:24Z</time>
      </trkpt>
      <trkpt lat="48.74878" lon="-0.46901">
        <ele>266</ele>
        <time>2020-09-06T09:08:25Z</time>
      </trkpt>
      <trkpt lat="48.74873" lon="-0.46904">
        <ele>264.4</ele>
        <time>2020-09-06T09:08:28Z</time>
      </trkpt>
      <trkpt lat="48.7487" lon="-0.46906">
        <ele>263.2</ele>
        <time>2020-09-06T09:08:30Z</time>
      </trkpt>
      <trkpt lat="48.74866" lon="-0.4691">
        <ele>261.8</ele>
        <time>2020-09-06T09:08:33Z</time>
      </trkpt>
      <trkpt lat="48.74864" lon="-0.46912">
        <ele>260.8</ele>
        <time>2020-09-06T09:08:35Z</time>
      </trkpt>
      <trkpt lat="48.74862" lon="-0.46913">
        <ele>260</ele>
        <time>2020-09-06T09:08:36Z</time>
      </trkpt>
      <trkpt lat="48.74861" lon="-0.46915">
        <ele>259.4</ele>
        <time>2020-09-06T09:08:37Z</time>
      </trkpt>
      <trkpt lat="48.74859" lon="-0.46916">
        <ele>258.6</ele>
        <time>2020-09-06T09:08:38Z</time>
      </trkpt>
      <trkpt lat="48.74858" lon="-0.46917">
        <ele>257.8</ele>
        <time>2020-09-06T09:08:39Z</time>
      </trkpt>
      <trkpt lat="48.74857" lon="-0.46919">
        <ele>257.2</ele>
        <time>2020-09-06T09:08:40Z</time>
      </trkpt>
      <trkpt lat="48.74854" lon="-0.46922">
        <ele>256.8</ele>
        <time>2020-09-06T09:08:42Z</time>
      </trkpt>
      <trkpt lat="48.74854" lon="-0.46922">
        <ele>256.4</ele>
        <time>2020-09-06T09:08:43Z</time>
      </trkpt>
      <trkpt lat="48.74853" lon="-0.46923">
        <ele>256</ele>
        <time>2020-09-06T09:08:44Z</time>
      </trkpt>
      <trkpt lat="48.74852" lon="-0.46925">
        <ele>255.6</ele>
        <time>2020-09-06T09:08:45Z</time>
      </trkpt>
      <trkpt lat="48.7485" lon="-0.46929">
        <ele>255</ele>
        <time>2020-09-06T09:08:49Z</time>
      </trkpt>
      <trkpt lat="48.74848" lon="-0.4693">
        <ele>254.8</ele>
        <time>2020-09-06T09:08:50Z</time>
      </trkpt>
      <trkpt lat="48.74843" lon="-0.4694">
        <ele>251.6</ele>
        <time>2020-09-06T09:09:35Z</time>
      </trkpt>
      <trkpt lat="48.74842" lon="-0.46942">
        <ele>250.6</ele>
        <time>2020-09-06T09:09:36Z</time>
      </trkpt>
      <trkpt lat="48.74842" lon="-0.46943">
        <ele>249.8</ele>
        <time>2020-09-06T09:09:37Z</time>
      </trkpt>
      <trkpt lat="48.74841" lon="-0.46945">
        <ele>248.8</ele>
        <time>2020-09-06T09:09:38Z</time>
      </trkpt>
      <trkpt lat="48.74842" lon="-0.46946">
        <ele>247.8</ele>
        <time>2020-09-06T09:09:39Z</time>
      </trkpt>
      <trkpt lat="48.74842" lon="-0.46948">
        <ele>246.8</ele>
        <time>2020-09-06T09:09:40Z</time>
      </trkpt>
      <trkpt lat="48.74841" lon="-0.4695">
        <ele>245.8</ele>
        <time>2020-09-06T09:09:41Z</time>
      </trkpt>
      <trkpt lat="48.74841" lon="-0.46951">
        <ele>244.8</ele>
        <time>2020-09-06T09:09:42Z</time>
      </trkpt>
      <trkpt lat="48.74839" lon="-0.46954">
        <ele>243</ele>
        <time>2020-09-06T09:09:44Z</time>
      </trkpt>
      <trkpt lat="48.74836" lon="-0.46957">
        <ele>241.8</ele>
        <time>2020-09-06T09:09:46Z</time>
      </trkpt>
      <trkpt lat="48.74832" lon="-0.46959">
        <ele>241.2</ele>
        <time>2020-09-06T09:09:48Z</time>
      </trkpt>
      <trkpt lat="48.7483" lon="-0.4696">
        <ele>240.8</ele>
        <time>2020-09-06T09:09:50Z</time>
      </trkpt>
      <trkpt lat="48.74828" lon="-0.46964">
        <ele>240.4</ele>
        <time>2020-09-06T09:10:14Z</time>
      </trkpt>
      <trkpt lat="48.74827" lon="-0.46967">
        <ele>240.6</ele>
        <time>2020-09-06T09:10:15Z</time>
      </trkpt>
      <trkpt lat="48.74817" lon="-0.46985">
        <ele>240.4</ele>
        <time>2020-09-06T09:10:20Z</time>
      </trkpt>
      <trkpt lat="48.74814" lon="-0.46994">
        <ele>239.8</ele>
        <time>2020-09-06T09:10:22Z</time>
      </trkpt>
      <trkpt lat="48.7481" lon="-0.47002">
        <ele>238.2</ele>
        <time>2020-09-06T09:10:24Z</time>
      </trkpt>
      <trkpt lat="48.74806" lon="-0.47009">
        <ele>236.4</ele>
        <time>2020-09-06T09:10:26Z</time>
      </trkpt>
      <trkpt lat="48.74803" lon="-0.47015">
        <ele>234.6</ele>
        <time>2020-09-06T09:10:28Z</time>
      </trkpt>
      <trkpt lat="48.748" lon="-0.47021">
        <ele>233.2</ele>
        <time>2020-09-06T09:10:30Z</time>
      </trkpt>
      <trkpt lat="48.74796" lon="-0.47027">
        <ele>231.8</ele>
        <time>2020-09-06T09:10:32Z</time>
      </trkpt>
      <trkpt lat="48.74794" lon="-0.4703">
        <ele>231.4</ele>
        <time>2020-09-06T09:10:33Z</time>
      </trkpt>
      <trkpt lat="48.74778" lon="-0.47041">
        <ele>231.4</ele>
        <time>2020-09-06T09:10:38Z</time>
      </trkpt>
      <trkpt lat="48.74761" lon="-0.47046">
        <ele>232.2</ele>
        <time>2020-09-06T09:10:44Z</time>
      </trkpt>
      <trkpt lat="48.74755" lon="-0.47045">
        <ele>233</ele>
        <time>2020-09-06T09:10:46Z</time>
      </trkpt>
      <trkpt lat="48.74744" lon="-0.4704">
        <ele>233.6</ele>
        <time>2020-09-06T09:10:50Z</time>
      </trkpt>
      <trkpt lat="48.74741" lon="-0.47039">
        <ele>234</ele>
        <time>2020-09-06T09:10:51Z</time>
      </trkpt>
      <trkpt lat="48.74735" lon="-0.47037">
        <ele>235.2</ele>
        <time>2020-09-06T09:10:53Z</time>
      </trkpt>
      <trkpt lat="48.74731" lon="-0.47036">
        <ele>236.6</ele>
        <time>2020-09-06T09:10:55Z</time>
      </trkpt>
      <trkpt lat="48.74727" lon="-0.47034">
        <ele>238.4</ele>
        <time>2020-09-06T09:10:57Z</time>
      </trkpt>
      <trkpt lat="48.74724" lon="-0.47032">
        <ele>240</ele>
        <time>2020-09-06T09:10:59Z</time>
      </trkpt>
      <trkpt lat="48.7472" lon="-0.4703">
        <ele>241.8</ele>
        <time>2020-09-06T09:11:01Z</time>
      </trkpt>
      <trkpt lat="48.74715" lon="-0.47028">
        <ele>243.4</ele>
        <time>2020-09-06T09:11:03Z</time>
      </trkpt>
      <trkpt lat="48.74708" lon="-0.47021">
        <ele>244.6</ele>
        <time>2020-09-06T09:11:06Z</time>
      </trkpt>
      <trkpt lat="48.74704" lon="-0.47015">
        <ele>245.6</ele>
        <time>2020-09-06T09:11:08Z</time>
      </trkpt>
      <trkpt lat="48.74702" lon="-0.47012">
        <ele>245.8</ele>
        <time>2020-09-06T09:11:09Z</time>
      </trkpt>
      <trkpt lat="48.74693" lon="-0.47006">
        <ele>246.8</ele>
        <time>2020-09-06T09:11:13Z</time>
      </trkpt>
      <trkpt lat="48.74691" lon="-0.47005">
        <ele>247</ele>
        <time>2020-09-06T09:11:14Z</time>
      </trkpt>
      <trkpt lat="48.74686" lon="-0.46992">
        <ele>247.8</ele>
        <time>2020-09-06T09:11:17Z</time>
      </trkpt>
      <trkpt lat="48.74686" lon="-0.46985">
        <ele>248</ele>
        <time>2020-09-06T09:11:18Z</time>
      </trkpt>
      <trkpt lat="48.74686" lon="-0.46979">
        <ele>248.2</ele>
        <time>2020-09-06T09:11:19Z</time>
      </trkpt>
      <trkpt lat="48.74686" lon="-0.46972">
        <ele>248.4</ele>
        <time>2020-09-06T09:11:20Z</time>
      </trkpt>
      <trkpt lat="48.74686" lon="-0.46965">
        <ele>248.4</ele>
        <time>2020-09-06T09:11:21Z</time>
      </trkpt>
      <trkpt lat="48.74688" lon="-0.4694">
        <ele>248.4</ele>
        <time>2020-09-06T09:11:24Z</time>
      </trkpt>
      <trkpt lat="48.74689" lon="-0.46932">
        <ele>248.2</ele>
        <time>2020-09-06T09:11:25Z</time>
      </trkpt>
      <trkpt lat="48.74688" lon="-0.46906">
        <ele>248</ele>
        <time>2020-09-06T09:11:29Z</time>
      </trkpt>
      <trkpt lat="48.74688" lon="-0.46903">
        <ele>248</ele>
        <time>2020-09-06T09:11:30Z</time>
      </trkpt>
      <trkpt lat="48.74693" lon="-0.46892">
        <ele>247.2</ele>
        <time>2020-09-06T09:11:33Z</time>
      </trkpt>
      <trkpt lat="48.74709" lon="-0.46877">
        <ele>246.2</ele>
        <time>2020-09-06T09:11:38Z</time>
      </trkpt>
      <trkpt lat="48.74712" lon="-0.46873">
        <ele>246.2</ele>
        <time>2020-09-06T09:11:39Z</time>
      </trkpt>
      <trkpt lat="48.74718" lon="-0.46865">
        <ele>245.8</ele>
        <time>2020-09-06T09:11:41Z</time>
      </trkpt>
      <trkpt lat="48.74728" lon="-0.46853">
        <ele>245.2</ele>
        <time>2020-09-06T09:11:44Z</time>
      </trkpt>
      <trkpt lat="48.74731" lon="-0.46848">
        <ele>245.2</ele>
        <time>2020-09-06T09:11:45Z</time>
      </trkpt>
      <trkpt lat="48.7474" lon="-0.46832">
        <ele>245</ele>
        <time>2020-09-06T09:11:48Z</time>
      </trkpt>
      <trkpt lat="48.74746" lon="-0.46819">
        <ele>245</ele>
        <time>2020-09-06T09:11:50Z</time>
      </trkpt>
      <trkpt lat="48.74754" lon="-0.46789">
        <ele>244.4</ele>
        <time>2020-09-06T09:11:54Z</time>
      </trkpt>
      <trkpt lat="48.74755" lon="-0.46781">
        <ele>244.4</ele>
        <time>2020-09-06T09:11:55Z</time>
      </trkpt>
      <trkpt lat="48.74757" lon="-0.46764">
        <ele>244</ele>
        <time>2020-09-06T09:11:57Z</time>
      </trkpt>
      <trkpt lat="48.74757" lon="-0.46755">
        <ele>243.8</ele>
        <time>2020-09-06T09:11:58Z</time>
      </trkpt>
      <trkpt lat="48.74758" lon="-0.46736">
        <ele>243.2</ele>
        <time>2020-09-06T09:12:00Z</time>
      </trkpt>
      <trkpt lat="48.7476" lon="-0.46724">
        <ele>243</ele>
        <time>2020-09-06T09:12:02Z</time>
      </trkpt>
      <trkpt lat="48.7476" lon="-0.4672">
        <ele>242.8</ele>
        <time>2020-09-06T09:12:03Z</time>
      </trkpt>
      <trkpt lat="48.7476" lon="-0.46717">
        <ele>242.6</ele>
        <time>2020-09-06T09:12:04Z</time>
      </trkpt>
      <trkpt lat="48.74754" lon="-0.46731">
        <ele>238.8</ele>
        <time>2020-09-06T09:16:47Z</time>
      </trkpt>
      <trkpt lat="48.74758" lon="-0.46734">
        <ele>238.6</ele>
        <time>2020-09-06T09:16:50Z</time>
      </trkpt>
      <trkpt lat="48.74776" lon="-0.46737">
        <ele>238.6</ele>
        <time>2020-09-06T09:17:08Z</time>
      </trkpt>
      <trkpt lat="48.74775" lon="-0.46738">
        <ele>238.6</ele>
        <time>2020-09-06T09:17:12Z</time>
      </trkpt>
      <trkpt lat="48.7478" lon="-0.46689">
        <ele>234.2</ele>
        <time>2020-09-06T09:17:40Z</time>
      </trkpt>
      <trkpt lat="48.7478" lon="-0.46688">
        <ele>233.8</ele>
        <time>2020-09-06T09:17:41Z</time>
      </trkpt>
      <trkpt lat="48.74781" lon="-0.46687">
        <ele>233.2</ele>
        <time>2020-09-06T09:17:43Z</time>
      </trkpt>
      <trkpt lat="48.74782" lon="-0.46685">
        <ele>232.8</ele>
        <time>2020-09-06T09:17:44Z</time>
      </trkpt>
      <trkpt lat="48.74781" lon="-0.46689">
        <ele>232</ele>
        <time>2020-09-06T09:17:46Z</time>
      </trkpt>
      <trkpt lat="48.7478" lon="-0.46697">
        <ele>231.8</ele>
        <time>2020-09-06T09:17:47Z</time>
      </trkpt>
      <trkpt lat="48.74769" lon="-0.46711">
        <ele>233.6</ele>
        <time>2020-09-06T09:17:48Z</time>
      </trkpt>
      <trkpt lat="48.74762" lon="-0.46726">
        <ele>234.6</ele>
        <time>2020-09-06T09:17:51Z</time>
      </trkpt>
      <trkpt lat="48.74769" lon="-0.46732">
        <ele>235.8</ele>
        <time>2020-09-06T09:17:52Z</time>
      </trkpt>
      <trkpt lat="48.74778" lon="-0.46737">
        <ele>237.4</ele>
        <time>2020-09-06T09:17:53Z</time>
      </trkpt>
      <trkpt lat="48.74787" lon="-0.46752">
        <ele>237.6</ele>
        <time>2020-09-06T09:17:55Z</time>
      </trkpt>
      <trkpt lat="48.74789" lon="-0.46752">
        <ele>236.2</ele>
        <time>2020-09-06T09:17:56Z</time>
      </trkpt>
      <trkpt lat="48.74791" lon="-0.46754">
        <ele>234.4</ele>
        <time>2020-09-06T09:17:57Z</time>
      </trkpt>
      <trkpt lat="48.74793" lon="-0.46753">
        <ele>232.6</ele>
        <time>2020-09-06T09:17:58Z</time>
      </trkpt>
      <trkpt lat="48.74796" lon="-0.46753">
        <ele>230</ele>
        <time>2020-09-06T09:17:59Z</time>
      </trkpt>
      <trkpt lat="48.74797" lon="-0.46752">
        <ele>227.8</ele>
        <time>2020-09-06T09:18:00Z</time>
      </trkpt>
      <trkpt lat="48.74798" lon="-0.46753">
        <ele>225.2</ele>
        <time>2020-09-06T09:18:01Z</time>
      </trkpt>
      <trkpt lat="48.74799" lon="-0.46753">
        <ele>222.6</ele>
        <time>2020-09-06T09:18:02Z</time>
      </trkpt>
      <trkpt lat="48.74798" lon="-0.46751">
        <ele>219.6</ele>
        <time>2020-09-06T09:18:03Z</time>
      </trkpt>
      <trkpt lat="48.74797" lon="-0.46749">
        <ele>217.6</ele>
        <time>2020-09-06T09:18:04Z</time>
      </trkpt>
      <trkpt lat="48.74797" lon="-0.46748">
        <ele>216</ele>
        <time>2020-09-06T09:18:05Z</time>
      </trkpt>
      <trkpt lat="48.74796" lon="-0.46747">
        <ele>215</ele>
        <time>2020-09-06T09:18:06Z</time>
      </trkpt>
      <trkpt lat="48.74795" lon="-0.46746">
        <ele>214.2</ele>
        <time>2020-09-06T09:18:07Z</time>
      </trkpt>
      <trkpt lat="48.74764" lon="-0.46719">
        <ele>235.6</ele>
        <time>2020-09-06T09:45:23Z</time>
      </trkpt>
      <trkpt lat="48.74763" lon="-0.46724">
        <ele>236.2</ele>
        <time>2020-09-06T09:45:25Z</time>
      </trkpt>
      <trkpt lat="48.74763" lon="-0.46726">
        <ele>237.4</ele>
        <time>2020-09-06T09:45:26Z</time>
      </trkpt>
      <trkpt lat="48.74762" lon="-0.46729">
        <ele>237.8</ele>
        <time>2020-09-06T09:45:27Z</time>
      </trkpt>
      <trkpt lat="48.74761" lon="-0.46733">
        <ele>238.6</ele>
        <time>2020-09-06T09:45:28Z</time>
      </trkpt>
      <trkpt lat="48.7476" lon="-0.46742">
        <ele>240</ele>
        <time>2020-09-06T09:45:30Z</time>
      </trkpt>
      <trkpt lat="48.74759" lon="-0.46758">
        <ele>241</ele>
        <time>2020-09-06T09:45:33Z</time>
      </trkpt>
      <trkpt lat="48.74759" lon="-0.4677">
        <ele>241.8</ele>
        <time>2020-09-06T09:45:35Z</time>
      </trkpt>
      <trkpt lat="48.74759" lon="-0.46776">
        <ele>242.4</ele>
        <time>2020-09-06T09:45:36Z</time>
      </trkpt>
      <trkpt lat="48.74757" lon="-0.4679">
        <ele>243.6</ele>
        <time>2020-09-06T09:45:38Z</time>
      </trkpt>
      <trkpt lat="48.74754" lon="-0.46803">
        <ele>244.2</ele>
        <time>2020-09-06T09:45:40Z</time>
      </trkpt>
      <trkpt lat="48.74752" lon="-0.46809">
        <ele>244.4</ele>
        <time>2020-09-06T09:45:41Z</time>
      </trkpt>
      <trkpt lat="48.74748" lon="-0.46821">
        <ele>244.6</ele>
        <time>2020-09-06T09:45:43Z</time>
      </trkpt>
      <trkpt lat="48.74741" lon="-0.46837">
        <ele>245.6</ele>
        <time>2020-09-06T09:45:46Z</time>
      </trkpt>
      <trkpt lat="48.74739" lon="-0.46842">
        <ele>246</ele>
        <time>2020-09-06T09:45:47Z</time>
      </trkpt>
      <trkpt lat="48.74736" lon="-0.46847">
        <ele>246.2</ele>
        <time>2020-09-06T09:45:48Z</time>
      </trkpt>
      <trkpt lat="48.74721" lon="-0.46867">
        <ele>247</ele>
        <time>2020-09-06T09:45:53Z</time>
      </trkpt>
      <trkpt lat="48.74718" lon="-0.4687">
        <ele>247.2</ele>
        <time>2020-09-06T09:45:54Z</time>
      </trkpt>
      <trkpt lat="48.74701" lon="-0.4689">
        <ele>248.2</ele>
        <time>2020-09-06T09:46:00Z</time>
      </trkpt>
      <trkpt lat="48.74693" lon="-0.469">
        <ele>248.2</ele>
        <time>2020-09-06T09:46:03Z</time>
      </trkpt>
      <trkpt lat="48.74689" lon="-0.46908">
        <ele>248.6</ele>
        <time>2020-09-06T09:46:05Z</time>
      </trkpt>
      <trkpt lat="48.74689" lon="-0.46912">
        <ele>248.8</ele>
        <time>2020-09-06T09:46:06Z</time>
      </trkpt>
      <trkpt lat="48.74687" lon="-0.46933">
        <ele>249.2</ele>
        <time>2020-09-06T09:46:10Z</time>
      </trkpt>
      <trkpt lat="48.74687" lon="-0.46938">
        <ele>249.6</ele>
        <time>2020-09-06T09:46:11Z</time>
      </trkpt>
      <trkpt lat="48.74685" lon="-0.46957">
        <ele>250.2</ele>
        <time>2020-09-06T09:46:15Z</time>
      </trkpt>
      <trkpt lat="48.74685" lon="-0.46962">
        <ele>250.4</ele>
        <time>2020-09-06T09:46:16Z</time>
      </trkpt>
      <trkpt lat="48.74683" lon="-0.46986">
        <ele>251.6</ele>
        <time>2020-09-06T09:46:21Z</time>
      </trkpt>
      <trkpt lat="48.74683" lon="-0.46991">
        <ele>251.8</ele>
        <time>2020-09-06T09:46:22Z</time>
      </trkpt>
      <trkpt lat="48.74685" lon="-0.47008">
        <ele>252.2</ele>
        <time>2020-09-06T09:46:25Z</time>
      </trkpt>
      <trkpt lat="48.74684" lon="-0.47014">
        <ele>252.4</ele>
        <time>2020-09-06T09:46:26Z</time>
      </trkpt>
      <trkpt lat="48.74684" lon="-0.4702">
        <ele>252.6</ele>
        <time>2020-09-06T09:46:27Z</time>
      </trkpt>
      <trkpt lat="48.74687" lon="-0.47037">
        <ele>253.2</ele>
        <time>2020-09-06T09:46:30Z</time>
      </trkpt>
      <trkpt lat="48.74689" lon="-0.47047">
        <ele>253.4</ele>
        <time>2020-09-06T09:46:32Z</time>
      </trkpt>
      <trkpt lat="48.7469" lon="-0.47052">
        <ele>253.6</ele>
        <time>2020-09-06T09:46:33Z</time>
      </trkpt>
      <trkpt lat="48.74692" lon="-0.47053">
        <ele>253.8</ele>
        <time>2020-09-06T09:46:34Z</time>
      </trkpt>
      <trkpt lat="48.74694" lon="-0.47052">
        <ele>253.8</ele>
        <time>2020-09-06T09:46:35Z</time>
      </trkpt>
      <trkpt lat="48.74706" lon="-0.4705">
        <ele>254.6</ele>
        <time>2020-09-06T09:46:39Z</time>
      </trkpt>
      <trkpt lat="48.74708" lon="-0.47054">
        <ele>254.8</ele>
        <time>2020-09-06T09:46:40Z</time>
      </trkpt>
      <trkpt lat="48.74714" lon="-0.47074">
        <ele>255.2</ele>
        <time>2020-09-06T09:46:45Z</time>
      </trkpt>
      <trkpt lat="48.74718" lon="-0.47085">
        <ele>255</ele>
        <time>2020-09-06T09:46:48Z</time>
      </trkpt>
      <trkpt lat="48.74724" lon="-0.47099">
        <ele>254.8</ele>
        <time>2020-09-06T09:46:52Z</time>
      </trkpt>
      <trkpt lat="48.74733" lon="-0.47118">
        <ele>254.6</ele>
        <time>2020-09-06T09:46:57Z</time>
      </trkpt>
      <trkpt lat="48.74742" lon="-0.4714">
        <ele>255</ele>
        <time>2020-09-06T09:47:03Z</time>
      </trkpt>
      <trkpt lat="48.74745" lon="-0.47156">
        <ele>255</ele>
        <time>2020-09-06T09:47:08Z</time>
      </trkpt>
      <trkpt lat="48.74746" lon="-0.47158">
        <ele>255</ele>
        <time>2020-09-06T09:47:09Z</time>
      </trkpt>
      <trkpt lat="48.7475" lon="-0.47166">
        <ele>255.4</ele>
        <time>2020-09-06T09:47:12Z</time>
      </trkpt>
      <trkpt lat="48.74757" lon="-0.47187">
        <ele>255.8</ele>
        <time>2020-09-06T09:47:17Z</time>
      </trkpt>
      <trkpt lat="48.74763" lon="-0.47214">
        <ele>255.6</ele>
        <time>2020-09-06T09:47:24Z</time>
      </trkpt>
      <trkpt lat="48.74772" lon="-0.47241">
        <ele>255.8</ele>
        <time>2020-09-06T09:47:32Z</time>
      </trkpt>
      <trkpt lat="48.7478" lon="-0.47269">
        <ele>256.4</ele>
        <time>2020-09-06T09:47:39Z</time>
      </trkpt>
      <trkpt lat="48.74785" lon="-0.47295">
        <ele>256.8</ele>
        <time>2020-09-06T09:47:45Z</time>
      </trkpt>
      <trkpt lat="48.74787" lon="-0.47304">
        <ele>257.4</ele>
        <time>2020-09-06T09:47:47Z</time>
      </trkpt>
      <trkpt lat="48.74791" lon="-0.4733">
        <ele>258</ele>
        <time>2020-09-06T09:47:53Z</time>
      </trkpt>
      <trkpt lat="48.74793" lon="-0.47343">
        <ele>258.6</ele>
        <time>2020-09-06T09:47:56Z</time>
      </trkpt>
      <trkpt lat="48.74793" lon="-0.47356">
        <ele>259</ele>
        <time>2020-09-06T09:47:59Z</time>
      </trkpt>
      <trkpt lat="48.74793" lon="-0.47374">
        <ele>259.6</ele>
        <time>2020-09-06T09:48:03Z</time>
      </trkpt>
      <trkpt lat="48.74793" lon="-0.47388">
        <ele>260.4</ele>
        <time>2020-09-06T09:48:06Z</time>
      </trkpt>
      <trkpt lat="48.74792" lon="-0.47406">
        <ele>261.8</ele>
        <time>2020-09-06T09:48:10Z</time>
      </trkpt>
      <trkpt lat="48.74792" lon="-0.47411">
        <ele>261.8</ele>
        <time>2020-09-06T09:48:11Z</time>
      </trkpt>
      <trkpt lat="48.74791" lon="-0.47437">
        <ele>262.8</ele>
        <time>2020-09-06T09:48:17Z</time>
      </trkpt>
      <trkpt lat="48.74791" lon="-0.47441">
        <ele>263.2</ele>
        <time>2020-09-06T09:48:18Z</time>
      </trkpt>
      <trkpt lat="48.7479" lon="-0.47455">
        <ele>264</ele>
        <time>2020-09-06T09:48:21Z</time>
      </trkpt>
      <trkpt lat="48.74789" lon="-0.47474">
        <ele>264.4</ele>
        <time>2020-09-06T09:48:25Z</time>
      </trkpt>
      <trkpt lat="48.74788" lon="-0.47492">
        <ele>265.2</ele>
        <time>2020-09-06T09:48:29Z</time>
      </trkpt>
      <trkpt lat="48.74786" lon="-0.47508">
        <ele>266.2</ele>
        <time>2020-09-06T09:48:33Z</time>
      </trkpt>
      <trkpt lat="48.74786" lon="-0.47535">
        <ele>267.2</ele>
        <time>2020-09-06T09:48:39Z</time>
      </trkpt>
      <trkpt lat="48.74786" lon="-0.4754">
        <ele>267.6</ele>
        <time>2020-09-06T09:48:40Z</time>
      </trkpt>
      <trkpt lat="48.74782" lon="-0.47566">
        <ele>268.6</ele>
        <time>2020-09-06T09:48:46Z</time>
      </trkpt>
      <trkpt lat="48.74782" lon="-0.47571">
        <ele>268.6</ele>
        <time>2020-09-06T09:48:47Z</time>
      </trkpt>
      <trkpt lat="48.74778" lon="-0.47598">
        <ele>268.8</ele>
        <time>2020-09-06T09:48:53Z</time>
      </trkpt>
      <trkpt lat="48.74772" lon="-0.4764">
        <ele>268.2</ele>
        <time>2020-09-06T09:49:01Z</time>
      </trkpt>
      <trkpt lat="48.74769" lon="-0.47658">
        <ele>268</ele>
        <time>2020-09-06T09:49:04Z</time>
      </trkpt>
      <trkpt lat="48.74768" lon="-0.47678">
        <ele>267.2</ele>
        <time>2020-09-06T09:49:07Z</time>
      </trkpt>
      <trkpt lat="48.74767" lon="-0.47684">
        <ele>266.8</ele>
        <time>2020-09-06T09:49:08Z</time>
      </trkpt>
      <trkpt lat="48.74765" lon="-0.47698">
        <ele>266</ele>
        <time>2020-09-06T09:49:10Z</time>
      </trkpt>
      <trkpt lat="48.74765" lon="-0.47705">
        <ele>265.8</ele>
        <time>2020-09-06T09:49:11Z</time>
      </trkpt>
      <trkpt lat="48.74765" lon="-0.47712">
        <ele>265.6</ele>
        <time>2020-09-06T09:49:12Z</time>
      </trkpt>
      <trkpt lat="48.74764" lon="-0.47735">
        <ele>265</ele>
        <time>2020-09-06T09:49:15Z</time>
      </trkpt>
      <trkpt lat="48.74764" lon="-0.47775">
        <ele>263.8</ele>
        <time>2020-09-06T09:49:20Z</time>
      </trkpt>
      <trkpt lat="48.74763" lon="-0.47809">
        <ele>262.6</ele>
        <time>2020-09-06T09:49:24Z</time>
      </trkpt>
      <trkpt lat="48.7476" lon="-0.47843">
        <ele>261.4</ele>
        <time>2020-09-06T09:49:28Z</time>
      </trkpt>
      <trkpt lat="48.74756" lon="-0.47869">
        <ele>260.2</ele>
        <time>2020-09-06T09:49:31Z</time>
      </trkpt>
      <trkpt lat="48.74752" lon="-0.47898">
        <ele>259</ele>
        <time>2020-09-06T09:49:34Z</time>
      </trkpt>
      <trkpt lat="48.74745" lon="-0.4794">
        <ele>258</ele>
        <time>2020-09-06T09:49:38Z</time>
      </trkpt>
      <trkpt lat="48.7474" lon="-0.47984">
        <ele>256.6</ele>
        <time>2020-09-06T09:49:42Z</time>
      </trkpt>
      <trkpt lat="48.74736" lon="-0.48018">
        <ele>255.4</ele>
        <time>2020-09-06T09:49:45Z</time>
      </trkpt>
      <trkpt lat="48.74732" lon="-0.48038">
        <ele>255</ele>
        <time>2020-09-06T09:49:47Z</time>
      </trkpt>
      <trkpt lat="48.74728" lon="-0.48065">
        <ele>254.2</ele>
        <time>2020-09-06T09:49:50Z</time>
      </trkpt>
      <trkpt lat="48.74724" lon="-0.4809">
        <ele>253.4</ele>
        <time>2020-09-06T09:49:53Z</time>
      </trkpt>
      <trkpt lat="48.74722" lon="-0.48098">
        <ele>253.2</ele>
        <time>2020-09-06T09:49:54Z</time>
      </trkpt>
      <trkpt lat="48.74721" lon="-0.48106">
        <ele>253</ele>
        <time>2020-09-06T09:49:55Z</time>
      </trkpt>
      <trkpt lat="48.74723" lon="-0.48122">
        <ele>252.6</ele>
        <time>2020-09-06T09:49:57Z</time>
      </trkpt>
      <trkpt lat="48.74727" lon="-0.48135">
        <ele>252.6</ele>
        <time>2020-09-06T09:49:59Z</time>
      </trkpt>
      <trkpt lat="48.74733" lon="-0.4816">
        <ele>252.8</ele>
        <time>2020-09-06T09:50:03Z</time>
      </trkpt>
      <trkpt lat="48.74742" lon="-0.48191">
        <ele>253</ele>
        <time>2020-09-06T09:50:08Z</time>
      </trkpt>
      <trkpt lat="48.74746" lon="-0.48207">
        <ele>253.2</ele>
        <time>2020-09-06T09:50:11Z</time>
      </trkpt>
      <trkpt lat="48.74759" lon="-0.4825">
        <ele>254.2</ele>
        <time>2020-09-06T09:50:20Z</time>
      </trkpt>
      <trkpt lat="48.7476" lon="-0.48253">
        <ele>254.2</ele>
        <time>2020-09-06T09:51:08Z</time>
      </trkpt>
      <trkpt lat="48.7476" lon="-0.48263">
        <ele>254.6</ele>
        <time>2020-09-06T09:51:15Z</time>
      </trkpt>
      <trkpt lat="48.7476" lon="-0.48273">
        <ele>255</ele>
        <time>2020-09-06T09:51:20Z</time>
      </trkpt>
      <trkpt lat="48.74762" lon="-0.48277">
        <ele>255</ele>
        <time>2020-09-06T09:51:22Z</time>
      </trkpt>
      <trkpt lat="48.74765" lon="-0.48289">
        <ele>254.8</ele>
        <time>2020-09-06T09:51:28Z</time>
      </trkpt>
      <trkpt lat="48.74767" lon="-0.48297">
        <ele>254.6</ele>
        <time>2020-09-06T09:51:32Z</time>
      </trkpt>
      <trkpt lat="48.7477" lon="-0.48308">
        <ele>254.2</ele>
        <time>2020-09-06T09:51:37Z</time>
      </trkpt>
      <trkpt lat="48.7477" lon="-0.48311">
        <ele>254</ele>
        <time>2020-09-06T09:51:38Z</time>
      </trkpt>
      <trkpt lat="48.74772" lon="-0.48323">
        <ele>253.8</ele>
        <time>2020-09-06T09:51:43Z</time>
      </trkpt>
      <trkpt lat="48.74773" lon="-0.48325">
        <ele>253.8</ele>
        <time>2020-09-06T09:51:44Z</time>
      </trkpt>
      <trkpt lat="48.74777" lon="-0.48338">
        <ele>253</ele>
        <time>2020-09-06T09:51:50Z</time>
      </trkpt>
      <trkpt lat="48.74779" lon="-0.48354">
        <ele>252.8</ele>
        <time>2020-09-06T09:51:57Z</time>
      </trkpt>
      <trkpt lat="48.74782" lon="-0.48365">
        <ele>252.2</ele>
        <time>2020-09-06T09:52:03Z</time>
      </trkpt>
      <trkpt lat="48.74781" lon="-0.48367">
        <ele>252.2</ele>
        <time>2020-09-06T09:52:04Z</time>
      </trkpt>
      <trkpt lat="48.74784" lon="-0.4838">
        <ele>252.2</ele>
        <time>2020-09-06T09:52:10Z</time>
      </trkpt>
      <trkpt lat="48.74787" lon="-0.48384">
        <ele>252</ele>
        <time>2020-09-06T09:52:13Z</time>
      </trkpt>
      <trkpt lat="48.7479" lon="-0.48392">
        <ele>252</ele>
        <time>2020-09-06T09:52:16Z</time>
      </trkpt>
      <trkpt lat="48.7479" lon="-0.48395">
        <ele>252</ele>
        <time>2020-09-06T09:52:17Z</time>
      </trkpt>
      <trkpt lat="48.74795" lon="-0.48419">
        <ele>251.8</ele>
        <time>2020-09-06T09:52:24Z</time>
      </trkpt>
      <trkpt lat="48.74799" lon="-0.48438">
        <ele>252</ele>
        <time>2020-09-06T09:52:30Z</time>
      </trkpt>
      <trkpt lat="48.74801" lon="-0.48453">
        <ele>251.4</ele>
        <time>2020-09-06T09:52:37Z</time>
      </trkpt>
      <trkpt lat="48.74801" lon="-0.48459">
        <ele>251.6</ele>
        <time>2020-09-06T09:52:40Z</time>
      </trkpt>
      <trkpt lat="48.74803" lon="-0.48463">
        <ele>251.6</ele>
        <time>2020-09-06T09:52:42Z</time>
      </trkpt>
      <trkpt lat="48.74805" lon="-0.48476">
        <ele>251.2</ele>
        <time>2020-09-06T09:52:47Z</time>
      </trkpt>
      <trkpt lat="48.74805" lon="-0.4848">
        <ele>251</ele>
        <time>2020-09-06T09:52:48Z</time>
      </trkpt>
      <trkpt lat="48.74809" lon="-0.48496">
        <ele>252.2</ele>
        <time>2020-09-06T09:52:54Z</time>
      </trkpt>
      <trkpt lat="48.74813" lon="-0.48513">
        <ele>252.6</ele>
        <time>2020-09-06T09:53:00Z</time>
      </trkpt>
      <trkpt lat="48.74823" lon="-0.48548">
        <ele>252.6</ele>
        <time>2020-09-06T09:53:07Z</time>
      </trkpt>
      <trkpt lat="48.74838" lon="-0.48578">
        <ele>252</ele>
        <time>2020-09-06T09:53:14Z</time>
      </trkpt>
      <trkpt lat="48.74859" lon="-0.48606">
        <ele>251</ele>
        <time>2020-09-06T09:53:21Z</time>
      </trkpt>
      <trkpt lat="48.7489" lon="-0.4863">
        <ele>250</ele>
        <time>2020-09-06T09:53:28Z</time>
      </trkpt>
      <trkpt lat="48.74899" lon="-0.48639">
        <ele>249.8</ele>
        <time>2020-09-06T09:53:30Z</time>
      </trkpt>
      <trkpt lat="48.74903" lon="-0.48645">
        <ele>249.6</ele>
        <time>2020-09-06T09:53:31Z</time>
      </trkpt>
      <trkpt lat="48.7491" lon="-0.4866">
        <ele>249</ele>
        <time>2020-09-06T09:53:33Z</time>
      </trkpt>
      <trkpt lat="48.74912" lon="-0.48669">
        <ele>248.8</ele>
        <time>2020-09-06T09:53:34Z</time>
      </trkpt>
      <trkpt lat="48.74916" lon="-0.48698">
        <ele>247.8</ele>
        <time>2020-09-06T09:53:37Z</time>
      </trkpt>
      <trkpt lat="48.74915" lon="-0.48709">
        <ele>247.4</ele>
        <time>2020-09-06T09:53:38Z</time>
      </trkpt>
      <trkpt lat="48.74911" lon="-0.4873">
        <ele>246.8</ele>
        <time>2020-09-06T09:53:40Z</time>
      </trkpt>
      <trkpt lat="48.74909" lon="-0.4874">
        <ele>246.6</ele>
        <time>2020-09-06T09:53:41Z</time>
      </trkpt>
      <trkpt lat="48.74908" lon="-0.4875">
        <ele>246.4</ele>
        <time>2020-09-06T09:53:42Z</time>
      </trkpt>
      <trkpt lat="48.74909" lon="-0.4876">
        <ele>246.4</ele>
        <time>2020-09-06T09:53:43Z</time>
      </trkpt>
      <trkpt lat="48.74911" lon="-0.48769">
        <ele>246</ele>
        <time>2020-09-06T09:53:44Z</time>
      </trkpt>
      <trkpt lat="48.74924" lon="-0.4879">
        <ele>245.4</ele>
        <time>2020-09-06T09:53:47Z</time>
      </trkpt>
      <trkpt lat="48.74929" lon="-0.48795">
        <ele>245.2</ele>
        <time>2020-09-06T09:53:48Z</time>
      </trkpt>
      <trkpt lat="48.74938" lon="-0.48805">
        <ele>245</ele>
        <time>2020-09-06T09:53:50Z</time>
      </trkpt>
      <trkpt lat="48.74944" lon="-0.48816">
        <ele>245</ele>
        <time>2020-09-06T09:53:52Z</time>
      </trkpt>
      <trkpt lat="48.74953" lon="-0.48848">
        <ele>245.2</ele>
        <time>2020-09-06T09:53:57Z</time>
      </trkpt>
      <trkpt lat="48.74952" lon="-0.48875">
        <ele>245.2</ele>
        <time>2020-09-06T09:54:01Z</time>
      </trkpt>
      <trkpt lat="48.74951" lon="-0.48882">
        <ele>245.2</ele>
        <time>2020-09-06T09:54:02Z</time>
      </trkpt>
      <trkpt lat="48.74949" lon="-0.48888">
        <ele>245.4</ele>
        <time>2020-09-06T09:54:03Z</time>
      </trkpt>
      <trkpt lat="48.74941" lon="-0.48906">
        <ele>245.8</ele>
        <time>2020-09-06T09:54:06Z</time>
      </trkpt>
      <trkpt lat="48.74933" lon="-0.48924">
        <ele>246</ele>
        <time>2020-09-06T09:54:09Z</time>
      </trkpt>
      <trkpt lat="48.74911" lon="-0.48974">
        <ele>245.4</ele>
        <time>2020-09-06T09:54:17Z</time>
      </trkpt>
      <trkpt lat="48.74898" lon="-0.49021">
        <ele>244.4</ele>
        <time>2020-09-06T09:54:24Z</time>
      </trkpt>
      <trkpt lat="48.74891" lon="-0.49063">
        <ele>244.4</ele>
        <time>2020-09-06T09:54:30Z</time>
      </trkpt>
      <trkpt lat="48.7489" lon="-0.4907">
        <ele>244.4</ele>
        <time>2020-09-06T09:54:31Z</time>
      </trkpt>
      <trkpt lat="48.7489" lon="-0.49122">
        <ele>244.8</ele>
        <time>2020-09-06T09:54:39Z</time>
      </trkpt>
      <trkpt lat="48.74895" lon="-0.49169">
        <ele>245.4</ele>
        <time>2020-09-06T09:54:47Z</time>
      </trkpt>
      <trkpt lat="48.74901" lon="-0.49209">
        <ele>246.4</ele>
        <time>2020-09-06T09:54:54Z</time>
      </trkpt>
      <trkpt lat="48.74903" lon="-0.4922">
        <ele>246.6</ele>
        <time>2020-09-06T09:54:56Z</time>
      </trkpt>
      <trkpt lat="48.74909" lon="-0.49255">
        <ele>247.4</ele>
        <time>2020-09-06T09:55:02Z</time>
      </trkpt>
      <trkpt lat="48.74913" lon="-0.49286">
        <ele>248</ele>
        <time>2020-09-06T09:55:07Z</time>
      </trkpt>
      <trkpt lat="48.74916" lon="-0.49303">
        <ele>248.6</ele>
        <time>2020-09-06T09:55:10Z</time>
      </trkpt>
      <trkpt lat="48.74923" lon="-0.49345">
        <ele>249.2</ele>
        <time>2020-09-06T09:55:17Z</time>
      </trkpt>
      <trkpt lat="48.74926" lon="-0.49367">
        <ele>249.6</ele>
        <time>2020-09-06T09:55:21Z</time>
      </trkpt>
      <trkpt lat="48.74932" lon="-0.49403">
        <ele>250.2</ele>
        <time>2020-09-06T09:55:27Z</time>
      </trkpt>
      <trkpt lat="48.74937" lon="-0.49437">
        <ele>250.8</ele>
        <time>2020-09-06T09:55:33Z</time>
      </trkpt>
      <trkpt lat="48.74939" lon="-0.49448">
        <ele>251</ele>
        <time>2020-09-06T09:55:35Z</time>
      </trkpt>
      <trkpt lat="48.74946" lon="-0.49487">
        <ele>251.6</ele>
        <time>2020-09-06T09:55:42Z</time>
      </trkpt>
      <trkpt lat="48.74948" lon="-0.49504">
        <ele>252</ele>
        <time>2020-09-06T09:55:45Z</time>
      </trkpt>
      <trkpt lat="48.74954" lon="-0.49541">
        <ele>253</ele>
        <time>2020-09-06T09:55:52Z</time>
      </trkpt>
      <trkpt lat="48.74955" lon="-0.49547">
        <ele>253</ele>
        <time>2020-09-06T09:55:53Z</time>
      </trkpt>
      <trkpt lat="48.7496" lon="-0.49578">
        <ele>253.4</ele>
        <time>2020-09-06T09:55:59Z</time>
      </trkpt>
      <trkpt lat="48.74966" lon="-0.49614">
        <ele>254.2</ele>
        <time>2020-09-06T09:56:06Z</time>
      </trkpt>
      <trkpt lat="48.74968" lon="-0.49624">
        <ele>254.4</ele>
        <time>2020-09-06T09:56:08Z</time>
      </trkpt>
      <trkpt lat="48.74976" lon="-0.49662">
        <ele>255.2</ele>
        <time>2020-09-06T09:56:16Z</time>
      </trkpt>
      <trkpt lat="48.74989" lon="-0.49679">
        <ele>256</ele>
        <time>2020-09-06T09:56:21Z</time>
      </trkpt>
      <trkpt lat="48.74995" lon="-0.49683">
        <ele>256.4</ele>
        <time>2020-09-06T09:56:23Z</time>
      </trkpt>
      <trkpt lat="48.75006" lon="-0.49688">
        <ele>257.4</ele>
        <time>2020-09-06T09:56:27Z</time>
      </trkpt>
      <trkpt lat="48.75009" lon="-0.4969">
        <ele>257.8</ele>
        <time>2020-09-06T09:56:28Z</time>
      </trkpt>
      <trkpt lat="48.75024" lon="-0.49692">
        <ele>258.6</ele>
        <time>2020-09-06T09:56:33Z</time>
      </trkpt>
      <trkpt lat="48.7503" lon="-0.49693">
        <ele>258.8</ele>
        <time>2020-09-06T09:56:35Z</time>
      </trkpt>
      <trkpt lat="48.7505" lon="-0.49703">
        <ele>259.2</ele>
        <time>2020-09-06T09:56:42Z</time>
      </trkpt>
      <trkpt lat="48.75058" lon="-0.49722">
        <ele>259</ele>
        <time>2020-09-06T09:56:46Z</time>
      </trkpt>
      <trkpt lat="48.75061" lon="-0.49734">
        <ele>259</ele>
        <time>2020-09-06T09:56:48Z</time>
      </trkpt>
      <trkpt lat="48.75061" lon="-0.49763">
        <ele>258.8</ele>
        <time>2020-09-06T09:56:53Z</time>
      </trkpt>
      <trkpt lat="48.7506" lon="-0.49769">
        <ele>258.8</ele>
        <time>2020-09-06T09:56:54Z</time>
      </trkpt>
      <trkpt lat="48.75053" lon="-0.49794">
        <ele>258.8</ele>
        <time>2020-09-06T09:56:59Z</time>
      </trkpt>
      <trkpt lat="48.75035" lon="-0.49835">
        <ele>259.4</ele>
        <time>2020-09-06T09:57:09Z</time>
      </trkpt>
      <trkpt lat="48.75033" lon="-0.49838">
        <ele>259.6</ele>
        <time>2020-09-06T09:57:10Z</time>
      </trkpt>
      <trkpt lat="48.75025" lon="-0.49863">
        <ele>260.6</ele>
        <time>2020-09-06T09:57:16Z</time>
      </trkpt>
      <trkpt lat="48.75019" lon="-0.49891">
        <ele>261.2</ele>
        <time>2020-09-06T09:57:22Z</time>
      </trkpt>
      <trkpt lat="48.75017" lon="-0.49911">
        <ele>261.6</ele>
        <time>2020-09-06T09:57:26Z</time>
      </trkpt>
      <trkpt lat="48.75017" lon="-0.49931">
        <ele>262</ele>
        <time>2020-09-06T09:57:30Z</time>
      </trkpt>
      <trkpt lat="48.75021" lon="-0.49972">
        <ele>262</ele>
        <time>2020-09-06T09:57:38Z</time>
      </trkpt>
      <trkpt lat="48.75029" lon="-0.50017">
        <ele>262.6</ele>
        <time>2020-09-06T09:57:46Z</time>
      </trkpt>
      <trkpt lat="48.75032" lon="-0.50034">
        <ele>262.6</ele>
        <time>2020-09-06T09:57:49Z</time>
      </trkpt>
      <trkpt lat="48.75037" lon="-0.50069">
        <ele>263</ele>
        <time>2020-09-06T09:57:55Z</time>
      </trkpt>
      <trkpt lat="48.75047" lon="-0.50114">
        <ele>263.2</ele>
        <time>2020-09-06T09:58:03Z</time>
      </trkpt>
      <trkpt lat="48.7505" lon="-0.50134">
        <ele>264</ele>
        <time>2020-09-06T09:58:06Z</time>
      </trkpt>
      <trkpt lat="48.75058" lon="-0.50165">
        <ele>264.4</ele>
        <time>2020-09-06T09:58:11Z</time>
      </trkpt>
      <trkpt lat="48.75068" lon="-0.50206">
        <ele>265</ele>
        <time>2020-09-06T09:58:18Z</time>
      </trkpt>
      <trkpt lat="48.75071" lon="-0.50218">
        <ele>265.2</ele>
        <time>2020-09-06T09:58:20Z</time>
      </trkpt>
      <trkpt lat="48.7508" lon="-0.50258">
        <ele>266</ele>
        <time>2020-09-06T09:58:27Z</time>
      </trkpt>
      <trkpt lat="48.75089" lon="-0.50292">
        <ele>266.4</ele>
        <time>2020-09-06T09:58:33Z</time>
      </trkpt>
      <trkpt lat="48.75101" lon="-0.50343">
        <ele>267.2</ele>
        <time>2020-09-06T09:58:42Z</time>
      </trkpt>
      <trkpt lat="48.75114" lon="-0.50407">
        <ele>267.2</ele>
        <time>2020-09-06T09:58:53Z</time>
      </trkpt>
      <trkpt lat="48.75124" lon="-0.50468">
        <ele>266.4</ele>
        <time>2020-09-06T09:59:03Z</time>
      </trkpt>
      <trkpt lat="48.75131" lon="-0.50508">
        <ele>266.4</ele>
        <time>2020-09-06T09:59:10Z</time>
      </trkpt>
      <trkpt lat="48.75134" lon="-0.50532">
        <ele>266</ele>
        <time>2020-09-06T09:59:14Z</time>
      </trkpt>
      <trkpt lat="48.75137" lon="-0.50551">
        <ele>265.8</ele>
        <time>2020-09-06T09:59:17Z</time>
      </trkpt>
      <trkpt lat="48.75138" lon="-0.50557">
        <ele>265.8</ele>
        <time>2020-09-06T09:59:18Z</time>
      </trkpt>
      <trkpt lat="48.75139" lon="-0.50563">
        <ele>265.8</ele>
        <time>2020-09-06T09:59:19Z</time>
      </trkpt>
      <trkpt lat="48.75143" lon="-0.50581">
        <ele>265.8</ele>
        <time>2020-09-06T09:59:22Z</time>
      </trkpt>
      <trkpt lat="48.75144" lon="-0.50593">
        <ele>265.4</ele>
        <time>2020-09-06T09:59:24Z</time>
      </trkpt>
      <trkpt lat="48.75149" lon="-0.50618">
        <ele>265</ele>
        <time>2020-09-06T09:59:28Z</time>
      </trkpt>
      <trkpt lat="48.75152" lon="-0.50642">
        <ele>265</ele>
        <time>2020-09-06T09:59:32Z</time>
      </trkpt>
      <trkpt lat="48.75156" lon="-0.5066">
        <ele>264</ele>
        <time>2020-09-06T09:59:35Z</time>
      </trkpt>
      <trkpt lat="48.75162" lon="-0.50698">
        <ele>263</ele>
        <time>2020-09-06T09:59:41Z</time>
      </trkpt>
      <trkpt lat="48.7517" lon="-0.50735">
        <ele>261.8</ele>
        <time>2020-09-06T09:59:47Z</time>
      </trkpt>
      <trkpt lat="48.75172" lon="-0.50748">
        <ele>261.6</ele>
        <time>2020-09-06T09:59:49Z</time>
      </trkpt>
      <trkpt lat="48.75182" lon="-0.50796">
        <ele>261.2</ele>
        <time>2020-09-06T09:59:57Z</time>
      </trkpt>
      <trkpt lat="48.75188" lon="-0.5082">
        <ele>260.8</ele>
        <time>2020-09-06T10:00:01Z</time>
      </trkpt>
      <trkpt lat="48.75195" lon="-0.50844">
        <ele>260.6</ele>
        <time>2020-09-06T10:00:05Z</time>
      </trkpt>
      <trkpt lat="48.75201" lon="-0.50871">
        <ele>259.8</ele>
        <time>2020-09-06T10:00:09Z</time>
      </trkpt>
      <trkpt lat="48.75213" lon="-0.50911">
        <ele>259</ele>
        <time>2020-09-06T10:00:15Z</time>
      </trkpt>
      <trkpt lat="48.75217" lon="-0.50925">
        <ele>258.6</ele>
        <time>2020-09-06T10:00:17Z</time>
      </trkpt>
      <trkpt lat="48.75227" lon="-0.50968">
        <ele>257.6</ele>
        <time>2020-09-06T10:00:23Z</time>
      </trkpt>
      <trkpt lat="48.75229" lon="-0.50975">
        <ele>257.4</ele>
        <time>2020-09-06T10:00:24Z</time>
      </trkpt>
      <trkpt lat="48.75241" lon="-0.51017">
        <ele>256.8</ele>
        <time>2020-09-06T10:00:30Z</time>
      </trkpt>
      <trkpt lat="48.75248" lon="-0.51045">
        <ele>256.6</ele>
        <time>2020-09-06T10:00:34Z</time>
      </trkpt>
      <trkpt lat="48.75256" lon="-0.51074">
        <ele>256.4</ele>
        <time>2020-09-06T10:00:38Z</time>
      </trkpt>
      <trkpt lat="48.75266" lon="-0.51125">
        <ele>256.2</ele>
        <time>2020-09-06T10:00:45Z</time>
      </trkpt>
      <trkpt lat="48.75274" lon="-0.51191">
        <ele>256.2</ele>
        <time>2020-09-06T10:00:54Z</time>
      </trkpt>
      <trkpt lat="48.75279" lon="-0.51248">
        <ele>255.8</ele>
        <time>2020-09-06T10:01:02Z</time>
      </trkpt>
      <trkpt lat="48.75281" lon="-0.51269">
        <ele>255.6</ele>
        <time>2020-09-06T10:01:05Z</time>
      </trkpt>
      <trkpt lat="48.75287" lon="-0.51305">
        <ele>255.6</ele>
        <time>2020-09-06T10:01:10Z</time>
      </trkpt>
      <trkpt lat="48.75301" lon="-0.51379">
        <ele>254.8</ele>
        <time>2020-09-06T10:01:20Z</time>
      </trkpt>
      <trkpt lat="48.75308" lon="-0.51415">
        <ele>254.4</ele>
        <time>2020-09-06T10:01:25Z</time>
      </trkpt>
      <trkpt lat="48.75317" lon="-0.51449">
        <ele>254</ele>
        <time>2020-09-06T10:01:30Z</time>
      </trkpt>
      <trkpt lat="48.75326" lon="-0.51487">
        <ele>253.6</ele>
        <time>2020-09-06T10:01:36Z</time>
      </trkpt>
      <trkpt lat="48.75328" lon="-0.51493">
        <ele>253.6</ele>
        <time>2020-09-06T10:01:37Z</time>
      </trkpt>
      <trkpt lat="48.75333" lon="-0.51503">
        <ele>253.8</ele>
        <time>2020-09-06T10:01:39Z</time>
      </trkpt>
      <trkpt lat="48.75345" lon="-0.5152">
        <ele>254.2</ele>
        <time>2020-09-06T10:01:43Z</time>
      </trkpt>
      <trkpt lat="48.75349" lon="-0.51524">
        <ele>254.2</ele>
        <time>2020-09-06T10:01:44Z</time>
      </trkpt>
      <trkpt lat="48.75361" lon="-0.51533">
        <ele>254.4</ele>
        <time>2020-09-06T10:01:47Z</time>
      </trkpt>
      <trkpt lat="48.75365" lon="-0.51535">
        <ele>254.4</ele>
        <time>2020-09-06T10:01:48Z</time>
      </trkpt>
      <trkpt lat="48.75398" lon="-0.51555">
        <ele>255.4</ele>
        <time>2020-09-06T10:01:55Z</time>
      </trkpt>
      <trkpt lat="48.75416" lon="-0.51572">
        <ele>256</ele>
        <time>2020-09-06T10:01:59Z</time>
      </trkpt>
      <trkpt lat="48.75419" lon="-0.51578">
        <ele>256.2</ele>
        <time>2020-09-06T10:02:00Z</time>
      </trkpt>
      <trkpt lat="48.75424" lon="-0.51591">
        <ele>256.4</ele>
        <time>2020-09-06T10:02:02Z</time>
      </trkpt>
      <trkpt lat="48.75428" lon="-0.51613">
        <ele>256.8</ele>
        <time>2020-09-06T10:02:05Z</time>
      </trkpt>
      <trkpt lat="48.75424" lon="-0.5165">
        <ele>257</ele>
        <time>2020-09-06T10:02:10Z</time>
      </trkpt>
      <trkpt lat="48.75414" lon="-0.51674">
        <ele>257.6</ele>
        <time>2020-09-06T10:02:14Z</time>
      </trkpt>
      <trkpt lat="48.75412" lon="-0.5168">
        <ele>257.6</ele>
        <time>2020-09-06T10:02:15Z</time>
      </trkpt>
      <trkpt lat="48.75391" lon="-0.5173">
        <ele>258.6</ele>
        <time>2020-09-06T10:02:23Z</time>
      </trkpt>
      <trkpt lat="48.75389" lon="-0.51736">
        <ele>258.6</ele>
        <time>2020-09-06T10:02:24Z</time>
      </trkpt>
      <trkpt lat="48.75383" lon="-0.51784">
        <ele>259</ele>
        <time>2020-09-06T10:02:31Z</time>
      </trkpt>
      <trkpt lat="48.75386" lon="-0.51812">
        <ele>259.6</ele>
        <time>2020-09-06T10:02:35Z</time>
      </trkpt>
      <trkpt lat="48.75388" lon="-0.51826">
        <ele>259.8</ele>
        <time>2020-09-06T10:02:37Z</time>
      </trkpt>
      <trkpt lat="48.754" lon="-0.51872">
        <ele>260.2</ele>
        <time>2020-09-06T10:02:43Z</time>
      </trkpt>
      <trkpt lat="48.75404" lon="-0.51889">
        <ele>260.6</ele>
        <time>2020-09-06T10:02:45Z</time>
      </trkpt>
      <trkpt lat="48.75418" lon="-0.51938">
        <ele>260.8</ele>
        <time>2020-09-06T10:02:51Z</time>
      </trkpt>
      <trkpt lat="48.75437" lon="-0.5201">
        <ele>261.2</ele>
        <time>2020-09-06T10:03:00Z</time>
      </trkpt>
      <trkpt lat="48.75452" lon="-0.52086">
        <ele>261.4</ele>
        <time>2020-09-06T10:03:09Z</time>
      </trkpt>
      <trkpt lat="48.75459" lon="-0.52137">
        <ele>261</ele>
        <time>2020-09-06T10:03:16Z</time>
      </trkpt>
      <trkpt lat="48.75453" lon="-0.52173">
        <ele>261</ele>
        <time>2020-09-06T10:03:21Z</time>
      </trkpt>
      <trkpt lat="48.75443" lon="-0.52188">
        <ele>261.2</ele>
        <time>2020-09-06T10:03:24Z</time>
      </trkpt>
      <trkpt lat="48.7544" lon="-0.52193">
        <ele>261.4</ele>
        <time>2020-09-06T10:03:25Z</time>
      </trkpt>
      <trkpt lat="48.75431" lon="-0.52208">
        <ele>261.8</ele>
        <time>2020-09-06T10:03:28Z</time>
      </trkpt>
      <trkpt lat="48.75428" lon="-0.52213">
        <ele>262</ele>
        <time>2020-09-06T10:03:29Z</time>
      </trkpt>
      <trkpt lat="48.75426" lon="-0.52226">
        <ele>262.2</ele>
        <time>2020-09-06T10:03:31Z</time>
      </trkpt>
      <trkpt lat="48.75424" lon="-0.52239">
        <ele>262.2</ele>
        <time>2020-09-06T10:03:33Z</time>
      </trkpt>
      <trkpt lat="48.75415" lon="-0.52266">
        <ele>262.2</ele>
        <time>2020-09-06T10:03:37Z</time>
      </trkpt>
      <trkpt lat="48.75413" lon="-0.5228">
        <ele>262.2</ele>
        <time>2020-09-06T10:03:39Z</time>
      </trkpt>
      <trkpt lat="48.75413" lon="-0.52294">
        <ele>262.6</ele>
        <time>2020-09-06T10:03:41Z</time>
      </trkpt>
      <trkpt lat="48.75415" lon="-0.52308">
        <ele>262.4</ele>
        <time>2020-09-06T10:03:43Z</time>
      </trkpt>
      <trkpt lat="48.7542" lon="-0.52335">
        <ele>262.6</ele>
        <time>2020-09-06T10:03:47Z</time>
      </trkpt>
      <trkpt lat="48.75426" lon="-0.52354">
        <ele>262.8</ele>
        <time>2020-09-06T10:03:50Z</time>
      </trkpt>
      <trkpt lat="48.75436" lon="-0.5239">
        <ele>263</ele>
        <time>2020-09-06T10:03:56Z</time>
      </trkpt>
      <trkpt lat="48.75452" lon="-0.5244">
        <ele>263.2</ele>
        <time>2020-09-06T10:04:05Z</time>
      </trkpt>
      <trkpt lat="48.75471" lon="-0.52475">
        <ele>263.2</ele>
        <time>2020-09-06T10:04:13Z</time>
      </trkpt>
      <trkpt lat="48.75478" lon="-0.52481">
        <ele>263.4</ele>
        <time>2020-09-06T10:04:15Z</time>
      </trkpt>
      <trkpt lat="48.75485" lon="-0.52498">
        <ele>263.4</ele>
        <time>2020-09-06T10:04:18Z</time>
      </trkpt>
      <trkpt lat="48.75482" lon="-0.52524">
        <ele>263.6</ele>
        <time>2020-09-06T10:04:22Z</time>
      </trkpt>
      <trkpt lat="48.75482" lon="-0.52538">
        <ele>264</ele>
        <time>2020-09-06T10:04:24Z</time>
      </trkpt>
      <trkpt lat="48.75486" lon="-0.52551">
        <ele>264.2</ele>
        <time>2020-09-06T10:04:26Z</time>
      </trkpt>
      <trkpt lat="48.75488" lon="-0.52558">
        <ele>264.2</ele>
        <time>2020-09-06T10:04:27Z</time>
      </trkpt>
      <trkpt lat="48.75498" lon="-0.52598">
        <ele>265.2</ele>
        <time>2020-09-06T10:04:33Z</time>
      </trkpt>
      <trkpt lat="48.75502" lon="-0.52611">
        <ele>265.4</ele>
        <time>2020-09-06T10:04:35Z</time>
      </trkpt>
      <trkpt lat="48.75516" lon="-0.52661">
        <ele>265.6</ele>
        <time>2020-09-06T10:04:42Z</time>
      </trkpt>
      <trkpt lat="48.7553" lon="-0.52713">
        <ele>265.4</ele>
        <time>2020-09-06T10:04:49Z</time>
      </trkpt>
      <trkpt lat="48.75535" lon="-0.52728">
        <ele>265.2</ele>
        <time>2020-09-06T10:04:51Z</time>
      </trkpt>
      <trkpt lat="48.75542" lon="-0.52752">
        <ele>265.2</ele>
        <time>2020-09-06T10:04:54Z</time>
      </trkpt>
      <trkpt lat="48.75558" lon="-0.52814">
        <ele>265.2</ele>
        <time>2020-09-06T10:05:02Z</time>
      </trkpt>
      <trkpt lat="48.75565" lon="-0.52834">
        <ele>265.2</ele>
        <time>2020-09-06T10:05:05Z</time>
      </trkpt>
      <trkpt lat="48.75573" lon="-0.52843">
        <ele>265.4</ele>
        <time>2020-09-06T10:05:07Z</time>
      </trkpt>
      <trkpt lat="48.7558" lon="-0.5285">
        <ele>265.4</ele>
        <time>2020-09-06T10:05:09Z</time>
      </trkpt>
      <trkpt lat="48.75594" lon="-0.5286">
        <ele>265.6</ele>
        <time>2020-09-06T10:05:13Z</time>
      </trkpt>
      <trkpt lat="48.75601" lon="-0.52868">
        <ele>266.2</ele>
        <time>2020-09-06T10:05:17Z</time>
      </trkpt>
      <trkpt lat="48.75607" lon="-0.5287">
        <ele>266.2</ele>
        <time>2020-09-06T10:05:20Z</time>
      </trkpt>
      <trkpt lat="48.75609" lon="-0.52872">
        <ele>266.2</ele>
        <time>2020-09-06T10:05:21Z</time>
      </trkpt>
      <trkpt lat="48.75623" lon="-0.52882">
        <ele>266.8</ele>
        <time>2020-09-06T10:05:28Z</time>
      </trkpt>
      <trkpt lat="48.75628" lon="-0.52885">
        <ele>267.2</ele>
        <time>2020-09-06T10:05:31Z</time>
      </trkpt>
      <trkpt lat="48.75634" lon="-0.5289">
        <ele>267.6</ele>
        <time>2020-09-06T10:05:34Z</time>
      </trkpt>
      <trkpt lat="48.75642" lon="-0.52894">
        <ele>268.2</ele>
        <time>2020-09-06T10:05:38Z</time>
      </trkpt>
      <trkpt lat="48.75645" lon="-0.52897">
        <ele>268.4</ele>
        <time>2020-09-06T10:05:40Z</time>
      </trkpt>
      <trkpt lat="48.75657" lon="-0.52912">
        <ele>268.8</ele>
        <time>2020-09-06T10:05:47Z</time>
      </trkpt>
      <trkpt lat="48.75672" lon="-0.52933">
        <ele>268.8</ele>
        <time>2020-09-06T10:05:56Z</time>
      </trkpt>
      <trkpt lat="48.75687" lon="-0.52954">
        <ele>268.4</ele>
        <time>2020-09-06T10:06:04Z</time>
      </trkpt>
      <trkpt lat="48.75704" lon="-0.52979">
        <ele>269.2</ele>
        <time>2020-09-06T10:06:12Z</time>
      </trkpt>
      <trkpt lat="48.75707" lon="-0.52982">
        <ele>269.4</ele>
        <time>2020-09-06T10:06:13Z</time>
      </trkpt>
      <trkpt lat="48.75721" lon="-0.53001">
        <ele>269.8</ele>
        <time>2020-09-06T10:06:20Z</time>
      </trkpt>
      <trkpt lat="48.75739" lon="-0.53026">
        <ele>270.4</ele>
        <time>2020-09-06T10:06:28Z</time>
      </trkpt>
      <trkpt lat="48.75755" lon="-0.53045">
        <ele>270.2</ele>
        <time>2020-09-06T10:06:35Z</time>
      </trkpt>
      <trkpt lat="48.75781" lon="-0.53081">
        <ele>269.4</ele>
        <time>2020-09-06T10:06:44Z</time>
      </trkpt>
      <trkpt lat="48.75794" lon="-0.53098">
        <ele>269</ele>
        <time>2020-09-06T10:06:48Z</time>
      </trkpt>
      <trkpt lat="48.75806" lon="-0.53112">
        <ele>268.6</ele>
        <time>2020-09-06T10:06:51Z</time>
      </trkpt>
      <trkpt lat="48.75814" lon="-0.53121">
        <ele>268.4</ele>
        <time>2020-09-06T10:06:53Z</time>
      </trkpt>
      <trkpt lat="48.7583" lon="-0.5314">
        <ele>267.4</ele>
        <time>2020-09-06T10:06:57Z</time>
      </trkpt>
      <trkpt lat="48.75842" lon="-0.53156">
        <ele>266.8</ele>
        <time>2020-09-06T10:07:00Z</time>
      </trkpt>
      <trkpt lat="48.75866" lon="-0.53188">
        <ele>266.2</ele>
        <time>2020-09-06T10:07:06Z</time>
      </trkpt>
      <trkpt lat="48.75877" lon="-0.53204">
        <ele>265.8</ele>
        <time>2020-09-06T10:07:09Z</time>
      </trkpt>
      <trkpt lat="48.75904" lon="-0.5325">
        <ele>265</ele>
        <time>2020-09-06T10:07:17Z</time>
      </trkpt>
      <trkpt lat="48.75923" lon="-0.5329">
        <ele>264</ele>
        <time>2020-09-06T10:07:24Z</time>
      </trkpt>
      <trkpt lat="48.75932" lon="-0.53308">
        <ele>263.6</ele>
        <time>2020-09-06T10:07:27Z</time>
      </trkpt>
      <trkpt lat="48.7594" lon="-0.53326">
        <ele>262.8</ele>
        <time>2020-09-06T10:07:30Z</time>
      </trkpt>
      <trkpt lat="48.75959" lon="-0.53369">
        <ele>262.2</ele>
        <time>2020-09-06T10:07:37Z</time>
      </trkpt>
      <trkpt lat="48.75971" lon="-0.53399">
        <ele>261.8</ele>
        <time>2020-09-06T10:07:42Z</time>
      </trkpt>
      <trkpt lat="48.75985" lon="-0.53437">
        <ele>261.6</ele>
        <time>2020-09-06T10:07:48Z</time>
      </trkpt>
      <trkpt lat="48.76" lon="-0.5348">
        <ele>261</ele>
        <time>2020-09-06T10:07:55Z</time>
      </trkpt>
      <trkpt lat="48.76007" lon="-0.53498">
        <ele>260.8</ele>
        <time>2020-09-06T10:07:58Z</time>
      </trkpt>
      <trkpt lat="48.76015" lon="-0.53525">
        <ele>259.6</ele>
        <time>2020-09-06T10:08:02Z</time>
      </trkpt>
      <trkpt lat="48.76017" lon="-0.53532">
        <ele>259.2</ele>
        <time>2020-09-06T10:08:03Z</time>
      </trkpt>
      <trkpt lat="48.76019" lon="-0.53547">
        <ele>258.4</ele>
        <time>2020-09-06T10:08:05Z</time>
      </trkpt>
      <trkpt lat="48.76026" lon="-0.53591">
        <ele>257.6</ele>
        <time>2020-09-06T10:08:11Z</time>
      </trkpt>
      <trkpt lat="48.76027" lon="-0.53598">
        <ele>257.4</ele>
        <time>2020-09-06T10:08:12Z</time>
      </trkpt>
      <trkpt lat="48.76033" lon="-0.53644">
        <ele>256.6</ele>
        <time>2020-09-06T10:08:19Z</time>
      </trkpt>
      <trkpt lat="48.76039" lon="-0.53673">
        <ele>256.4</ele>
        <time>2020-09-06T10:08:24Z</time>
      </trkpt>
      <trkpt lat="48.76041" lon="-0.53679">
        <ele>256.2</ele>
        <time>2020-09-06T10:08:25Z</time>
      </trkpt>
      <trkpt lat="48.76048" lon="-0.53694">
        <ele>255.8</ele>
        <time>2020-09-06T10:08:28Z</time>
      </trkpt>
      <trkpt lat="48.76055" lon="-0.53702">
        <ele>256.2</ele>
        <time>2020-09-06T10:08:30Z</time>
      </trkpt>
      <trkpt lat="48.76063" lon="-0.53709">
        <ele>256.6</ele>
        <time>2020-09-06T10:08:32Z</time>
      </trkpt>
      <trkpt lat="48.7608" lon="-0.53729">
        <ele>256.6</ele>
        <time>2020-09-06T10:08:37Z</time>
      </trkpt>
      <trkpt lat="48.76096" lon="-0.53753">
        <ele>256.6</ele>
        <time>2020-09-06T10:08:43Z</time>
      </trkpt>
      <trkpt lat="48.76107" lon="-0.53769">
        <ele>256.6</ele>
        <time>2020-09-06T10:08:47Z</time>
      </trkpt>
      <trkpt lat="48.76113" lon="-0.53778">
        <ele>256.6</ele>
        <time>2020-09-06T10:08:49Z</time>
      </trkpt>
      <trkpt lat="48.76127" lon="-0.53807">
        <ele>257.2</ele>
        <time>2020-09-06T10:08:56Z</time>
      </trkpt>
      <trkpt lat="48.76137" lon="-0.53827">
        <ele>256.8</ele>
        <time>2020-09-06T10:09:01Z</time>
      </trkpt>
      <trkpt lat="48.76151" lon="-0.5386">
        <ele>257.4</ele>
        <time>2020-09-06T10:09:09Z</time>
      </trkpt>
      <trkpt lat="48.76164" lon="-0.53886">
        <ele>257.8</ele>
        <time>2020-09-06T10:09:17Z</time>
      </trkpt>
      <trkpt lat="48.76169" lon="-0.53896">
        <ele>258.4</ele>
        <time>2020-09-06T10:09:20Z</time>
      </trkpt>
      <trkpt lat="48.76175" lon="-0.5391">
        <ele>259.6</ele>
        <time>2020-09-06T10:09:24Z</time>
      </trkpt>
      <trkpt lat="48.76178" lon="-0.53916">
        <ele>259.6</ele>
        <time>2020-09-06T10:09:26Z</time>
      </trkpt>
      <trkpt lat="48.76188" lon="-0.53937">
        <ele>260</ele>
        <time>2020-09-06T10:09:32Z</time>
      </trkpt>
      <trkpt lat="48.76198" lon="-0.53957">
        <ele>260.6</ele>
        <time>2020-09-06T10:09:38Z</time>
      </trkpt>
      <trkpt lat="48.76202" lon="-0.53963">
        <ele>260.6</ele>
        <time>2020-09-06T10:09:40Z</time>
      </trkpt>
      <trkpt lat="48.76215" lon="-0.53984">
        <ele>261.4</ele>
        <time>2020-09-06T10:09:47Z</time>
      </trkpt>
      <trkpt lat="48.7622" lon="-0.53994">
        <ele>261.8</ele>
        <time>2020-09-06T10:09:50Z</time>
      </trkpt>
      <trkpt lat="48.76228" lon="-0.54006">
        <ele>263</ele>
        <time>2020-09-06T10:09:54Z</time>
      </trkpt>
      <trkpt lat="48.7623" lon="-0.54009">
        <ele>263.2</ele>
        <time>2020-09-06T10:09:55Z</time>
      </trkpt>
      <trkpt lat="48.76237" lon="-0.54017">
        <ele>264</ele>
        <time>2020-09-06T10:09:58Z</time>
      </trkpt>
      <trkpt lat="48.76247" lon="-0.54031">
        <ele>265.2</ele>
        <time>2020-09-06T10:10:02Z</time>
      </trkpt>
      <trkpt lat="48.7625" lon="-0.54035">
        <ele>265.4</ele>
        <time>2020-09-06T10:10:03Z</time>
      </trkpt>
      <trkpt lat="48.76255" lon="-0.54044">
        <ele>266.2</ele>
        <time>2020-09-06T10:10:05Z</time>
      </trkpt>
      <trkpt lat="48.76261" lon="-0.54059">
        <ele>267.2</ele>
        <time>2020-09-06T10:10:08Z</time>
      </trkpt>
      <trkpt lat="48.76262" lon="-0.54065">
        <ele>267.4</ele>
        <time>2020-09-06T10:10:09Z</time>
      </trkpt>
      <trkpt lat="48.76259" lon="-0.54094">
        <ele>268</ele>
        <time>2020-09-06T10:10:14Z</time>
      </trkpt>
      <trkpt lat="48.76257" lon="-0.54099">
        <ele>268.2</ele>
        <time>2020-09-06T10:10:15Z</time>
      </trkpt>
      <trkpt lat="48.76252" lon="-0.54109">
        <ele>269</ele>
        <time>2020-09-06T10:10:17Z</time>
      </trkpt>
      <trkpt lat="48.7625" lon="-0.54114">
        <ele>269.4</ele>
        <time>2020-09-06T10:10:18Z</time>
      </trkpt>
      <trkpt lat="48.76247" lon="-0.5412">
        <ele>269.6</ele>
        <time>2020-09-06T10:10:19Z</time>
      </trkpt>
      <trkpt lat="48.76228" lon="-0.54155">
        <ele>270.4</ele>
        <time>2020-09-06T10:10:25Z</time>
      </trkpt>
      <trkpt lat="48.76224" lon="-0.54161">
        <ele>270.6</ele>
        <time>2020-09-06T10:10:26Z</time>
      </trkpt>
      <trkpt lat="48.76205" lon="-0.54195">
        <ele>270.8</ele>
        <time>2020-09-06T10:10:32Z</time>
      </trkpt>
      <trkpt lat="48.76201" lon="-0.54207">
        <ele>270.8</ele>
        <time>2020-09-06T10:10:34Z</time>
      </trkpt>
      <trkpt lat="48.76192" lon="-0.54248">
        <ele>271.4</ele>
        <time>2020-09-06T10:10:40Z</time>
      </trkpt>
      <trkpt lat="48.76186" lon="-0.54307">
        <ele>271.6</ele>
        <time>2020-09-06T10:10:49Z</time>
      </trkpt>
      <trkpt lat="48.7618" lon="-0.54357">
        <ele>272.2</ele>
        <time>2020-09-06T10:10:57Z</time>
      </trkpt>
      <trkpt lat="48.7618" lon="-0.54363">
        <ele>272.4</ele>
        <time>2020-09-06T10:10:58Z</time>
      </trkpt>
      <trkpt lat="48.76178" lon="-0.54392">
        <ele>273</ele>
        <time>2020-09-06T10:11:03Z</time>
      </trkpt>
      <trkpt lat="48.76176" lon="-0.54436">
        <ele>273</ele>
        <time>2020-09-06T10:11:10Z</time>
      </trkpt>
      <trkpt lat="48.76176" lon="-0.54485">
        <ele>272.4</ele>
        <time>2020-09-06T10:11:17Z</time>
      </trkpt>
      <trkpt lat="48.76178" lon="-0.54543">
        <ele>272.2</ele>
        <time>2020-09-06T10:11:24Z</time>
      </trkpt>
      <trkpt lat="48.76178" lon="-0.54588">
        <ele>271.2</ele>
        <time>2020-09-06T10:11:28Z</time>
      </trkpt>
      <trkpt lat="48.76179" lon="-0.54612">
        <ele>270.6</ele>
        <time>2020-09-06T10:11:30Z</time>
      </trkpt>
      <trkpt lat="48.76178" lon="-0.54638">
        <ele>270</ele>
        <time>2020-09-06T10:11:32Z</time>
      </trkpt>
      <trkpt lat="48.76176" lon="-0.54679">
        <ele>268.8</ele>
        <time>2020-09-06T10:11:35Z</time>
      </trkpt>
      <trkpt lat="48.76175" lon="-0.54692">
        <ele>268.4</ele>
        <time>2020-09-06T10:11:36Z</time>
      </trkpt>
      <trkpt lat="48.76174" lon="-0.54721">
        <ele>267.8</ele>
        <time>2020-09-06T10:11:38Z</time>
      </trkpt>
      <trkpt lat="48.76175" lon="-0.54764">
        <ele>266.2</ele>
        <time>2020-09-06T10:11:41Z</time>
      </trkpt>
      <trkpt lat="48.76176" lon="-0.54778">
        <ele>265.8</ele>
        <time>2020-09-06T10:11:42Z</time>
      </trkpt>
      <trkpt lat="48.76177" lon="-0.54805">
        <ele>265.2</ele>
        <time>2020-09-06T10:11:44Z</time>
      </trkpt>
      <trkpt lat="48.7618" lon="-0.54845">
        <ele>264</ele>
        <time>2020-09-06T10:11:47Z</time>
      </trkpt>
      <trkpt lat="48.76182" lon="-0.54871">
        <ele>263</ele>
        <time>2020-09-06T10:11:49Z</time>
      </trkpt>
      <trkpt lat="48.76183" lon="-0.54883">
        <ele>262.6</ele>
        <time>2020-09-06T10:11:50Z</time>
      </trkpt>
      <trkpt lat="48.76188" lon="-0.54944">
        <ele>261.4</ele>
        <time>2020-09-06T10:11:55Z</time>
      </trkpt>
      <trkpt lat="48.7619" lon="-0.54967">
        <ele>260.8</ele>
        <time>2020-09-06T10:11:57Z</time>
      </trkpt>
      <trkpt lat="48.76192" lon="-0.54988">
        <ele>260.4</ele>
        <time>2020-09-06T10:11:59Z</time>
      </trkpt>
      <trkpt lat="48.76197" lon="-0.55027">
        <ele>260.4</ele>
        <time>2020-09-06T10:12:03Z</time>
      </trkpt>
      <trkpt lat="48.76208" lon="-0.55074">
        <ele>260.4</ele>
        <time>2020-09-06T10:12:09Z</time>
      </trkpt>
      <trkpt lat="48.76223" lon="-0.55134">
        <ele>260.4</ele>
        <time>2020-09-06T10:12:18Z</time>
      </trkpt>
      <trkpt lat="48.76225" lon="-0.5514">
        <ele>260.4</ele>
        <time>2020-09-06T10:12:19Z</time>
      </trkpt>
      <trkpt lat="48.76235" lon="-0.55179">
        <ele>261</ele>
        <time>2020-09-06T10:12:25Z</time>
      </trkpt>
      <trkpt lat="48.76243" lon="-0.55213">
        <ele>261.4</ele>
        <time>2020-09-06T10:12:31Z</time>
      </trkpt>
      <trkpt lat="48.76248" lon="-0.55229">
        <ele>261.8</ele>
        <time>2020-09-06T10:12:34Z</time>
      </trkpt>
      <trkpt lat="48.76258" lon="-0.55266">
        <ele>261.6</ele>
        <time>2020-09-06T10:12:42Z</time>
      </trkpt>
      <trkpt lat="48.76267" lon="-0.55289">
        <ele>261</ele>
        <time>2020-09-06T10:12:48Z</time>
      </trkpt>
      <trkpt lat="48.76275" lon="-0.55324">
        <ele>261.2</ele>
        <time>2020-09-06T10:12:57Z</time>
      </trkpt>
      <trkpt lat="48.76285" lon="-0.55358">
        <ele>260.6</ele>
        <time>2020-09-06T10:13:05Z</time>
      </trkpt>
      <trkpt lat="48.76288" lon="-0.55365">
        <ele>260.4</ele>
        <time>2020-09-06T10:13:07Z</time>
      </trkpt>
      <trkpt lat="48.76296" lon="-0.55399">
        <ele>261</ele>
        <time>2020-09-06T10:13:15Z</time>
      </trkpt>
      <trkpt lat="48.76298" lon="-0.55413">
        <ele>261.6</ele>
        <time>2020-09-06T10:13:18Z</time>
      </trkpt>
      <trkpt lat="48.763" lon="-0.55427">
        <ele>263</ele>
        <time>2020-09-06T10:13:21Z</time>
      </trkpt>
      <trkpt lat="48.76302" lon="-0.55436">
        <ele>264.2</ele>
        <time>2020-09-06T10:13:23Z</time>
      </trkpt>
      <trkpt lat="48.76304" lon="-0.55449">
        <ele>265.2</ele>
        <time>2020-09-06T10:13:26Z</time>
      </trkpt>
      <trkpt lat="48.76306" lon="-0.55458">
        <ele>265.8</ele>
        <time>2020-09-06T10:13:28Z</time>
      </trkpt>
      <trkpt lat="48.76308" lon="-0.55466">
        <ele>266.6</ele>
        <time>2020-09-06T10:13:30Z</time>
      </trkpt>
      <trkpt lat="48.76315" lon="-0.55483">
        <ele>267.4</ele>
        <time>2020-09-06T10:13:34Z</time>
      </trkpt>
      <trkpt lat="48.76321" lon="-0.55498">
        <ele>267.4</ele>
        <time>2020-09-06T10:13:37Z</time>
      </trkpt>
      <trkpt lat="48.76326" lon="-0.55512">
        <ele>267.4</ele>
        <time>2020-09-06T10:13:39Z</time>
      </trkpt>
      <trkpt lat="48.76343" lon="-0.55561">
        <ele>265.6</ele>
        <time>2020-09-06T10:13:45Z</time>
      </trkpt>
      <trkpt lat="48.76346" lon="-0.55572">
        <ele>265.2</ele>
        <time>2020-09-06T10:13:46Z</time>
      </trkpt>
      <trkpt lat="48.76349" lon="-0.55583">
        <ele>264.8</ele>
        <time>2020-09-06T10:13:47Z</time>
      </trkpt>
      <trkpt lat="48.7635" lon="-0.55596">
        <ele>264.2</ele>
        <time>2020-09-06T10:13:48Z</time>
      </trkpt>
      <trkpt lat="48.76351" lon="-0.55609">
        <ele>263.6</ele>
        <time>2020-09-06T10:13:49Z</time>
      </trkpt>
      <trkpt lat="48.76351" lon="-0.55623">
        <ele>262.8</ele>
        <time>2020-09-06T10:13:50Z</time>
      </trkpt>
      <trkpt lat="48.76351" lon="-0.55653">
        <ele>261.2</ele>
        <time>2020-09-06T10:13:52Z</time>
      </trkpt>
      <trkpt lat="48.7635" lon="-0.55667">
        <ele>260.6</ele>
        <time>2020-09-06T10:13:53Z</time>
      </trkpt>
      <trkpt lat="48.76349" lon="-0.55681">
        <ele>259.6</ele>
        <time>2020-09-06T10:13:54Z</time>
      </trkpt>
      <trkpt lat="48.76347" lon="-0.55705">
        <ele>258</ele>
        <time>2020-09-06T10:13:56Z</time>
      </trkpt>
      <trkpt lat="48.76346" lon="-0.55713">
        <ele>257.4</ele>
        <time>2020-09-06T10:13:57Z</time>
      </trkpt>
      <trkpt lat="48.76345" lon="-0.5572">
        <ele>257</ele>
        <time>2020-09-06T10:13:58Z</time>
      </trkpt>
      <trkpt lat="48.76344" lon="-0.55727">
        <ele>256.2</ele>
        <time>2020-09-06T10:14:00Z</time>
      </trkpt>
      <trkpt lat="48.76344" lon="-0.5573">
        <ele>255.8</ele>
        <time>2020-09-06T10:14:01Z</time>
      </trkpt>
      <trkpt lat="48.76338" lon="-0.55744">
        <ele>255.2</ele>
        <time>2020-09-06T10:14:05Z</time>
      </trkpt>
      <trkpt lat="48.76336" lon="-0.55755">
        <ele>254.6</ele>
        <time>2020-09-06T10:14:07Z</time>
      </trkpt>
      <trkpt lat="48.76331" lon="-0.5577">
        <ele>254.2</ele>
        <time>2020-09-06T10:14:09Z</time>
      </trkpt>
      <trkpt lat="48.76322" lon="-0.55798">
        <ele>253.4</ele>
        <time>2020-09-06T10:14:12Z</time>
      </trkpt>
      <trkpt lat="48.76313" lon="-0.55827">
        <ele>252.2</ele>
        <time>2020-09-06T10:14:15Z</time>
      </trkpt>
      <trkpt lat="48.76306" lon="-0.55849">
        <ele>250.8</ele>
        <time>2020-09-06T10:14:17Z</time>
      </trkpt>
      <trkpt lat="48.76301" lon="-0.55874">
        <ele>249.4</ele>
        <time>2020-09-06T10:14:19Z</time>
      </trkpt>
      <trkpt lat="48.76301" lon="-0.55889">
        <ele>248.8</ele>
        <time>2020-09-06T10:14:20Z</time>
      </trkpt>
      <trkpt lat="48.76303" lon="-0.55903">
        <ele>248</ele>
        <time>2020-09-06T10:14:21Z</time>
      </trkpt>
      <trkpt lat="48.76311" lon="-0.55931">
        <ele>246.2</ele>
        <time>2020-09-06T10:14:23Z</time>
      </trkpt>
      <trkpt lat="48.76322" lon="-0.55958">
        <ele>244.6</ele>
        <time>2020-09-06T10:14:25Z</time>
      </trkpt>
      <trkpt lat="48.76333" lon="-0.55985">
        <ele>243</ele>
        <time>2020-09-06T10:14:27Z</time>
      </trkpt>
      <trkpt lat="48.76343" lon="-0.56012">
        <ele>241.4</ele>
        <time>2020-09-06T10:14:29Z</time>
      </trkpt>
      <trkpt lat="48.76355" lon="-0.56037">
        <ele>240</ele>
        <time>2020-09-06T10:14:31Z</time>
      </trkpt>
      <trkpt lat="48.76366" lon="-0.56061">
        <ele>238.8</ele>
        <time>2020-09-06T10:14:33Z</time>
      </trkpt>
      <trkpt lat="48.76377" lon="-0.56084">
        <ele>237.6</ele>
        <time>2020-09-06T10:14:35Z</time>
      </trkpt>
      <trkpt lat="48.7639" lon="-0.56118">
        <ele>236.4</ele>
        <time>2020-09-06T10:14:38Z</time>
      </trkpt>
      <trkpt lat="48.76393" lon="-0.5613">
        <ele>236</ele>
        <time>2020-09-06T10:14:39Z</time>
      </trkpt>
      <trkpt lat="48.76401" lon="-0.56164">
        <ele>235.4</ele>
        <time>2020-09-06T10:14:42Z</time>
      </trkpt>
      <trkpt lat="48.76404" lon="-0.56186">
        <ele>235</ele>
        <time>2020-09-06T10:14:44Z</time>
      </trkpt>
      <trkpt lat="48.76409" lon="-0.5623">
        <ele>234.4</ele>
        <time>2020-09-06T10:14:49Z</time>
      </trkpt>
      <trkpt lat="48.76407" lon="-0.56256">
        <ele>234.4</ele>
        <time>2020-09-06T10:14:53Z</time>
      </trkpt>
      <trkpt lat="48.76408" lon="-0.56266">
        <ele>234.2</ele>
        <time>2020-09-06T10:14:55Z</time>
      </trkpt>
      <trkpt lat="48.76407" lon="-0.56277">
        <ele>234.2</ele>
        <time>2020-09-06T10:14:57Z</time>
      </trkpt>
      <trkpt lat="48.76407" lon="-0.56282">
        <ele>234.2</ele>
        <time>2020-09-06T10:14:58Z</time>
      </trkpt>
      <trkpt lat="48.76401" lon="-0.5632">
        <ele>234.2</ele>
        <time>2020-09-06T10:15:06Z</time>
      </trkpt>
      <trkpt lat="48.76395" lon="-0.56357">
        <ele>235</ele>
        <time>2020-09-06T10:15:14Z</time>
      </trkpt>
      <trkpt lat="48.76388" lon="-0.56402">
        <ele>235.2</ele>
        <time>2020-09-06T10:15:22Z</time>
      </trkpt>
      <trkpt lat="48.76383" lon="-0.56433">
        <ele>235.4</ele>
        <time>2020-09-06T10:15:27Z</time>
      </trkpt>
      <trkpt lat="48.76381" lon="-0.56446">
        <ele>235.2</ele>
        <time>2020-09-06T10:15:29Z</time>
      </trkpt>
      <trkpt lat="48.76381" lon="-0.56481">
        <ele>234.6</ele>
        <time>2020-09-06T10:15:34Z</time>
      </trkpt>
      <trkpt lat="48.76379" lon="-0.56499">
        <ele>234.4</ele>
        <time>2020-09-06T10:15:41Z</time>
      </trkpt>
      <trkpt lat="48.76379" lon="-0.56511">
        <ele>234</ele>
        <time>2020-09-06T10:15:44Z</time>
      </trkpt>
      <trkpt lat="48.76379" lon="-0.5653">
        <ele>233.2</ele>
        <time>2020-09-06T10:15:47Z</time>
      </trkpt>
      <trkpt lat="48.76378" lon="-0.56544">
        <ele>233</ele>
        <time>2020-09-06T10:15:49Z</time>
      </trkpt>
      <trkpt lat="48.76375" lon="-0.56565">
        <ele>232</ele>
        <time>2020-09-06T10:15:52Z</time>
      </trkpt>
      <trkpt lat="48.76373" lon="-0.56583">
        <ele>231</ele>
        <time>2020-09-06T10:15:54Z</time>
      </trkpt>
      <trkpt lat="48.76371" lon="-0.5659">
        <ele>230.6</ele>
        <time>2020-09-06T10:15:55Z</time>
      </trkpt>
      <trkpt lat="48.7637" lon="-0.56608">
        <ele>229.4</ele>
        <time>2020-09-06T10:15:58Z</time>
      </trkpt>
      <trkpt lat="48.7637" lon="-0.56611">
        <ele>229.4</ele>
        <time>2020-09-06T10:15:59Z</time>
      </trkpt>
      <trkpt lat="48.7637" lon="-0.56642">
        <ele>229.2</ele>
        <time>2020-09-06T10:16:05Z</time>
      </trkpt>
      <trkpt lat="48.7637" lon="-0.5666">
        <ele>228.2</ele>
        <time>2020-09-06T10:16:07Z</time>
      </trkpt>
      <trkpt lat="48.76372" lon="-0.56685">
        <ele>227.2</ele>
        <time>2020-09-06T10:16:10Z</time>
      </trkpt>
      <trkpt lat="48.7637" lon="-0.56721">
        <ele>226.6</ele>
        <time>2020-09-06T10:16:14Z</time>
      </trkpt>
      <trkpt lat="48.76369" lon="-0.56731">
        <ele>226.2</ele>
        <time>2020-09-06T10:16:15Z</time>
      </trkpt>
      <trkpt lat="48.76365" lon="-0.5678">
        <ele>225.2</ele>
        <time>2020-09-06T10:16:21Z</time>
      </trkpt>
      <trkpt lat="48.76363" lon="-0.56796">
        <ele>225</ele>
        <time>2020-09-06T10:16:23Z</time>
      </trkpt>
      <trkpt lat="48.7636" lon="-0.56828">
        <ele>224.4</ele>
        <time>2020-09-06T10:16:27Z</time>
      </trkpt>
      <trkpt lat="48.76358" lon="-0.56843">
        <ele>224.2</ele>
        <time>2020-09-06T10:16:29Z</time>
      </trkpt>
      <trkpt lat="48.76355" lon="-0.56872">
        <ele>223.6</ele>
        <time>2020-09-06T10:16:33Z</time>
      </trkpt>
      <trkpt lat="48.76355" lon="-0.56879">
        <ele>223.4</ele>
        <time>2020-09-06T10:16:34Z</time>
      </trkpt>
      <trkpt lat="48.76356" lon="-0.56904">
        <ele>223</ele>
        <time>2020-09-06T10:16:37Z</time>
      </trkpt>
      <trkpt lat="48.76356" lon="-0.56937">
        <ele>222.6</ele>
        <time>2020-09-06T10:16:41Z</time>
      </trkpt>
      <trkpt lat="48.76355" lon="-0.56992">
        <ele>222.2</ele>
        <time>2020-09-06T10:16:48Z</time>
      </trkpt>
      <trkpt lat="48.76355" lon="-0.57">
        <ele>222</ele>
        <time>2020-09-06T10:16:49Z</time>
      </trkpt>
      <trkpt lat="48.7635" lon="-0.57035">
        <ele>221.4</ele>
        <time>2020-09-06T10:16:54Z</time>
      </trkpt>
      <trkpt lat="48.76345" lon="-0.5707">
        <ele>221</ele>
        <time>2020-09-06T10:16:59Z</time>
      </trkpt>
      <trkpt lat="48.76343" lon="-0.57117">
        <ele>220.4</ele>
        <time>2020-09-06T10:17:05Z</time>
      </trkpt>
      <trkpt lat="48.76355" lon="-0.57146">
        <ele>220</ele>
        <time>2020-09-06T10:17:09Z</time>
      </trkpt>
      <trkpt lat="48.76358" lon="-0.57153">
        <ele>219.8</ele>
        <time>2020-09-06T10:17:10Z</time>
      </trkpt>
      <trkpt lat="48.76364" lon="-0.57168">
        <ele>218.6</ele>
        <time>2020-09-06T10:17:13Z</time>
      </trkpt>
      <trkpt lat="48.76365" lon="-0.57173">
        <ele>218.2</ele>
        <time>2020-09-06T10:17:14Z</time>
      </trkpt>
      <trkpt lat="48.76368" lon="-0.57183">
        <ele>217.4</ele>
        <time>2020-09-06T10:17:16Z</time>
      </trkpt>
      <trkpt lat="48.76372" lon="-0.57202">
        <ele>216.4</ele>
        <time>2020-09-06T10:17:19Z</time>
      </trkpt>
      <trkpt lat="48.7638" lon="-0.5723">
        <ele>215.2</ele>
        <time>2020-09-06T10:17:24Z</time>
      </trkpt>
      <trkpt lat="48.76382" lon="-0.57235">
        <ele>215</ele>
        <time>2020-09-06T10:17:25Z</time>
      </trkpt>
      <trkpt lat="48.76385" lon="-0.57255">
        <ele>214.2</ele>
        <time>2020-09-06T10:17:29Z</time>
      </trkpt>
      <trkpt lat="48.76388" lon="-0.57271">
        <ele>212.8</ele>
        <time>2020-09-06T10:17:32Z</time>
      </trkpt>
      <trkpt lat="48.76391" lon="-0.57288">
        <ele>211.4</ele>
        <time>2020-09-06T10:17:35Z</time>
      </trkpt>
      <trkpt lat="48.76393" lon="-0.57312">
        <ele>210.4</ele>
        <time>2020-09-06T10:17:39Z</time>
      </trkpt>
      <trkpt lat="48.76398" lon="-0.57323">
        <ele>209.6</ele>
        <time>2020-09-06T10:17:42Z</time>
      </trkpt>
      <trkpt lat="48.764" lon="-0.57323">
        <ele>209.4</ele>
        <time>2020-09-06T10:17:43Z</time>
      </trkpt>
      <trkpt lat="48.76407" lon="-0.57323">
        <ele>208.8</ele>
        <time>2020-09-06T10:17:46Z</time>
      </trkpt>
      <trkpt lat="48.76416" lon="-0.57323">
        <ele>208.4</ele>
        <time>2020-09-06T10:17:49Z</time>
      </trkpt>
      <trkpt lat="48.76432" lon="-0.57324">
        <ele>208.8</ele>
        <time>2020-09-06T10:17:55Z</time>
      </trkpt>
      <trkpt lat="48.76444" lon="-0.57328">
        <ele>208.6</ele>
        <time>2020-09-06T10:18:00Z</time>
      </trkpt>
      <trkpt lat="48.76449" lon="-0.57328">
        <ele>208.2</ele>
        <time>2020-09-06T10:18:03Z</time>
      </trkpt>
      <trkpt lat="48.76454" lon="-0.57331">
        <ele>208</ele>
        <time>2020-09-06T10:18:05Z</time>
      </trkpt>
      <trkpt lat="48.76468" lon="-0.57335">
        <ele>207</ele>
        <time>2020-09-06T10:18:10Z</time>
      </trkpt>
      <trkpt lat="48.76471" lon="-0.57336">
        <ele>206.8</ele>
        <time>2020-09-06T10:18:11Z</time>
      </trkpt>
      <trkpt lat="48.76481" lon="-0.57337">
        <ele>205.8</ele>
        <time>2020-09-06T10:18:14Z</time>
      </trkpt>
      <trkpt lat="48.7649" lon="-0.5734">
        <ele>205.4</ele>
        <time>2020-09-06T10:18:16Z</time>
      </trkpt>
      <trkpt lat="48.76515" lon="-0.57352">
        <ele>204.6</ele>
        <time>2020-09-06T10:18:22Z</time>
      </trkpt>
      <trkpt lat="48.76522" lon="-0.57356">
        <ele>204.2</ele>
        <time>2020-09-06T10:18:24Z</time>
      </trkpt>
      <trkpt lat="48.76539" lon="-0.5737">
        <ele>203.8</ele>
        <time>2020-09-06T10:18:30Z</time>
      </trkpt>
      <trkpt lat="48.76553" lon="-0.57383">
        <ele>203.6</ele>
        <time>2020-09-06T10:18:35Z</time>
      </trkpt>
      <trkpt lat="48.76564" lon="-0.57395">
        <ele>203</ele>
        <time>2020-09-06T10:18:38Z</time>
      </trkpt>
      <trkpt lat="48.76569" lon="-0.57403">
        <ele>202.8</ele>
        <time>2020-09-06T10:18:40Z</time>
      </trkpt>
      <trkpt lat="48.76576" lon="-0.57415">
        <ele>202.4</ele>
        <time>2020-09-06T10:18:43Z</time>
      </trkpt>
      <trkpt lat="48.76583" lon="-0.57435">
        <ele>202</ele>
        <time>2020-09-06T10:18:47Z</time>
      </trkpt>
      <trkpt lat="48.76594" lon="-0.57469">
        <ele>202</ele>
        <time>2020-09-06T10:18:54Z</time>
      </trkpt>
      <trkpt lat="48.766" lon="-0.57487">
        <ele>201.8</ele>
        <time>2020-09-06T10:18:58Z</time>
      </trkpt>
      <trkpt lat="48.76609" lon="-0.5749">
        <ele>201.2</ele>
        <time>2020-09-06T10:19:00Z</time>
      </trkpt>
      <trkpt lat="48.76615" lon="-0.57489">
        <ele>201</ele>
        <time>2020-09-06T10:19:01Z</time>
      </trkpt>
      <trkpt lat="48.76627" lon="-0.57482">
        <ele>200.2</ele>
        <time>2020-09-06T10:19:03Z</time>
      </trkpt>
      <trkpt lat="48.76631" lon="-0.57476">
        <ele>199.8</ele>
        <time>2020-09-06T10:19:04Z</time>
      </trkpt>
      <trkpt lat="48.76635" lon="-0.57459">
        <ele>199.2</ele>
        <time>2020-09-06T10:19:06Z</time>
      </trkpt>
      <trkpt lat="48.76636" lon="-0.57452">
        <ele>199</ele>
        <time>2020-09-06T10:19:07Z</time>
      </trkpt>
      <trkpt lat="48.76637" lon="-0.57445">
        <ele>198.8</ele>
        <time>2020-09-06T10:19:08Z</time>
      </trkpt>
      <trkpt lat="48.76639" lon="-0.57413">
        <ele>198.6</ele>
        <time>2020-09-06T10:19:12Z</time>
      </trkpt>
      <trkpt lat="48.7664" lon="-0.57405">
        <ele>198.6</ele>
        <time>2020-09-06T10:19:13Z</time>
      </trkpt>
      <trkpt lat="48.76651" lon="-0.57383">
        <ele>198.6</ele>
        <time>2020-09-06T10:19:17Z</time>
      </trkpt>
      <trkpt lat="48.76657" lon="-0.57379">
        <ele>199.2</ele>
        <time>2020-09-06T10:19:19Z</time>
      </trkpt>
      <trkpt lat="48.7667" lon="-0.57371">
        <ele>199.8</ele>
        <time>2020-09-06T10:19:23Z</time>
      </trkpt>
      <trkpt lat="48.76677" lon="-0.57368">
        <ele>200.2</ele>
        <time>2020-09-06T10:19:25Z</time>
      </trkpt>
      <trkpt lat="48.76689" lon="-0.57374">
        <ele>200.8</ele>
        <time>2020-09-06T10:19:28Z</time>
      </trkpt>
      <trkpt lat="48.76697" lon="-0.57381">
        <ele>201.4</ele>
        <time>2020-09-06T10:19:30Z</time>
      </trkpt>
      <trkpt lat="48.7671" lon="-0.57392">
        <ele>202.2</ele>
        <time>2020-09-06T10:19:33Z</time>
      </trkpt>
      <trkpt lat="48.76718" lon="-0.574">
        <ele>202.6</ele>
        <time>2020-09-06T10:19:35Z</time>
      </trkpt>
      <trkpt lat="48.76737" lon="-0.57421">
        <ele>203</ele>
        <time>2020-09-06T10:19:40Z</time>
      </trkpt>
      <trkpt lat="48.76761" lon="-0.57438">
        <ele>203.6</ele>
        <time>2020-09-06T10:19:46Z</time>
      </trkpt>
      <trkpt lat="48.76782" lon="-0.57448">
        <ele>203.8</ele>
        <time>2020-09-06T10:19:52Z</time>
      </trkpt>
      <trkpt lat="48.76803" lon="-0.57457">
        <ele>204.8</ele>
        <time>2020-09-06T10:19:58Z</time>
      </trkpt>
      <trkpt lat="48.76827" lon="-0.57463">
        <ele>206</ele>
        <time>2020-09-06T10:20:05Z</time>
      </trkpt>
      <trkpt lat="48.76853" lon="-0.57465">
        <ele>207</ele>
        <time>2020-09-06T10:20:13Z</time>
      </trkpt>
      <trkpt lat="48.76875" lon="-0.57463">
        <ele>208</ele>
        <time>2020-09-06T10:20:19Z</time>
      </trkpt>
      <trkpt lat="48.76878" lon="-0.57463">
        <ele>208.2</ele>
        <time>2020-09-06T10:20:20Z</time>
      </trkpt>
      <trkpt lat="48.76896" lon="-0.5746">
        <ele>208.4</ele>
        <time>2020-09-06T10:20:25Z</time>
      </trkpt>
      <trkpt lat="48.76903" lon="-0.57457">
        <ele>209.2</ele>
        <time>2020-09-06T10:20:27Z</time>
      </trkpt>
      <trkpt lat="48.76917" lon="-0.5745">
        <ele>209.2</ele>
        <time>2020-09-06T10:20:32Z</time>
      </trkpt>
      <trkpt lat="48.76928" lon="-0.57442">
        <ele>209.4</ele>
        <time>2020-09-06T10:20:37Z</time>
      </trkpt>
      <trkpt lat="48.76942" lon="-0.57437">
        <ele>210</ele>
        <time>2020-09-06T10:20:42Z</time>
      </trkpt>
      <trkpt lat="48.76957" lon="-0.57445">
        <ele>209.4</ele>
        <time>2020-09-06T10:20:47Z</time>
      </trkpt>
      <trkpt lat="48.76974" lon="-0.57452">
        <ele>208.6</ele>
        <time>2020-09-06T10:20:52Z</time>
      </trkpt>
      <trkpt lat="48.76981" lon="-0.57454">
        <ele>208.2</ele>
        <time>2020-09-06T10:20:54Z</time>
      </trkpt>
      <trkpt lat="48.76995" lon="-0.57458">
        <ele>207.4</ele>
        <time>2020-09-06T10:20:58Z</time>
      </trkpt>
      <trkpt lat="48.77008" lon="-0.57462">
        <ele>207</ele>
        <time>2020-09-06T10:21:02Z</time>
      </trkpt>
      <trkpt lat="48.7702" lon="-0.57466">
        <ele>206.6</ele>
        <time>2020-09-06T10:21:05Z</time>
      </trkpt>
      <trkpt lat="48.77031" lon="-0.57468">
        <ele>206</ele>
        <time>2020-09-06T10:21:08Z</time>
      </trkpt>
      <trkpt lat="48.77058" lon="-0.57481">
        <ele>205.4</ele>
        <time>2020-09-06T10:21:15Z</time>
      </trkpt>
      <trkpt lat="48.77091" lon="-0.57506">
        <ele>205</ele>
        <time>2020-09-06T10:21:24Z</time>
      </trkpt>
      <trkpt lat="48.77094" lon="-0.57509">
        <ele>205</ele>
        <time>2020-09-06T10:21:25Z</time>
      </trkpt>
      <trkpt lat="48.77115" lon="-0.57529">
        <ele>205.6</ele>
        <time>2020-09-06T10:21:31Z</time>
      </trkpt>
      <trkpt lat="48.77129" lon="-0.5754">
        <ele>206.2</ele>
        <time>2020-09-06T10:21:35Z</time>
      </trkpt>
      <trkpt lat="48.7714" lon="-0.57547">
        <ele>206.4</ele>
        <time>2020-09-06T10:21:38Z</time>
      </trkpt>
      <trkpt lat="48.77167" lon="-0.57558">
        <ele>206.6</ele>
        <time>2020-09-06T10:21:45Z</time>
      </trkpt>
      <trkpt lat="48.77175" lon="-0.57564">
        <ele>206.6</ele>
        <time>2020-09-06T10:21:47Z</time>
      </trkpt>
      <trkpt lat="48.77179" lon="-0.57575">
        <ele>206.8</ele>
        <time>2020-09-06T10:21:49Z</time>
      </trkpt>
      <trkpt lat="48.77174" lon="-0.57593">
        <ele>206.6</ele>
        <time>2020-09-06T10:21:52Z</time>
      </trkpt>
      <trkpt lat="48.77176" lon="-0.57603">
        <ele>206.6</ele>
        <time>2020-09-06T10:21:54Z</time>
      </trkpt>
      <trkpt lat="48.77177" lon="-0.57607">
        <ele>206.4</ele>
        <time>2020-09-06T10:21:55Z</time>
      </trkpt>
      <trkpt lat="48.7719" lon="-0.57623">
        <ele>206.2</ele>
        <time>2020-09-06T10:21:59Z</time>
      </trkpt>
      <trkpt lat="48.77195" lon="-0.57627">
        <ele>206</ele>
        <time>2020-09-06T10:22:00Z</time>
      </trkpt>
      <trkpt lat="48.77199" lon="-0.57632">
        <ele>205.8</ele>
        <time>2020-09-06T10:22:01Z</time>
      </trkpt>
      <trkpt lat="48.77205" lon="-0.57635">
        <ele>205.4</ele>
        <time>2020-09-06T10:22:03Z</time>
      </trkpt>
      <trkpt lat="48.77211" lon="-0.57637">
        <ele>205.2</ele>
        <time>2020-09-06T10:22:05Z</time>
      </trkpt>
      <trkpt lat="48.77214" lon="-0.57638">
        <ele>205</ele>
        <time>2020-09-06T10:22:06Z</time>
      </trkpt>
      <trkpt lat="48.77225" lon="-0.5764">
        <ele>204.8</ele>
        <time>2020-09-06T10:22:09Z</time>
      </trkpt>
      <trkpt lat="48.7724" lon="-0.57644">
        <ele>204.2</ele>
        <time>2020-09-06T10:22:14Z</time>
      </trkpt>
      <trkpt lat="48.77241" lon="-0.57644">
        <ele>204</ele>
        <time>2020-09-06T10:22:15Z</time>
      </trkpt>
      <trkpt lat="48.77242" lon="-0.57641">
        <ele>203.6</ele>
        <time>2020-09-06T10:22:16Z</time>
      </trkpt>
      <trkpt lat="48.77241" lon="-0.5764">
        <ele>203.4</ele>
        <time>2020-09-06T10:22:17Z</time>
      </trkpt>
      <trkpt lat="48.77244" lon="-0.57642">
        <ele>203</ele>
        <time>2020-09-06T10:22:24Z</time>
      </trkpt>
      <trkpt lat="48.77246" lon="-0.57643">
        <ele>203</ele>
        <time>2020-09-06T10:22:25Z</time>
      </trkpt>
      <trkpt lat="48.77249" lon="-0.57644">
        <ele>203</ele>
        <time>2020-09-06T10:22:26Z</time>
      </trkpt>
      <trkpt lat="48.77255" lon="-0.57647">
        <ele>202.8</ele>
        <time>2020-09-06T10:22:28Z</time>
      </trkpt>
      <trkpt lat="48.77262" lon="-0.5765">
        <ele>202.4</ele>
        <time>2020-09-06T10:22:31Z</time>
      </trkpt>
      <trkpt lat="48.77266" lon="-0.5766">
        <ele>201.8</ele>
        <time>2020-09-06T10:22:34Z</time>
      </trkpt>
      <trkpt lat="48.77267" lon="-0.57664">
        <ele>201.6</ele>
        <time>2020-09-06T10:22:35Z</time>
      </trkpt>
      <trkpt lat="48.7727" lon="-0.57683">
        <ele>200.6</ele>
        <time>2020-09-06T10:22:38Z</time>
      </trkpt>
      <trkpt lat="48.77272" lon="-0.57699">
        <ele>200</ele>
        <time>2020-09-06T10:22:40Z</time>
      </trkpt>
      <trkpt lat="48.77272" lon="-0.57707">
        <ele>199.6</ele>
        <time>2020-09-06T10:22:41Z</time>
      </trkpt>
      <trkpt lat="48.77275" lon="-0.57742">
        <ele>198.4</ele>
        <time>2020-09-06T10:22:45Z</time>
      </trkpt>
      <trkpt lat="48.77276" lon="-0.57747">
        <ele>198</ele>
        <time>2020-09-06T10:22:46Z</time>
      </trkpt>
      <trkpt lat="48.77276" lon="-0.5775">
        <ele>197.6</ele>
        <time>2020-09-06T10:22:47Z</time>
      </trkpt>
      <trkpt lat="48.77276" lon="-0.57751">
        <ele>197.2</ele>
        <time>2020-09-06T10:22:48Z</time>
      </trkpt>
      <trkpt lat="48.77275" lon="-0.57756">
        <ele>196.4</ele>
        <time>2020-09-06T10:22:51Z</time>
      </trkpt>
      <trkpt lat="48.77274" lon="-0.57757">
        <ele>196</ele>
        <time>2020-09-06T10:22:52Z</time>
      </trkpt>
      <trkpt lat="48.77265" lon="-0.57758">
        <ele>195.6</ele>
        <time>2020-09-06T10:22:55Z</time>
      </trkpt>
      <trkpt lat="48.77258" lon="-0.57761">
        <ele>195.4</ele>
        <time>2020-09-06T10:22:57Z</time>
      </trkpt>
      <trkpt lat="48.77242" lon="-0.57762">
        <ele>195</ele>
        <time>2020-09-06T10:23:01Z</time>
      </trkpt>
      <trkpt lat="48.77219" lon="-0.57753">
        <ele>194.4</ele>
        <time>2020-09-06T10:23:08Z</time>
      </trkpt>
      <trkpt lat="48.77214" lon="-0.57748">
        <ele>194</ele>
        <time>2020-09-06T10:23:12Z</time>
      </trkpt>
      <trkpt lat="48.77212" lon="-0.57748">
        <ele>193.8</ele>
        <time>2020-09-06T10:23:21Z</time>
      </trkpt>
      <trkpt lat="48.77208" lon="-0.57746">
        <ele>193.8</ele>
        <time>2020-09-06T10:23:23Z</time>
      </trkpt>
      <trkpt lat="48.77196" lon="-0.57737">
        <ele>194</ele>
        <time>2020-09-06T10:23:30Z</time>
      </trkpt>
      <trkpt lat="48.77185" lon="-0.57735">
        <ele>193.6</ele>
        <time>2020-09-06T10:23:36Z</time>
      </trkpt>
      <trkpt lat="48.77167" lon="-0.5773">
        <ele>193.4</ele>
        <time>2020-09-06T10:23:43Z</time>
      </trkpt>
      <trkpt lat="48.77158" lon="-0.57715">
        <ele>193.8</ele>
        <time>2020-09-06T10:23:48Z</time>
      </trkpt>
      <trkpt lat="48.77156" lon="-0.57715">
        <ele>193.8</ele>
        <time>2020-09-06T10:23:49Z</time>
      </trkpt>
      <trkpt lat="48.77151" lon="-0.5772">
        <ele>194.4</ele>
        <time>2020-09-06T10:23:51Z</time>
      </trkpt>
      <trkpt lat="48.77148" lon="-0.57726">
        <ele>195.2</ele>
        <time>2020-09-06T10:23:53Z</time>
      </trkpt>
      <trkpt lat="48.77142" lon="-0.57735">
        <ele>195.8</ele>
        <time>2020-09-06T10:23:55Z</time>
      </trkpt>
      <trkpt lat="48.77137" lon="-0.57745">
        <ele>196.4</ele>
        <time>2020-09-06T10:23:57Z</time>
      </trkpt>
      <trkpt lat="48.77129" lon="-0.57757">
        <ele>197.6</ele>
        <time>2020-09-06T10:24:01Z</time>
      </trkpt>
      <trkpt lat="48.77128" lon="-0.57768">
        <ele>198.8</ele>
        <time>2020-09-06T10:24:04Z</time>
      </trkpt>
      <trkpt lat="48.77129" lon="-0.57773">
        <ele>199</ele>
        <time>2020-09-06T10:24:06Z</time>
      </trkpt>
      <trkpt lat="48.77137" lon="-0.57784">
        <ele>198.6</ele>
        <time>2020-09-06T10:24:12Z</time>
      </trkpt>
      <trkpt lat="48.77149" lon="-0.57802">
        <ele>198.8</ele>
        <time>2020-09-06T10:24:20Z</time>
      </trkpt>
      <trkpt lat="48.77159" lon="-0.57818">
        <ele>199.2</ele>
        <time>2020-09-06T10:24:27Z</time>
      </trkpt>
      <trkpt lat="48.77172" lon="-0.57836">
        <ele>198.6</ele>
        <time>2020-09-06T10:24:34Z</time>
      </trkpt>
      <trkpt lat="48.77183" lon="-0.57867">
        <ele>197.6</ele>
        <time>2020-09-06T10:24:43Z</time>
      </trkpt>
      <trkpt lat="48.7718" lon="-0.57899">
        <ele>197.2</ele>
        <time>2020-09-06T10:24:52Z</time>
      </trkpt>
      <trkpt lat="48.77171" lon="-0.57903">
        <ele>197.4</ele>
        <time>2020-09-06T10:24:57Z</time>
      </trkpt>
      <trkpt lat="48.77156" lon="-0.57909">
        <ele>198.4</ele>
        <time>2020-09-06T10:25:03Z</time>
      </trkpt>
      <trkpt lat="48.77148" lon="-0.57898">
        <ele>198.8</ele>
        <time>2020-09-06T10:25:07Z</time>
      </trkpt>
      <trkpt lat="48.77146" lon="-0.57895">
        <ele>199</ele>
        <time>2020-09-06T10:25:08Z</time>
      </trkpt>
      <trkpt lat="48.77136" lon="-0.57878">
        <ele>199.8</ele>
        <time>2020-09-06T10:25:13Z</time>
      </trkpt>
      <trkpt lat="48.77134" lon="-0.57875">
        <ele>200</ele>
        <time>2020-09-06T10:25:14Z</time>
      </trkpt>
      <trkpt lat="48.77122" lon="-0.57856">
        <ele>201</ele>
        <time>2020-09-06T10:25:20Z</time>
      </trkpt>
      <trkpt lat="48.77108" lon="-0.5784">
        <ele>201.6</ele>
        <time>2020-09-06T10:25:26Z</time>
      </trkpt>
      <trkpt lat="48.77099" lon="-0.57828">
        <ele>202.2</ele>
        <time>2020-09-06T10:25:30Z</time>
      </trkpt>
      <trkpt lat="48.77087" lon="-0.57813">
        <ele>203</ele>
        <time>2020-09-06T10:25:35Z</time>
      </trkpt>
      <trkpt lat="48.77084" lon="-0.57811">
        <ele>203.2</ele>
        <time>2020-09-06T10:25:36Z</time>
      </trkpt>
      <trkpt lat="48.77068" lon="-0.57793">
        <ele>203.6</ele>
        <time>2020-09-06T10:25:43Z</time>
      </trkpt>
      <trkpt lat="48.77054" lon="-0.57783">
        <ele>204</ele>
        <time>2020-09-06T10:25:50Z</time>
      </trkpt>
      <trkpt lat="48.77051" lon="-0.57784">
        <ele>204</ele>
        <time>2020-09-06T10:25:52Z</time>
      </trkpt>
      <trkpt lat="48.7705" lon="-0.57789">
        <ele>204</ele>
        <time>2020-09-06T10:25:54Z</time>
      </trkpt>
      <trkpt lat="48.77049" lon="-0.57808">
        <ele>203.6</ele>
        <time>2020-09-06T10:26:00Z</time>
      </trkpt>
      <trkpt lat="48.7705" lon="-0.57812">
        <ele>203.4</ele>
        <time>2020-09-06T10:26:02Z</time>
      </trkpt>
      <trkpt lat="48.77047" lon="-0.57815">
        <ele>200.4</ele>
        <time>2020-09-06T10:37:30Z</time>
      </trkpt>
      <trkpt lat="48.77048" lon="-0.57811">
        <ele>200.6</ele>
        <time>2020-09-06T10:37:31Z</time>
      </trkpt>
      <trkpt lat="48.77049" lon="-0.57798">
        <ele>201.4</ele>
        <time>2020-09-06T10:37:35Z</time>
      </trkpt>
      <trkpt lat="48.7705" lon="-0.57794">
        <ele>201.4</ele>
        <time>2020-09-06T10:37:36Z</time>
      </trkpt>
      <trkpt lat="48.77049" lon="-0.57782">
        <ele>202</ele>
        <time>2020-09-06T10:37:39Z</time>
      </trkpt>
      <trkpt lat="48.77039" lon="-0.5777">
        <ele>202.6</ele>
        <time>2020-09-06T10:37:43Z</time>
      </trkpt>
      <trkpt lat="48.77023" lon="-0.57756">
        <ele>203</ele>
        <time>2020-09-06T10:37:47Z</time>
      </trkpt>
      <trkpt lat="48.77007" lon="-0.57744">
        <ele>203.8</ele>
        <time>2020-09-06T10:37:51Z</time>
      </trkpt>
      <trkpt lat="48.76999" lon="-0.57754">
        <ele>204.4</ele>
        <time>2020-09-06T10:37:54Z</time>
      </trkpt>
      <trkpt lat="48.76997" lon="-0.57765">
        <ele>204.8</ele>
        <time>2020-09-06T10:37:56Z</time>
      </trkpt>
      <trkpt lat="48.76996" lon="-0.57771">
        <ele>205</ele>
        <time>2020-09-06T10:37:57Z</time>
      </trkpt>
      <trkpt lat="48.76994" lon="-0.57776">
        <ele>205</ele>
        <time>2020-09-06T10:37:58Z</time>
      </trkpt>
      <trkpt lat="48.76992" lon="-0.57796">
        <ele>205</ele>
        <time>2020-09-06T10:38:02Z</time>
      </trkpt>
      <trkpt lat="48.76995" lon="-0.578">
        <ele>205.2</ele>
        <time>2020-09-06T10:38:03Z</time>
      </trkpt>
      <trkpt lat="48.77009" lon="-0.57812">
        <ele>204.8</ele>
        <time>2020-09-06T10:38:07Z</time>
      </trkpt>
      <trkpt lat="48.77021" lon="-0.57832">
        <ele>204.8</ele>
        <time>2020-09-06T10:38:11Z</time>
      </trkpt>
      <trkpt lat="48.77031" lon="-0.57853">
        <ele>204.6</ele>
        <time>2020-09-06T10:38:15Z</time>
      </trkpt>
      <trkpt lat="48.77033" lon="-0.57858">
        <ele>204.4</ele>
        <time>2020-09-06T10:38:16Z</time>
      </trkpt>
      <trkpt lat="48.77047" lon="-0.57886">
        <ele>203.6</ele>
        <time>2020-09-06T10:38:22Z</time>
      </trkpt>
      <trkpt lat="48.7705" lon="-0.5789">
        <ele>203.4</ele>
        <time>2020-09-06T10:38:23Z</time>
      </trkpt>
      <trkpt lat="48.77062" lon="-0.57918">
        <ele>203.2</ele>
        <time>2020-09-06T10:38:29Z</time>
      </trkpt>
      <trkpt lat="48.77071" lon="-0.57929">
        <ele>202.4</ele>
        <time>2020-09-06T10:38:32Z</time>
      </trkpt>
      <trkpt lat="48.77076" lon="-0.57939">
        <ele>202.2</ele>
        <time>2020-09-06T10:38:34Z</time>
      </trkpt>
      <trkpt lat="48.77078" lon="-0.57944">
        <ele>202.2</ele>
        <time>2020-09-06T10:38:35Z</time>
      </trkpt>
      <trkpt lat="48.7709" lon="-0.57964">
        <ele>201.8</ele>
        <time>2020-09-06T10:38:39Z</time>
      </trkpt>
      <trkpt lat="48.77102" lon="-0.57986">
        <ele>201.4</ele>
        <time>2020-09-06T10:38:43Z</time>
      </trkpt>
      <trkpt lat="48.77111" lon="-0.57999">
        <ele>201</ele>
        <time>2020-09-06T10:38:46Z</time>
      </trkpt>
      <trkpt lat="48.77118" lon="-0.58015">
        <ele>201</ele>
        <time>2020-09-06T10:38:49Z</time>
      </trkpt>
      <trkpt lat="48.77122" lon="-0.58025">
        <ele>200.6</ele>
        <time>2020-09-06T10:38:51Z</time>
      </trkpt>
      <trkpt lat="48.77125" lon="-0.58027">
        <ele>200.4</ele>
        <time>2020-09-06T10:38:52Z</time>
      </trkpt>
      <trkpt lat="48.7713" lon="-0.58024">
        <ele>200.4</ele>
        <time>2020-09-06T10:38:54Z</time>
      </trkpt>
      <trkpt lat="48.77133" lon="-0.58016">
        <ele>200.6</ele>
        <time>2020-09-06T10:38:58Z</time>
      </trkpt>
      <trkpt lat="48.77125" lon="-0.58021">
        <ele>200</ele>
        <time>2020-09-06T10:40:04Z</time>
      </trkpt>
      <trkpt lat="48.77122" lon="-0.58025">
        <ele>200</ele>
        <time>2020-09-06T10:40:06Z</time>
      </trkpt>
      <trkpt lat="48.77112" lon="-0.58045">
        <ele>198.8</ele>
        <time>2020-09-06T10:40:13Z</time>
      </trkpt>
      <trkpt lat="48.77109" lon="-0.5805">
        <ele>198.6</ele>
        <time>2020-09-06T10:40:15Z</time>
      </trkpt>
      <trkpt lat="48.77107" lon="-0.58053">
        <ele>197.8</ele>
        <time>2020-09-06T10:40:18Z</time>
      </trkpt>
      <trkpt lat="48.77104" lon="-0.58057">
        <ele>196.8</ele>
        <time>2020-09-06T10:40:22Z</time>
      </trkpt>
      <trkpt lat="48.77104" lon="-0.58058">
        <ele>196.6</ele>
        <time>2020-09-06T10:40:23Z</time>
      </trkpt>
      <trkpt lat="48.77105" lon="-0.58059">
        <ele>195.6</ele>
        <time>2020-09-06T10:40:26Z</time>
      </trkpt>
    </trkseg>
  </trk>
</gpx>